Wetterdaten: Mittwoch, 17.02.2016
Datum Zeit Temp. A. Feuchte A. Luftdruck Regen Wind Richtung Richtung Sonnenschein ET UV Solar Taupunkt Windchill Windben Empfang
17.02.2016 00:00 2,8 C 86 % 1029,0 hPa 0,0 l/m 28,6 km/h (4 Bft) NO 54 0 min 0,000 mm 0,0 UV-I 0 W/m 0,7 C -9,1 C 32,2 km/h (5 Bft) 100,00 %
17.02.2016 00:02 2,8 C 86 % 1029,1 hPa 0,0 l/m 31,4 km/h (5 Bft) NO 45 0 min 0,000 mm 0,0 UV-I 0 W/m 0,7 C -9,8 C 38,6 km/h (5 Bft) 100,00 %
17.02.2016 00:03 2,7 C 86 % 1029,1 hPa 0,0 l/m 34,9 km/h (5 Bft) O 83 0 min 0,000 mm 0,0 UV-I 0 W/m 0,6 C -10,9 C 45,1 km/h (6 Bft) 100,00 %
17.02.2016 00:04 2,7 C 87 % 1029,1 hPa 0,0 l/m 28,1 km/h (4 Bft) O-NO 61 0 min 0,000 mm 0,0 UV-I 0 W/m 0,8 C -9,1 C 33,8 km/h (5 Bft) 96,67 %
17.02.2016 00:05 2,7 C 87 % 1029,1 hPa 0,0 l/m 32,6 km/h (5 Bft) NO 51 0 min 0,000 mm 0,0 UV-I 0 W/m 0,8 C -10,3 C 48,3 km/h (6 Bft) 100,00 %
17.02.2016 00:06 2,7 C 87 % 1029,1 hPa 0,0 l/m 37,8 km/h (5 Bft) O 87 0 min 0,000 mm 0,0 UV-I 0 W/m 0,8 C -11,5 C 56,3 km/h (7 Bft) 100,00 %
17.02.2016 00:07 2,7 C 86 % 1028,9 hPa 0,0 l/m 38,4 km/h (5 Bft) O-NO 67 0 min 0,000 mm 0,0 UV-I 0 W/m 0,6 C -11,6 C 46,7 km/h (6 Bft) 100,00 %
17.02.2016 00:08 2,7 C 86 % 1029,0 hPa 0,0 l/m 31,9 km/h (5 Bft) NO 53 0 min 0,000 mm 0,0 UV-I 0 W/m 0,6 C -10,1 C 38,6 km/h (5 Bft) 100,00 %
17.02.2016 00:09 2,7 C 87 % 1029,0 hPa 0,0 l/m 38,5 km/h (5 Bft) O-NO 76 0 min 0,000 mm 0,0 UV-I 0 W/m 0,8 C -11,6 C 46,7 km/h (6 Bft) 100,00 %
17.02.2016 00:10 2,6 C 87 % 1028,9 hPa 0,0 l/m 34,1 km/h (5 Bft) N-NO 26 0 min 0,000 mm 0,0 UV-I 0 W/m 0,7 C -10,8 C 46,7 km/h (6 Bft) 100,00 %
17.02.2016 00:11 2,6 C 87 % 1028,9 hPa 0,0 l/m 30,4 km/h (5 Bft) NO 49 0 min 0,000 mm 0,0 UV-I 0 W/m 0,7 C -9,9 C 38,6 km/h (5 Bft) 100,00 %
17.02.2016 00:12 2,6 C 87 % 1029,0 hPa 0,0 l/m 28,2 km/h (4 Bft) NO 54 0 min 0,000 mm 0,0 UV-I 0 W/m 0,7 C -9,2 C 37,0 km/h (5 Bft) 100,00 %
17.02.2016 00:13 2,6 C 87 % 1029,0 hPa 0,0 l/m 36,2 km/h (5 Bft) O-NO 58 0 min 0,000 mm 0,0 UV-I 0 W/m 0,7 C -11,3 C 46,7 km/h (6 Bft) 99,64 %
17.02.2016 00:14 2,6 C 87 % 1028,9 hPa 0,0 l/m 28,3 km/h (4 Bft) O-NO 69 0 min 0,000 mm 0,0 UV-I 0 W/m 0,7 C -9,3 C 35,4 km/h (5 Bft) 97,73 %
17.02.2016 00:15 2,6 C 87 % 1028,9 hPa 0,0 l/m 26,8 km/h (4 Bft) O-NO 75 0 min 0,000 mm 0,0 UV-I 0 W/m 0,7 C -8,8 C 35,4 km/h (5 Bft) 100,00 %
17.02.2016 00:16 2,5 C 87 % 1028,9 hPa 0,0 l/m 34,0 km/h (5 Bft) O-NO 69 0 min 0,000 mm 0,0 UV-I 0 W/m 0,6 C -10,9 C 41,8 km/h (6 Bft) 100,00 %
17.02.2016 00:17 2,5 C 87 % 1028,9 hPa 0,0 l/m 28,2 km/h (4 Bft) O-NO 65 0 min 0,000 mm 0,0 UV-I 0 W/m 0,6 C -9,4 C 40,2 km/h (6 Bft) 100,00 %
17.02.2016 00:18 2,5 C 87 % 1029,0 hPa 0,0 l/m 36,9 km/h (5 Bft) O-NO 67 0 min 0,000 mm 0,0 UV-I 0 W/m 0,6 C -11,6 C 49,9 km/h (6 Bft) 100,00 %
17.02.2016 00:19 2,5 C 87 % 1028,9 hPa 0,0 l/m 30,2 km/h (5 Bft) O-NO 58 0 min 0,000 mm 0,0 UV-I 0 W/m 0,6 C -9,9 C 38,6 km/h (5 Bft) 100,00 %
17.02.2016 00:20 2,4 C 87 % 1028,9 hPa 0,0 l/m 25,1 km/h (4 Bft) O-NO 61 0 min 0,000 mm 0,0 UV-I 0 W/m 0,5 C -8,5 C 37,0 km/h (5 Bft) 100,00 %
17.02.2016 00:21 2,4 C 87 % 1029,0 hPa 0,0 l/m 27,1 km/h (4 Bft) O-NO 66 0 min 0,000 mm 0,0 UV-I 0 W/m 0,5 C -9,2 C 37,0 km/h (5 Bft) 100,00 %
17.02.2016 00:22 2,4 C 87 % 1029,0 hPa 0,0 l/m 28,4 km/h (4 Bft) O-NO 67 0 min 0,000 mm 0,0 UV-I 0 W/m 0,5 C -9,6 C 38,6 km/h (5 Bft) 100,00 %
17.02.2016 00:23 2,4 C 87 % 1029,0 hPa 0,0 l/m 26,7 km/h (4 Bft) O-NO 71 0 min 0,000 mm 0,0 UV-I 0 W/m 0,5 C -9,0 C 35,4 km/h (5 Bft) 100,00 %
17.02.2016 00:24 2,4 C 87 % 1028,9 hPa 0,0 l/m 30,5 km/h (5 Bft) O-NO 60 0 min 0,000 mm 0,0 UV-I 0 W/m 0,5 C -10,2 C 43,5 km/h (6 Bft) 100,00 %
17.02.2016 00:25 2,4 C 87 % 1029,0 hPa 0,0 l/m 23,6 km/h (4 Bft) NO 53 0 min 0,000 mm 0,0 UV-I 0 W/m 0,5 C -8,0 C 30,6 km/h (5 Bft) 100,00 %
17.02.2016 00:26 2,3 C 87 % 1029,0 hPa 0,0 l/m 29,3 km/h (5 Bft) O 96 0 min 0,000 mm 0,0 UV-I 0 W/m 0,4 C -10,0 C 40,2 km/h (6 Bft) 99,66 %
17.02.2016 00:27 2,3 C 87 % 1029,0 hPa 0,0 l/m 34,6 km/h (5 Bft) O-NO 72 0 min 0,000 mm 0,0 UV-I 0 W/m 0,4 C -11,4 C 40,2 km/h (6 Bft) 100,00 %
17.02.2016 00:28 2,3 C 87 % 1028,9 hPa 0,0 l/m 32,7 km/h (5 Bft) O-NO 68 0 min 0,000 mm 0,0 UV-I 0 W/m 0,4 C -10,9 C 41,8 km/h (6 Bft) 100,00 %
17.02.2016 00:29 2,3 C 87 % 1028,8 hPa 0,0 l/m 39,0 km/h (6 Bft) NO 51 0 min 0,000 mm 0,0 UV-I 0 W/m 0,4 C -12,3 C 49,9 km/h (6 Bft) 100,00 %
17.02.2016 00:30 2,3 C 87 % 1028,8 hPa 0,0 l/m 34,7 km/h (5 Bft) O-NO 71 0 min 0,000 mm 0,0 UV-I 0 W/m 0,4 C -11,4 C 46,7 km/h (6 Bft) 100,00 %
17.02.2016 00:31 2,3 C 86 % 1028,8 hPa 0,0 l/m 35,7 km/h (5 Bft) NO 46 0 min 0,000 mm 0,0 UV-I 0 W/m 0,2 C -11,6 C 43,5 km/h (6 Bft) 100,00 %
17.02.2016 00:32 2,3 C 87 % 1028,8 hPa 0,0 l/m 28,7 km/h (4 Bft) O-NO 72 0 min 0,000 mm 0,0 UV-I 0 W/m 0,4 C -9,8 C 40,2 km/h (6 Bft) 100,00 %
17.02.2016 00:33 2,3 C 87 % 1028,9 hPa 0,0 l/m 26,8 km/h (4 Bft) NO 44 0 min 0,000 mm 0,0 UV-I 0 W/m 0,4 C -9,2 C 35,4 km/h (5 Bft) 100,00 %
17.02.2016 00:34 2,3 C 87 % 1028,8 hPa 0,0 l/m 36,5 km/h (5 Bft) O-NO 74 0 min 0,000 mm 0,0 UV-I 0 W/m 0,4 C -11,8 C 46,7 km/h (6 Bft) 100,00 %
17.02.2016 00:35 2,3 C 87 % 1028,8 hPa 0,0 l/m 28,7 km/h (4 Bft) O-NO 63 0 min 0,000 mm 0,0 UV-I 0 W/m 0,4 C -9,8 C 38,6 km/h (5 Bft) 100,00 %
17.02.2016 00:36 2,2 C 87 % 1028,7 hPa 0,0 l/m 24,5 km/h (4 Bft) NO 43 0 min 0,000 mm 0,0 UV-I 0 W/m 0,3 C -8,6 C 37,0 km/h (5 Bft) 100,00 %
17.02.2016 00:37 2,2 C 87 % 1028,7 hPa 0,0 l/m 28,7 km/h (4 Bft) O-NO 67 0 min 0,000 mm 0,0 UV-I 0 W/m 0,3 C -9,9 C 38,6 km/h (5 Bft) 100,00 %
17.02.2016 00:38 2,2 C 87 % 1028,5 hPa 0,0 l/m 34,9 km/h (5 Bft) O-NO 61 0 min 0,000 mm 0,0 UV-I 0 W/m 0,3 C -11,6 C 45,1 km/h (6 Bft) 100,00 %
17.02.2016 00:39 2,2 C 87 % 1028,6 hPa 0,0 l/m 25,2 km/h (4 Bft) NO 47 0 min 0,000 mm 0,0 UV-I 0 W/m 0,3 C -8,8 C 37,0 km/h (5 Bft) 100,00 %
17.02.2016 00:40 2,2 C 87 % 1028,5 hPa 0,0 l/m 30,3 km/h (5 Bft) O 94 0 min 0,000 mm 0,0 UV-I 0 W/m 0,3 C -10,4 C 41,8 km/h (6 Bft) 100,00 %
17.02.2016 00:41 2,2 C 87 % 1028,5 hPa 0,0 l/m 29,4 km/h (5 Bft) O-NO 66 0 min 0,000 mm 0,0 UV-I 0 W/m 0,3 C -10,1 C 40,2 km/h (6 Bft) 100,00 %
17.02.2016 00:42 2,2 C 87 % 1028,5 hPa 0,0 l/m 32,1 km/h (5 Bft) O-NO 73 0 min 0,000 mm 0,0 UV-I 0 W/m 0,3 C -10,9 C 43,5 km/h (6 Bft) 100,00 %
17.02.2016 00:43 2,1 C 87 % 1028,5 hPa 0,0 l/m 29,2 km/h (5 Bft) NO 56 0 min 0,000 mm 0,0 UV-I 0 W/m 0,2 C -10,2 C 41,8 km/h (6 Bft) 100,00 %
17.02.2016 00:44 2,1 C 88 % 1028,4 hPa 0,0 l/m 29,2 km/h (5 Bft) O-NO 70 0 min 0,000 mm 0,0 UV-I 0 W/m 0,3 C -10,2 C 38,6 km/h (5 Bft) 100,00 %
17.02.2016 00:45 2,1 C 88 % 1028,3 hPa 0,0 l/m 29,7 km/h (5 Bft) O-NO 59 0 min 0,000 mm 0,0 UV-I 0 W/m 0,3 C -10,4 C 43,5 km/h (6 Bft) 100,00 %
17.02.2016 00:46 2,1 C 87 % 1028,4 hPa 0,0 l/m 31,3 km/h (5 Bft) O-NO 76 0 min 0,000 mm 0,0 UV-I 0 W/m 0,2 C -10,8 C 43,5 km/h (6 Bft) 100,00 %
17.02.2016 00:47 2,1 C 87 % 1028,4 hPa 0,0 l/m 30,3 km/h (5 Bft) O-NO 69 0 min 0,000 mm 0,0 UV-I 0 W/m 0,2 C -10,5 C 40,2 km/h (6 Bft) 93,33 %
17.02.2016 00:48 2,1 C 88 % 1028,4 hPa 0,0 l/m 37,0 km/h (5 Bft) O-NO 67 0 min 0,000 mm 0,0 UV-I 0 W/m 0,3 C -12,2 C 43,5 km/h (6 Bft) 96,15 %
17.02.2016 00:49 2,1 C 88 % 1028,3 hPa 0,0 l/m 35,4 km/h (5 Bft) O-NO 60 0 min 0,000 mm 0,0 UV-I 0 W/m 0,3 C -11,8 C 43,5 km/h (6 Bft) 96,55 %
17.02.2016 00:50 2,1 C 88 % 1028,3 hPa 0,0 l/m 34,8 km/h (5 Bft) O-NO 74 0 min 0,000 mm 0,0 UV-I 0 W/m 0,3 C -11,7 C 45,1 km/h (6 Bft) 100,00 %
17.02.2016 00:51 2,1 C 88 % 1028,3 hPa 0,0 l/m 30,6 km/h (5 Bft) NO 49 0 min 0,000 mm 0,0 UV-I 0 W/m 0,3 C -10,6 C 37,0 km/h (5 Bft) 96,30 %
17.02.2016 00:52 2,1 C 88 % 1028,3 hPa 0,0 l/m 35,9 km/h (5 Bft) O-NO 66 0 min 0,000 mm 0,0 UV-I 0 W/m 0,3 C -12,0 C 45,1 km/h (6 Bft) 100,00 %
17.02.2016 00:53 2,1 C 88 % 1028,3 hPa 0,0 l/m 32,6 km/h (5 Bft) O-NO 57 0 min 0,000 mm 0,0 UV-I 0 W/m 0,3 C -11,2 C 41,8 km/h (6 Bft) 100,00 %
17.02.2016 00:54 2,1 C 88 % 1028,3 hPa 0,0 l/m 25,7 km/h (4 Bft) NO 51 0 min 0,000 mm 0,0 UV-I 0 W/m 0,3 C -9,1 C 32,2 km/h (5 Bft) 100,00 %
17.02.2016 00:55 2,0 C 88 % 1028,3 hPa 0,0 l/m 28,0 km/h (4 Bft) O-NO 63 0 min 0,000 mm 0,0 UV-I 0 W/m 0,2 C -10,0 C 40,2 km/h (6 Bft) 100,00 %
17.02.2016 00:56 2,0 C 88 % 1028,3 hPa 0,0 l/m 24,6 km/h (4 Bft) O-NO 77 0 min 0,000 mm 0,0 UV-I 0 W/m 0,2 C -8,9 C 33,8 km/h (5 Bft) 100,00 %
17.02.2016 00:57 2,0 C 88 % 1028,3 hPa 0,0 l/m 26,4 km/h (4 Bft) NO 55 0 min 0,000 mm 0,0 UV-I 0 W/m 0,2 C -9,5 C 35,4 km/h (5 Bft) 100,00 %
17.02.2016 00:58 1,9 C 89 % 1028,2 hPa 0,0 l/m 27,8 km/h (4 Bft) O-NO 69 0 min 0,000 mm 0,0 UV-I 0 W/m 0,3 C -10,1 C 33,8 km/h (5 Bft) 96,15 %
17.02.2016 00:59 1,9 C 89 % 1028,2 hPa 0,0 l/m 33,3 km/h (5 Bft) NO 42 0 min 0,000 mm 0,0 UV-I 0 W/m 0,3 C -11,6 C 43,5 km/h (6 Bft) 100,00 %
17.02.2016 01:00 1,9 C 89 % 1028,3 hPa 0,0 l/m 29,8 km/h (5 Bft) O 84 0 min 0,000 mm 0,0 UV-I 0 W/m 0,3 C -10,7 C 37,0 km/h (5 Bft) 100,00 %
17.02.2016 01:01 1,9 C 89 % 1028,3 hPa 0,0 l/m 26,3 km/h (4 Bft) O-NO 62 0 min 0,025 mm 0,0 UV-I 0 W/m 0,3 C -9,6 C 38,6 km/h (5 Bft) 100,00 %
17.02.2016 01:02 1,9 C 89 % 1028,3 hPa 0,0 l/m 28,7 km/h (4 Bft) NO 41 0 min 0,000 mm 0,0 UV-I 0 W/m 0,3 C -10,4 C 45,1 km/h (6 Bft) 96,15 %
17.02.2016 01:03 1,9 C 89 % 1028,2 hPa 0,0 l/m 31,8 km/h (5 Bft) O-NO 67 0 min 0,000 mm 0,0 UV-I 0 W/m 0,3 C -11,2 C 40,2 km/h (6 Bft) 100,00 %
17.02.2016 01:04 1,9 C 89 % 1028,3 hPa 0,0 l/m 33,7 km/h (5 Bft) O 81 0 min 0,000 mm 0,0 UV-I 0 W/m 0,3 C -11,7 C 37,0 km/h (5 Bft) 100,00 %
17.02.2016 01:05 1,9 C 89 % 1028,2 hPa 0,0 l/m 30,8 km/h (5 Bft) O-NO 74 0 min 0,000 mm 0,0 UV-I 0 W/m 0,3 C -11,0 C 38,6 km/h (5 Bft) 100,00 %
17.02.2016 01:06 1,8 C 89 % 1028,2 hPa 0,0 l/m 32,8 km/h (5 Bft) O-NO 74 0 min 0,000 mm 0,0 UV-I 0 W/m 0,2 C -11,6 C 40,2 km/h (6 Bft) 100,00 %
17.02.2016 01:07 1,8 C 89 % 1028,2 hPa 0,0 l/m 36,7 km/h (5 Bft) O-NO 65 0 min 0,000 mm 0,0 UV-I 0 W/m 0,2 C -12,6 C 46,7 km/h (6 Bft) 100,00 %
17.02.2016 01:08 1,8 C 89 % 1028,2 hPa 0,0 l/m 28,1 km/h (4 Bft) O-NO 66 0 min 0,000 mm 0,0 UV-I 0 W/m 0,2 C -10,3 C 38,6 km/h (5 Bft) 100,00 %
17.02.2016 01:09 1,8 C 89 % 1028,2 hPa 0,0 l/m 29,0 km/h (5 Bft) O-NO 76 0 min 0,000 mm 0,0 UV-I 0 W/m 0,2 C -10,6 C 37,0 km/h (5 Bft) 95,65 %
17.02.2016 01:10 1,8 C 90 % 1028,2 hPa 0,0 l/m 31,7 km/h (5 Bft) O-NO 63 0 min 0,000 mm 0,0 UV-I 0 W/m 0,3 C -11,3 C 43,5 km/h (6 Bft) 100,00 %
17.02.2016 01:11 1,8 C 90 % 1028,2 hPa 0,0 l/m 29,7 km/h (5 Bft) O-NO 72 0 min 0,000 mm 0,0 UV-I 0 W/m 0,3 C -10,8 C 40,2 km/h (6 Bft) 100,00 %
17.02.2016 01:12 1,8 C 90 % 1028,2 hPa 0,0 l/m 29,8 km/h (5 Bft) O-NO 57 0 min 0,000 mm 0,0 UV-I 0 W/m 0,3 C -10,8 C 40,2 km/h (6 Bft) 96,30 %
17.02.2016 01:13 1,8 C 90 % 1028,1 hPa 0,0 l/m 33,7 km/h (5 Bft) O-NO 65 0 min 0,000 mm 0,0 UV-I 0 W/m 0,3 C -11,9 C 41,8 km/h (6 Bft) 100,00 %
17.02.2016 01:14 1,8 C 90 % 1028,1 hPa 0,0 l/m 26,0 km/h (4 Bft) NO 55 0 min 0,000 mm 0,0 UV-I 0 W/m 0,3 C -9,6 C 43,5 km/h (6 Bft) 95,83 %
17.02.2016 01:15 1,8 C 90 % 1028,1 hPa 0,0 l/m 35,0 km/h (5 Bft) O-NO 63 0 min 0,000 mm 0,0 UV-I 0 W/m 0,3 C -12,2 C 46,7 km/h (6 Bft) 95,65 %
17.02.2016 01:16 1,8 C 90 % 1028,1 hPa 0,0 l/m 30,7 km/h (5 Bft) O-NO 61 0 min 0,000 mm 0,0 UV-I 0 W/m 0,3 C -11,1 C 40,2 km/h (6 Bft) 100,00 %
17.02.2016 01:17 1,8 C 90 % 1028,0 hPa 0,0 l/m 31,9 km/h (5 Bft) O-NO 59 0 min 0,000 mm 0,0 UV-I 0 W/m 0,3 C -11,4 C 45,1 km/h (6 Bft) 92,86 %
17.02.2016 01:18 1,8 C 90 % 1028,0 hPa 0,0 l/m 27,4 km/h (4 Bft) NO 56 0 min 0,000 mm 0,0 UV-I 0 W/m 0,3 C -10,1 C 38,6 km/h (5 Bft) 100,00 %
17.02.2016 01:19 1,7 C 90 % 1028,0 hPa 0,0 l/m 29,7 km/h (5 Bft) O-NO 57 0 min 0,000 mm 0,0 UV-I 0 W/m 0,2 C -10,9 C 37,0 km/h (5 Bft) 86,96 %
17.02.2016 01:20 1,7 C 90 % 1027,9 hPa 0,0 l/m 30,9 km/h (5 Bft) NO 49 0 min 0,000 mm 0,0 UV-I 0 W/m 0,2 C -11,3 C 40,2 km/h (6 Bft) 100,00 %
17.02.2016 01:21 1,7 C 90 % 1027,9 hPa 0,0 l/m 36,4 km/h (5 Bft) NO 44 0 min 0,000 mm 0,0 UV-I 0 W/m 0,2 C -12,7 C 41,8 km/h (6 Bft) 92,86 %
17.02.2016 01:22 1,7 C 90 % 1027,9 hPa 0,0 l/m 31,5 km/h (5 Bft) O-NO 64 0 min 0,000 mm 0,0 UV-I 0 W/m 0,2 C -11,4 C 43,5 km/h (6 Bft) 100,00 %
17.02.2016 01:23 1,7 C 90 % 1027,8 hPa 0,0 l/m 34,1 km/h (5 Bft) O-NO 71 0 min 0,000 mm 0,0 UV-I 0 W/m 0,2 C -12,1 C 51,5 km/h (7 Bft) 95,65 %
17.02.2016 01:24 1,7 C 90 % 1027,7 hPa 0,0 l/m 29,7 km/h (5 Bft) O-NO 62 0 min 0,000 mm 0,0 UV-I 0 W/m 0,2 C -10,9 C 38,6 km/h (5 Bft) 95,83 %
17.02.2016 01:25 1,7 C 90 % 1027,6 hPa 0,0 l/m 33,4 km/h (5 Bft) O-NO 61 0 min 0,000 mm 0,0 UV-I 0 W/m 0,2 C -11,9 C 46,7 km/h (6 Bft) 95,65 %
17.02.2016 01:26 1,7 C 90 % 1027,6 hPa 0,0 l/m 38,1 km/h (5 Bft) NO 48 0 min 0,000 mm 0,0 UV-I 0 W/m 0,2 C -13,0 C 45,1 km/h (6 Bft) 92,59 %
17.02.2016 01:27 1,7 C 90 % 1027,6 hPa 0,0 l/m 37,3 km/h (5 Bft) O-NO 58 0 min 0,000 mm 0,0 UV-I 0 W/m 0,2 C -12,9 C 48,3 km/h (6 Bft) 100,00 %
17.02.2016 01:28 1,7 C 90 % 1027,6 hPa 0,0 l/m 29,9 km/h (5 Bft) O-NO 71 0 min 0,000 mm 0,0 UV-I 0 W/m 0,2 C -11,0 C 38,6 km/h (5 Bft) 91,30 %
17.02.2016 01:29 1,7 C 90 % 1027,5 hPa 0,0 l/m 33,8 km/h (5 Bft) NO 56 0 min 0,000 mm 0,0 UV-I 0 W/m 0,2 C -12,0 C 45,1 km/h (6 Bft) 100,00 %
17.02.2016 01:30 1,7 C 90 % 1027,5 hPa 0,0 l/m 38,0 km/h (5 Bft) O 95 0 min 0,000 mm 0,0 UV-I 0 W/m 0,2 C -13,0 C 48,3 km/h (6 Bft) 96,15 %
17.02.2016 01:31 1,7 C 90 % 1027,5 hPa 0,0 l/m 30,8 km/h (5 Bft) NO 46 0 min 0,000 mm 0,0 UV-I 0 W/m 0,2 C -11,2 C 45,1 km/h (6 Bft) 100,00 %
17.02.2016 01:32 1,7 C 90 % 1027,4 hPa 0,0 l/m 36,5 km/h (5 Bft) O-NO 73 0 min 0,000 mm 0,0 UV-I 0 W/m 0,2 C -12,7 C 43,5 km/h (6 Bft) 92,86 %
17.02.2016 01:33 1,7 C 90 % 1027,5 hPa 0,0 l/m 38,5 km/h (5 Bft) NO 56 0 min 0,000 mm 0,0 UV-I 0 W/m 0,2 C -13,1 C 49,9 km/h (6 Bft) 96,30 %
17.02.2016 01:34 1,6 C 89 % 1027,3 hPa 0,0 l/m 39,1 km/h (6 Bft) O-NO 58 0 min 0,000 mm 0,0 UV-I 0 W/m -0,0 C -13,4 C 45,1 km/h (6 Bft) 96,88 %
17.02.2016 01:35 1,6 C 90 % 1027,3 hPa 0,0 l/m 32,4 km/h (5 Bft) NO 39 0 min 0,000 mm 0,0 UV-I 0 W/m 0,1 C -11,8 C 43,5 km/h (6 Bft) 100,00 %
17.02.2016 01:36 1,6 C 90 % 1027,3 hPa 0,0 l/m 33,7 km/h (5 Bft) O-SO 105 0 min 0,000 mm 0,0 UV-I 0 W/m 0,1 C -12,2 C 48,3 km/h (6 Bft) 96,15 %
17.02.2016 01:37 1,6 C 90 % 1027,3 hPa 0,0 l/m 32,4 km/h (5 Bft) O-NO 67 0 min 0,000 mm 0,0 UV-I 0 W/m 0,1 C -11,8 C 45,1 km/h (6 Bft) 96,30 %
17.02.2016 01:38 1,6 C 90 % 1027,3 hPa 0,0 l/m 42,0 km/h (6 Bft) NO 38 0 min 0,000 mm 0,0 UV-I 0 W/m 0,1 C -13,9 C 56,3 km/h (7 Bft) 100,00 %
17.02.2016 01:39 1,6 C 90 % 1027,3 hPa 0,0 l/m 33,0 km/h (5 Bft) O-NO 59 0 min 0,000 mm 0,0 UV-I 0 W/m 0,1 C -12,0 C 49,9 km/h (6 Bft) 95,83 %
17.02.2016 01:40 1,6 C 90 % 1027,2 hPa 0,0 l/m 39,0 km/h (6 Bft) O-NO 63 0 min 0,000 mm 0,0 UV-I 0 W/m 0,1 C -13,4 C 48,3 km/h (6 Bft) 100,00 %
17.02.2016 01:41 1,6 C 90 % 1027,3 hPa 0,0 l/m 34,1 km/h (5 Bft) NO 53 0 min 0,000 mm 0,0 UV-I 0 W/m 0,1 C -12,3 C 38,6 km/h (5 Bft) 95,83 %
17.02.2016 01:42 1,6 C 90 % 1027,4 hPa 0,0 l/m 39,7 km/h (6 Bft) O 80 0 min 0,000 mm 0,0 UV-I 0 W/m 0,1 C -13,5 C 49,9 km/h (6 Bft) 95,65 %
17.02.2016 01:43 1,6 C 90 % 1027,4 hPa 0,0 l/m 38,3 km/h (5 Bft) NO 48 0 min 0,000 mm 0,0 UV-I 0 W/m 0,1 C -13,2 C 43,5 km/h (6 Bft) 100,00 %
17.02.2016 01:44 1,6 C 90 % 1027,4 hPa 0,0 l/m 33,6 km/h (5 Bft) O-NO 60 0 min 0,000 mm 0,0 UV-I 0 W/m 0,1 C -12,1 C 43,5 km/h (6 Bft) 95,65 %
17.02.2016 01:45 1,6 C 90 % 1027,3 hPa 0,0 l/m 30,2 km/h (5 Bft) N-NO 30 0 min 0,000 mm 0,0 UV-I 0 W/m 0,1 C -11,2 C 40,2 km/h (6 Bft) 100,00 %
17.02.2016 01:46 1,6 C 90 % 1027,4 hPa 0,0 l/m 30,8 km/h (5 Bft) NO 51 0 min 0,000 mm 0,0 UV-I 0 W/m 0,1 C -11,4 C 40,2 km/h (6 Bft) 93,33 %
17.02.2016 01:47 1,6 C 90 % 1027,4 hPa 0,0 l/m 36,0 km/h (5 Bft) O 96 0 min 0,000 mm 0,0 UV-I 0 W/m 0,1 C -12,7 C 43,5 km/h (6 Bft) 96,15 %
17.02.2016 01:48 1,5 C 90 % 1027,4 hPa 0,0 l/m 38,9 km/h (6 Bft) NO 42 0 min 0,000 mm 0,0 UV-I 0 W/m 0,0 C -13,5 C 54,7 km/h (7 Bft) 96,15 %
17.02.2016 01:49 1,5 C 90 % 1027,4 hPa 0,0 l/m 32,3 km/h (5 Bft) O-NO 63 0 min 0,000 mm 0,0 UV-I 0 W/m 0,0 C -11,9 C 45,1 km/h (6 Bft) 100,00 %
17.02.2016 01:50 1,5 C 90 % 1027,4 hPa 0,0 l/m 31,9 km/h (5 Bft) NO 37 0 min 0,000 mm 0,0 UV-I 0 W/m 0,0 C -11,8 C 41,8 km/h (6 Bft) 100,00 %
17.02.2016 01:51 1,5 C 90 % 1027,4 hPa 0,0 l/m 33,2 km/h (5 Bft) NO 52 0 min 0,000 mm 0,0 UV-I 0 W/m 0,0 C -12,2 C 45,1 km/h (6 Bft) 100,00 %
17.02.2016 01:52 1,5 C 90 % 1027,4 hPa 0,0 l/m 26,7 km/h (4 Bft) NO 35 0 min 0,000 mm 0,0 UV-I 0 W/m 0,0 C -10,3 C 32,2 km/h (5 Bft) 100,00 %
17.02.2016 01:53 1,5 C 90 % 1027,4 hPa 0,0 l/m 22,2 km/h (4 Bft) O-NO 58 0 min 0,000 mm 0,0 UV-I 0 W/m 0,0 C -8,6 C 29,0 km/h (5 Bft) 95,65 %
17.02.2016 01:54 1,5 C 90 % 1027,4 hPa 0,0 l/m 25,0 km/h (4 Bft) NO 46 0 min 0,000 mm 0,0 UV-I 0 W/m 0,0 C -9,7 C 32,2 km/h (5 Bft) 100,00 %
17.02.2016 01:55 1,5 C 90 % 1027,4 hPa 0,0 l/m 23,1 km/h (4 Bft) NO 55 0 min 0,000 mm 0,0 UV-I 0 W/m 0,0 C -9,0 C 27,4 km/h (4 Bft) 100,00 %
17.02.2016 01:56 1,5 C 90 % 1027,3 hPa 0,0 l/m 27,8 km/h (4 Bft) O 80 0 min 0,000 mm 0,0 UV-I 0 W/m 0,0 C -10,6 C 38,6 km/h (5 Bft) 95,83 %
17.02.2016 01:57 1,4 C 90 % 1027,4 hPa 0,0 l/m 29,6 km/h (5 Bft) O-NO 70 0 min 0,000 mm 0,0 UV-I 0 W/m -0,1 C -11,3 C 38,6 km/h (5 Bft) 100,00 %
17.02.2016 01:58 1,5 C 90 % 1027,3 hPa 0,0 l/m 20,9 km/h (4 Bft) NO 46 0 min 0,000 mm 0,0 UV-I 0 W/m 0,0 C -8,1 C 25,7 km/h (4 Bft) 100,00 %
17.02.2016 01:59 1,4 C 90 % 1027,3 hPa 0,0 l/m 25,4 km/h (4 Bft) O-NO 63 0 min 0,000 mm 0,0 UV-I 0 W/m -0,1 C -10,0 C 32,2 km/h (5 Bft) 100,00 %
17.02.2016 02:00 1,5 C 90 % 1027,2 hPa 0,0 l/m 31,6 km/h (5 Bft) O-NO 67 0 min 0,000 mm 0,0 UV-I 0 W/m 0,0 C -11,7 C 41,8 km/h (6 Bft) 100,00 %
17.02.2016 02:01 1,4 C 90 % 1027,2 hPa 0,0 l/m 30,4 km/h (5 Bft) NO 54 0 min 0,026 mm 0,0 UV-I 0 W/m -0,1 C -11,6 C 41,8 km/h (6 Bft) 100,00 %
17.02.2016 02:02 1,5 C 90 % 1027,2 hPa 0,0 l/m 31,6 km/h (5 Bft) O-NO 63 0 min 0,000 mm 0,0 UV-I 0 W/m 0,0 C -11,7 C 48,3 km/h (6 Bft) 100,00 %
17.02.2016 02:03 1,5 C 90 % 1027,2 hPa 0,0 l/m 26,9 km/h (4 Bft) O-NO 59 0 min 0,000 mm 0,0 UV-I 0 W/m 0,0 C -10,3 C 35,4 km/h (5 Bft) 100,00 %
17.02.2016 02:04 1,5 C 90 % 1027,3 hPa 0,0 l/m 23,9 km/h (4 Bft) NO 55 0 min 0,000 mm 0,0 UV-I 0 W/m 0,0 C -9,3 C 33,8 km/h (5 Bft) 96,15 %
17.02.2016 02:05 1,5 C 90 % 1027,3 hPa 0,0 l/m 20,8 km/h (4 Bft) O-NO 71 0 min 0,000 mm 0,0 UV-I 0 W/m 0,0 C -8,0 C 27,4 km/h (4 Bft) 100,00 %
17.02.2016 02:06 1,4 C 90 % 1027,3 hPa 0,0 l/m 27,7 km/h (4 Bft) NO 52 0 min 0,000 mm 0,0 UV-I 0 W/m -0,1 C -10,7 C 35,4 km/h (5 Bft) 97,78 %
17.02.2016 02:07 1,4 C 90 % 1027,3 hPa 0,0 l/m 22,2 km/h (4 Bft) O-NO 63 0 min 0,000 mm 0,0 UV-I 0 W/m -0,1 C -8,8 C 30,6 km/h (5 Bft) 100,00 %
17.02.2016 02:08 1,4 C 90 % 1027,3 hPa 0,0 l/m 34,8 km/h (5 Bft) NO 46 0 min 0,000 mm 0,0 UV-I 0 W/m -0,1 C -12,7 C 43,5 km/h (6 Bft) 100,00 %
17.02.2016 02:09 1,4 C 90 % 1027,1 hPa 0,0 l/m 34,7 km/h (5 Bft) NO 53 0 min 0,000 mm 0,0 UV-I 0 W/m -0,1 C -12,7 C 46,7 km/h (6 Bft) 100,00 %
17.02.2016 02:10 1,4 C 90 % 1027,2 hPa 0,0 l/m 30,9 km/h (5 Bft) O-NO 76 0 min 0,000 mm 0,0 UV-I 0 W/m -0,1 C -11,7 C 37,0 km/h (5 Bft) 100,00 %
17.02.2016 02:11 1,4 C 90 % 1027,2 hPa 0,0 l/m 25,1 km/h (4 Bft) O 86 0 min 0,000 mm 0,0 UV-I 0 W/m -0,1 C -9,9 C 32,2 km/h (5 Bft) 100,00 %
17.02.2016 02:12 1,4 C 90 % 1027,2 hPa 0,0 l/m 27,1 km/h (4 Bft) O-NO 63 0 min 0,000 mm 0,0 UV-I 0 W/m -0,1 C -10,5 C 33,8 km/h (5 Bft) 100,00 %
17.02.2016 02:13 1,4 C 90 % 1027,3 hPa 0,0 l/m 25,9 km/h (4 Bft) O-NO 71 0 min 0,000 mm 0,0 UV-I 0 W/m -0,1 C -10,1 C 30,6 km/h (5 Bft) 100,00 %
17.02.2016 02:14 1,4 C 90 % 1027,3 hPa 0,0 l/m 30,7 km/h (5 Bft) O-NO 68 0 min 0,000 mm 0,0 UV-I 0 W/m -0,1 C -11,6 C 37,0 km/h (5 Bft) 100,00 %
17.02.2016 02:15 1,4 C 90 % 1027,2 hPa 0,0 l/m 25,0 km/h (4 Bft) O-NO 63 0 min 0,000 mm 0,0 UV-I 0 W/m -0,1 C -9,8 C 32,2 km/h (5 Bft) 100,00 %
17.02.2016 02:16 1,4 C 90 % 1027,2 hPa 0,0 l/m 28,3 km/h (4 Bft) O-NO 74 0 min 0,000 mm 0,0 UV-I 0 W/m -0,1 C -10,9 C 35,4 km/h (5 Bft) 100,00 %
17.02.2016 02:17 1,4 C 90 % 1027,3 hPa 0,0 l/m 25,8 km/h (4 Bft) O-NO 69 0 min 0,000 mm 0,0 UV-I 0 W/m -0,1 C -10,1 C 35,4 km/h (5 Bft) 100,00 %
17.02.2016 02:18 1,4 C 90 % 1027,2 hPa 0,0 l/m 25,8 km/h (4 Bft) O-NO 60 0 min 0,000 mm 0,0 UV-I 0 W/m -0,1 C -10,1 C 32,2 km/h (5 Bft) 100,00 %
17.02.2016 02:19 1,4 C 90 % 1027,2 hPa 0,0 l/m 24,5 km/h (4 Bft) O-NO 57 0 min 0,000 mm 0,0 UV-I 0 W/m -0,1 C -9,6 C 29,0 km/h (5 Bft) 100,00 %
17.02.2016 02:20 1,4 C 90 % 1027,2 hPa 0,0 l/m 24,9 km/h (4 Bft) NO 35 0 min 0,000 mm 0,0 UV-I 0 W/m -0,1 C -9,8 C 30,6 km/h (5 Bft) 100,00 %
17.02.2016 02:21 1,4 C 90 % 1027,2 hPa 0,0 l/m 29,1 km/h (5 Bft) NO 52 0 min 0,000 mm 0,0 UV-I 0 W/m -0,1 C -11,2 C 37,0 km/h (5 Bft) 100,00 %
17.02.2016 02:22 1,4 C 90 % 1027,2 hPa 0,0 l/m 22,8 km/h (4 Bft) O-NO 71 0 min 0,000 mm 0,0 UV-I 0 W/m -0,1 C -9,0 C 27,4 km/h (4 Bft) 95,65 %
17.02.2016 02:23 1,4 C 90 % 1027,2 hPa 0,0 l/m 23,7 km/h (4 Bft) O-NO 72 0 min 0,000 mm 0,0 UV-I 0 W/m -0,1 C -9,3 C 30,6 km/h (5 Bft) 100,00 %
17.02.2016 02:24 1,4 C 90 % 1027,2 hPa 0,0 l/m 29,7 km/h (5 Bft) O-NO 67 0 min 0,000 mm 0,0 UV-I 0 W/m -0,1 C -11,3 C 38,6 km/h (5 Bft) 100,00 %
17.02.2016 02:25 1,4 C 90 % 1027,2 hPa 0,0 l/m 29,6 km/h (5 Bft) O 87 0 min 0,000 mm 0,0 UV-I 0 W/m -0,1 C -11,3 C 37,0 km/h (5 Bft) 96,30 %
17.02.2016 02:26 1,3 C 90 % 1027,1 hPa 0,0 l/m 24,7 km/h (4 Bft) O-NO 65 0 min 0,000 mm 0,0 UV-I 0 W/m -0,2 C -9,8 C 33,8 km/h (5 Bft) 100,00 %
17.02.2016 02:27 1,4 C 90 % 1027,2 hPa 0,0 l/m 21,9 km/h (4 Bft) NO 39 0 min 0,000 mm 0,0 UV-I 0 W/m -0,1 C -8,6 C 27,4 km/h (4 Bft) 100,00 %
17.02.2016 02:28 1,3 C 90 % 1027,2 hPa 0,0 l/m 25,8 km/h (4 Bft) O-NO 67 0 min 0,000 mm 0,0 UV-I 0 W/m -0,2 C -10,2 C 38,6 km/h (5 Bft) 95,83 %
17.02.2016 02:29 1,3 C 90 % 1027,1 hPa 0,0 l/m 28,8 km/h (4 Bft) O-NO 57 0 min 0,000 mm 0,0 UV-I 0 W/m -0,2 C -11,2 C 38,6 km/h (5 Bft) 100,00 %
17.02.2016 02:30 1,3 C 90 % 1027,1 hPa 0,0 l/m 29,2 km/h (5 Bft) O-NO 65 0 min 0,000 mm 0,0 UV-I 0 W/m -0,2 C -11,3 C 35,4 km/h (5 Bft) 100,00 %
17.02.2016 02:31 1,3 C 90 % 1027,1 hPa 0,0 l/m 22,5 km/h (4 Bft) NO 42 0 min 0,000 mm 0,0 UV-I 0 W/m -0,2 C -9,0 C 30,6 km/h (5 Bft) 100,00 %
17.02.2016 02:32 1,3 C 90 % 1027,0 hPa 0,0 l/m 25,3 km/h (4 Bft) NO 37 0 min 0,000 mm 0,0 UV-I 0 W/m -0,2 C -10,1 C 32,2 km/h (5 Bft) 100,00 %
17.02.2016 02:33 1,3 C 91 % 1026,9 hPa 0,0 l/m 27,4 km/h (4 Bft) NO 49 0 min 0,000 mm 0,0 UV-I 0 W/m -0,0 C -10,8 C 37,0 km/h (5 Bft) 100,00 %
17.02.2016 02:34 1,3 C 91 % 1026,9 hPa 0,0 l/m 25,7 km/h (4 Bft) O-NO 70 0 min 0,000 mm 0,0 UV-I 0 W/m -0,0 C -10,2 C 33,8 km/h (5 Bft) 100,00 %
17.02.2016 02:35 1,3 C 91 % 1026,9 hPa 0,0 l/m 23,8 km/h (4 Bft) O-NO 64 0 min 0,000 mm 0,0 UV-I 0 W/m -0,0 C -9,5 C 43,5 km/h (6 Bft) 100,00 %
17.02.2016 02:36 1,3 C 91 % 1026,8 hPa 0,0 l/m 32,0 km/h (5 Bft) O-NO 57 0 min 0,000 mm 0,0 UV-I 0 W/m -0,0 C -12,1 C 37,0 km/h (5 Bft) 96,67 %
17.02.2016 02:37 1,3 C 91 % 1026,9 hPa 0,0 l/m 33,1 km/h (5 Bft) O-NO 69 0 min 0,000 mm 0,0 UV-I 0 W/m -0,0 C -12,4 C 38,6 km/h (5 Bft) 95,65 %
17.02.2016 02:38 1,3 C 90 % 1026,9 hPa 0,0 l/m 27,4 km/h (4 Bft) O-NO 59 0 min 0,000 mm 0,0 UV-I 0 W/m -0,2 C -10,8 C 32,2 km/h (5 Bft) 100,00 %
17.02.2016 02:39 1,3 C 90 % 1026,9 hPa 0,0 l/m 29,3 km/h (5 Bft) NO 51 0 min 0,000 mm 0,0 UV-I 0 W/m -0,2 C -11,4 C 37,0 km/h (5 Bft) 100,00 %
17.02.2016 02:40 1,3 C 90 % 1026,8 hPa 0,0 l/m 33,5 km/h (5 Bft) NO 48 0 min 0,000 mm 0,0 UV-I 0 W/m -0,2 C -12,5 C 40,2 km/h (6 Bft) 100,00 %
17.02.2016 02:41 1,3 C 90 % 1026,8 hPa 0,0 l/m 34,0 km/h (5 Bft) O-NO 74 0 min 0,000 mm 0,0 UV-I 0 W/m -0,2 C -12,7 C 48,3 km/h (6 Bft) 100,00 %
17.02.2016 02:42 1,3 C 90 % 1026,8 hPa 0,0 l/m 32,6 km/h (5 Bft) NO 51 0 min 0,000 mm 0,0 UV-I 0 W/m -0,2 C -12,3 C 40,2 km/h (6 Bft) 100,00 %
17.02.2016 02:43 1,3 C 90 % 1026,8 hPa 0,0 l/m 24,1 km/h (4 Bft) NO 55 0 min 0,000 mm 0,0 UV-I 0 W/m -0,2 C -9,6 C 33,8 km/h (5 Bft) 96,15 %
17.02.2016 02:44 1,3 C 90 % 1026,7 hPa 0,0 l/m 26,7 km/h (4 Bft) O-NO 74 0 min 0,000 mm 0,0 UV-I 0 W/m -0,2 C -10,5 C 33,8 km/h (5 Bft) 100,00 %
17.02.2016 02:45 1,3 C 90 % 1026,8 hPa 0,0 l/m 28,6 km/h (4 Bft) NO 40 0 min 0,000 mm 0,0 UV-I 0 W/m -0,2 C -11,2 C 35,4 km/h (5 Bft) 100,00 %
17.02.2016 02:46 1,3 C 90 % 1026,7 hPa 0,0 l/m 23,2 km/h (4 Bft) O-NO 64 0 min 0,000 mm 0,0 UV-I 0 W/m -0,2 C -9,3 C 29,0 km/h (5 Bft) 98,78 %
17.02.2016 02:47 1,3 C 90 % 1026,7 hPa 0,0 l/m 26,7 km/h (4 Bft) O-NO 67 0 min 0,000 mm 0,0 UV-I 0 W/m -0,2 C -10,5 C 33,8 km/h (5 Bft) 100,00 %
17.02.2016 02:48 1,3 C 90 % 1026,7 hPa 0,0 l/m 32,0 km/h (5 Bft) NO 44 0 min 0,000 mm 0,0 UV-I 0 W/m -0,2 C -12,1 C 40,2 km/h (6 Bft) 100,00 %
17.02.2016 02:49 1,3 C 90 % 1026,6 hPa 0,0 l/m 29,3 km/h (5 Bft) NO 46 0 min 0,000 mm 0,0 UV-I 0 W/m -0,2 C -11,4 C 38,6 km/h (5 Bft) 100,00 %
17.02.2016 02:50 1,3 C 90 % 1026,7 hPa 0,0 l/m 27,0 km/h (4 Bft) O 90 0 min 0,000 mm 0,0 UV-I 0 W/m -0,2 C -10,6 C 32,2 km/h (5 Bft) 100,00 %
17.02.2016 02:51 1,3 C 90 % 1026,7 hPa 0,0 l/m 31,1 km/h (5 Bft) O-NO 70 0 min 0,000 mm 0,0 UV-I 0 W/m -0,2 C -11,9 C 51,5 km/h (7 Bft) 100,00 %
17.02.2016 02:52 1,3 C 90 % 1026,4 hPa 0,0 l/m 28,8 km/h (4 Bft) NO 45 0 min 0,000 mm 0,0 UV-I 0 W/m -0,2 C -11,2 C 40,2 km/h (6 Bft) 100,00 %
17.02.2016 02:53 1,3 C 90 % 1026,4 hPa 0,0 l/m 24,8 km/h (4 Bft) NO 53 0 min 0,000 mm 0,0 UV-I 0 W/m -0,2 C -9,9 C 33,8 km/h (5 Bft) 100,00 %
17.02.2016 02:54 1,3 C 90 % 1026,5 hPa 0,0 l/m 28,7 km/h (4 Bft) NO 48 0 min 0,000 mm 0,0 UV-I 0 W/m -0,2 C -11,2 C 35,4 km/h (5 Bft) 100,00 %
17.02.2016 02:55 1,3 C 90 % 1026,4 hPa 0,0 l/m 27,4 km/h (4 Bft) O-NO 63 0 min 0,000 mm 0,0 UV-I 0 W/m -0,2 C -10,8 C 37,0 km/h (5 Bft) 96,30 %
17.02.2016 02:56 1,3 C 90 % 1026,4 hPa 0,0 l/m 29,6 km/h (5 Bft) NO 44 0 min 0,000 mm 0,0 UV-I 0 W/m -0,2 C -11,5 C 37,0 km/h (5 Bft) 100,00 %
17.02.2016 02:57 1,3 C 90 % 1026,4 hPa 0,0 l/m 30,4 km/h (5 Bft) O-NO 59 0 min 0,000 mm 0,0 UV-I 0 W/m -0,2 C -11,7 C 35,4 km/h (5 Bft) 100,00 %
17.02.2016 02:58 1,3 C 90 % 1026,4 hPa 0,0 l/m 28,7 km/h (4 Bft) NO 55 0 min 0,000 mm 0,0 UV-I 0 W/m -0,2 C -11,2 C 35,4 km/h (5 Bft) 100,00 %
17.02.2016 02:59 1,3 C 90 % 1026,3 hPa 0,0 l/m 33,9 km/h (5 Bft) O-NO 76 0 min 0,000 mm 0,0 UV-I 0 W/m -0,2 C -12,6 C 43,5 km/h (6 Bft) 100,00 %
17.02.2016 03:00 1,3 C 90 % 1026,3 hPa 0,0 l/m 31,2 km/h (5 Bft) O-NO 67 0 min 0,000 mm 0,0 UV-I 0 W/m -0,2 C -11,9 C 38,6 km/h (5 Bft) 100,00 %
17.02.2016 03:01 1,3 C 90 % 1026,2 hPa 0,0 l/m 26,2 km/h (4 Bft) O-NO 69 0 min 0,025 mm 0,0 UV-I 0 W/m -0,2 C -10,4 C 33,8 km/h (5 Bft) 100,00 %
17.02.2016 03:02 1,4 C 90 % 1026,3 hPa 0,0 l/m 33,3 km/h (5 Bft) O-NO 64 0 min 0,000 mm 0,0 UV-I 0 W/m -0,1 C -12,3 C 40,2 km/h (6 Bft) 100,00 %
17.02.2016 03:03 1,4 C 89 % 1026,2 hPa 0,0 l/m 26,7 km/h (4 Bft) O-NO 64 0 min 0,000 mm 0,0 UV-I 0 W/m -0,2 C -10,4 C 37,0 km/h (5 Bft) 100,00 %
17.02.2016 03:04 1,4 C 90 % 1026,3 hPa 0,0 l/m 32,9 km/h (5 Bft) N-NO 29 0 min 0,000 mm 0,0 UV-I 0 W/m -0,1 C -12,2 C 41,8 km/h (6 Bft) 100,00 %
17.02.2016 03:05 1,4 C 89 % 1026,3 hPa 0,0 l/m 23,9 km/h (4 Bft) NO 52 0 min 0,000 mm 0,0 UV-I 0 W/m -0,2 C -9,4 C 29,0 km/h (5 Bft) 100,00 %
17.02.2016 03:06 1,3 C 90 % 1026,3 hPa 0,0 l/m 29,5 km/h (5 Bft) NO 51 0 min 0,000 mm 0,0 UV-I 0 W/m -0,2 C -11,4 C 41,8 km/h (6 Bft) 100,00 %
17.02.2016 03:07 1,3 C 90 % 1026,2 hPa 0,0 l/m 30,0 km/h (5 Bft) O-NO 61 0 min 0,000 mm 0,0 UV-I 0 W/m -0,2 C -11,6 C 40,2 km/h (6 Bft) 100,00 %
17.02.2016 03:08 1,3 C 90 % 1026,2 hPa 0,0 l/m 28,2 km/h (4 Bft) O-NO 58 0 min 0,000 mm 0,0 UV-I 0 W/m -0,2 C -11,0 C 33,8 km/h (5 Bft) 100,00 %
17.02.2016 03:09 1,3 C 91 % 1026,2 hPa 0,0 l/m 34,3 km/h (5 Bft) O-NO 74 0 min 0,000 mm 0,0 UV-I 0 W/m -0,0 C -12,7 C 49,9 km/h (6 Bft) 100,00 %
17.02.2016 03:10 1,2 C 91 % 1026,1 hPa 0,0 l/m 42,2 km/h (6 Bft) NO 42 0 min 0,000 mm 0,0 UV-I 0 W/m -0,1 C -14,6 C 53,1 km/h (7 Bft) 100,00 %
17.02.2016 03:11 1,2 C 91 % 1026,1 hPa 0,0 l/m 30,8 km/h (5 Bft) NO 46 0 min 0,000 mm 0,0 UV-I 0 W/m -0,1 C -12,0 C 45,1 km/h (6 Bft) 100,00 %
17.02.2016 03:12 1,2 C 91 % 1026,1 hPa 0,0 l/m 35,1 km/h (5 Bft) O-NO 62 0 min 0,000 mm 0,0 UV-I 0 W/m -0,1 C -13,1 C 45,1 km/h (6 Bft) 100,00 %
17.02.2016 03:13 1,1 C 92 % 1026,0 hPa 0,0 l/m 36,7 km/h (5 Bft) O-NO 57 0 min 0,000 mm 0,0 UV-I 0 W/m -0,1 C -13,6 C 49,9 km/h (6 Bft) 100,00 %
17.02.2016 03:14 1,1 C 92 % 1025,9 hPa 0,0 l/m 30,2 km/h (5 Bft) O-NO 59 0 min 0,000 mm 0,0 UV-I 0 W/m -0,1 C -11,9 C 38,6 km/h (5 Bft) 100,00 %
17.02.2016 03:15 1,0 C 92 % 1025,9 hPa 0,0 l/m 28,4 km/h (4 Bft) NO 56 0 min 0,000 mm 0,0 UV-I 0 W/m -0,2 C -11,5 C 33,8 km/h (5 Bft) 100,00 %
17.02.2016 03:16 0,9 C 93 % 1025,9 hPa 0,0 l/m 30,7 km/h (5 Bft) O-NO 58 0 min 0,000 mm 0,0 UV-I 0 W/m -0,1 C -12,3 C 40,2 km/h (6 Bft) 100,00 %
17.02.2016 03:17 0,9 C 93 % 1025,8 hPa 0,0 l/m 32,7 km/h (5 Bft) O-NO 61 0 min 0,000 mm 0,0 UV-I 0 W/m -0,1 C -12,9 C 40,2 km/h (6 Bft) 96,15 %
17.02.2016 03:18 0,9 C 93 % 1025,8 hPa 0,0 l/m 30,6 km/h (5 Bft) O-NO 59 0 min 0,000 mm 0,0 UV-I 0 W/m -0,1 C -12,3 C 43,5 km/h (6 Bft) 96,30 %
17.02.2016 03:19 0,9 C 93 % 1025,8 hPa 0,0 l/m 26,2 km/h (4 Bft) O-NO 61 0 min 0,000 mm 0,0 UV-I 0 W/m -0,1 C -10,9 C 38,6 km/h (5 Bft) 92,86 %
17.02.2016 03:20 0,9 C 93 % 1025,7 hPa 0,0 l/m 35,4 km/h (5 Bft) O-NO 66 0 min 0,000 mm 0,0 UV-I 0 W/m -0,1 C -13,6 C 46,7 km/h (6 Bft) 100,00 %
17.02.2016 03:21 0,9 C 93 % 1025,8 hPa 0,0 l/m 28,7 km/h (4 Bft) NO 49 0 min 0,000 mm 0,0 UV-I 0 W/m -0,1 C -11,7 C 38,6 km/h (5 Bft) 95,65 %
17.02.2016 03:22 0,9 C 93 % 1025,8 hPa 0,0 l/m 27,6 km/h (4 Bft) O-NO 69 0 min 0,000 mm 0,0 UV-I 0 W/m -0,1 C -11,4 C 35,4 km/h (5 Bft) 95,83 %
17.02.2016 03:23 0,9 C 93 % 1025,9 hPa 0,0 l/m 31,8 km/h (5 Bft) O-NO 57 0 min 0,000 mm 0,0 UV-I 0 W/m -0,1 C -12,7 C 38,6 km/h (5 Bft) 96,15 %
17.02.2016 03:24 0,9 C 93 % 1025,8 hPa 0,0 l/m 29,2 km/h (5 Bft) O-NO 74 0 min 0,000 mm 0,0 UV-I 0 W/m -0,1 C -11,9 C 37,0 km/h (5 Bft) 96,30 %
17.02.2016 03:25 0,9 C 93 % 1025,8 hPa 0,0 l/m 36,1 km/h (5 Bft) O-NO 57 0 min 0,000 mm 0,0 UV-I 0 W/m -0,1 C -13,8 C 48,3 km/h (6 Bft) 100,00 %
17.02.2016 03:26 0,9 C 93 % 1025,7 hPa 0,0 l/m 38,1 km/h (5 Bft) O-NO 59 0 min 0,000 mm 0,0 UV-I 0 W/m -0,1 C -14,2 C 49,9 km/h (6 Bft) 96,30 %
17.02.2016 03:27 0,9 C 93 % 1025,6 hPa 0,0 l/m 32,9 km/h (5 Bft) O-NO 75 0 min 0,000 mm 0,0 UV-I 0 W/m -0,1 C -13,0 C 40,2 km/h (6 Bft) 100,00 %
17.02.2016 03:28 0,9 C 93 % 1025,7 hPa 0,0 l/m 27,8 km/h (4 Bft) O-NO 69 0 min 0,000 mm 0,0 UV-I 0 W/m -0,1 C -11,5 C 33,8 km/h (5 Bft) 96,30 %
17.02.2016 03:29 0,9 C 93 % 1025,6 hPa 0,0 l/m 32,9 km/h (5 Bft) O-NO 72 0 min 0,000 mm 0,0 UV-I 0 W/m -0,1 C -13,0 C 41,8 km/h (6 Bft) 93,33 %
17.02.2016 03:30 0,9 C 93 % 1025,5 hPa 0,0 l/m 31,3 km/h (5 Bft) NO 55 0 min 0,000 mm 0,0 UV-I 0 W/m -0,1 C -12,5 C 40,2 km/h (6 Bft) 91,30 %
17.02.2016 03:31 0,9 C 93 % 1025,5 hPa 0,0 l/m 28,3 km/h (4 Bft) O-NO 78 0 min 0,000 mm 0,0 UV-I 0 W/m -0,1 C -11,6 C 35,4 km/h (5 Bft) 100,00 %
17.02.2016 03:32 0,9 C 93 % 1025,6 hPa 0,0 l/m 25,8 km/h (4 Bft) O-NO 59 0 min 0,000 mm 0,0 UV-I 0 W/m -0,1 C -10,8 C 33,8 km/h (5 Bft) 92,31 %
17.02.2016 03:33 0,9 C 93 % 1025,5 hPa 0,0 l/m 29,1 km/h (5 Bft) O-NO 57 0 min 0,000 mm 0,0 UV-I 0 W/m -0,1 C -11,9 C 37,0 km/h (5 Bft) 100,00 %
17.02.2016 03:34 0,9 C 93 % 1025,5 hPa 0,0 l/m 31,3 km/h (5 Bft) NO 56 0 min 0,000 mm 0,0 UV-I 0 W/m -0,1 C -12,5 C 38,6 km/h (5 Bft) 96,88 %
17.02.2016 03:35 0,9 C 93 % 1025,5 hPa 0,0 l/m 25,7 km/h (4 Bft) N-NO 32 0 min 0,000 mm 0,0 UV-I 0 W/m -0,1 C -10,7 C 33,8 km/h (5 Bft) 100,00 %
17.02.2016 03:36 0,9 C 93 % 1025,5 hPa 0,0 l/m 34,4 km/h (5 Bft) O-NO 66 0 min 0,000 mm 0,0 UV-I 0 W/m -0,1 C -13,3 C 51,5 km/h (7 Bft) 96,55 %
17.02.2016 03:37 0,9 C 93 % 1025,3 hPa 0,0 l/m 35,1 km/h (5 Bft) O-NO 61 0 min 0,000 mm 0,0 UV-I 0 W/m -0,1 C -13,5 C 45,1 km/h (6 Bft) 100,00 %
17.02.2016 03:38 0,9 C 93 % 1025,4 hPa 0,0 l/m 27,0 km/h (4 Bft) O-NO 59 0 min 0,000 mm 0,0 UV-I 0 W/m -0,1 C -11,2 C 33,8 km/h (5 Bft) 96,55 %
17.02.2016 03:39 1,0 C 93 % 1025,4 hPa 0,0 l/m 24,6 km/h (4 Bft) O-NO 63 0 min 0,000 mm 0,0 UV-I 0 W/m -0,0 C -10,2 C 33,8 km/h (5 Bft) 92,59 %
17.02.2016 03:40 1,0 C 93 % 1025,4 hPa 0,0 l/m 28,8 km/h (4 Bft) NO 47 0 min 0,000 mm 0,0 UV-I 0 W/m -0,0 C -11,6 C 40,2 km/h (6 Bft) 100,00 %
17.02.2016 03:41 0,9 C 93 % 1025,4 hPa 0,0 l/m 34,5 km/h (5 Bft) NO 39 0 min 0,000 mm 0,0 UV-I 0 W/m -0,1 C -13,4 C 46,7 km/h (6 Bft) 91,67 %
17.02.2016 03:42 1,0 C 93 % 1025,3 hPa 0,0 l/m 29,6 km/h (5 Bft) O-NO 59 0 min 0,000 mm 0,0 UV-I 0 W/m -0,0 C -11,9 C 43,5 km/h (6 Bft) 100,00 %
17.02.2016 03:43 1,0 C 93 % 1025,4 hPa 0,0 l/m 24,6 km/h (4 Bft) NO 55 0 min 0,000 mm 0,0 UV-I 0 W/m -0,0 C -10,2 C 30,6 km/h (5 Bft) 96,67 %
17.02.2016 03:44 1,0 C 93 % 1025,4 hPa 0,0 l/m 26,6 km/h (4 Bft) O-NO 65 0 min 0,000 mm 0,0 UV-I 0 W/m -0,0 C -10,9 C 33,8 km/h (5 Bft) 91,30 %
17.02.2016 03:45 1,0 C 93 % 1025,3 hPa 0,0 l/m 34,8 km/h (5 Bft) NO 46 0 min 0,000 mm 0,0 UV-I 0 W/m -0,0 C -13,3 C 48,3 km/h (6 Bft) 100,00 %
17.02.2016 03:46 1,0 C 93 % 1025,2 hPa 0,0 l/m 29,0 km/h (5 Bft) NO 51 0 min 0,000 mm 0,0 UV-I 0 W/m -0,0 C -11,7 C 37,0 km/h (5 Bft) 91,67 %
17.02.2016 03:47 1,0 C 93 % 1025,3 hPa 0,0 l/m 25,6 km/h (4 Bft) O-NO 71 0 min 0,000 mm 0,0 UV-I 0 W/m -0,0 C -10,6 C 32,2 km/h (5 Bft) 100,00 %
17.02.2016 03:48 1,0 C 93 % 1025,2 hPa 0,0 l/m 29,8 km/h (5 Bft) O-NO 61 0 min 0,000 mm 0,0 UV-I 0 W/m -0,0 C -11,9 C 43,5 km/h (6 Bft) 93,10 %
17.02.2016 03:49 1,0 C 93 % 1025,2 hPa 0,0 l/m 26,5 km/h (4 Bft) O-NO 57 0 min 0,000 mm 0,0 UV-I 0 W/m -0,0 C -10,9 C 35,4 km/h (5 Bft) 100,00 %
17.02.2016 03:50 1,0 C 93 % 1025,2 hPa 0,0 l/m 29,0 km/h (5 Bft) N-NO 24 0 min 0,000 mm 0,0 UV-I 0 W/m -0,0 C -11,7 C 38,6 km/h (5 Bft) 96,30 %
17.02.2016 03:51 1,0 C 92 % 1025,1 hPa 0,0 l/m 34,8 km/h (5 Bft) NO 35 0 min 0,000 mm 0,0 UV-I 0 W/m -0,2 C -13,3 C 49,9 km/h (6 Bft) 100,00 %
17.02.2016 03:52 1,0 C 92 % 1025,0 hPa 0,0 l/m 30,0 km/h (5 Bft) O-NO 71 0 min 0,000 mm 0,0 UV-I 0 W/m -0,2 C -12,0 C 37,0 km/h (5 Bft) 100,00 %
17.02.2016 03:53 1,1 C 92 % 1025,0 hPa 0,0 l/m 31,9 km/h (5 Bft) O-NO 58 0 min 0,000 mm 0,0 UV-I 0 W/m -0,1 C -12,4 C 37,0 km/h (5 Bft) 100,00 %
17.02.2016 03:54 1,1 C 92 % 1025,0 hPa 0,0 l/m 33,6 km/h (5 Bft) O 86 0 min 0,000 mm 0,0 UV-I 0 W/m -0,1 C -12,8 C 45,1 km/h (6 Bft) 100,00 %
17.02.2016 03:55 1,1 C 92 % 1025,1 hPa 0,0 l/m 30,3 km/h (5 Bft) O-NO 62 0 min 0,000 mm 0,0 UV-I 0 W/m -0,1 C -11,9 C 41,8 km/h (6 Bft) 100,00 %
17.02.2016 03:56 1,1 C 92 % 1025,0 hPa 0,2 l/m 35,9 km/h (5 Bft) NO 46 0 min 0,000 mm 0,0 UV-I 0 W/m -0,1 C -13,4 C 46,7 km/h (6 Bft) 100,00 %
17.02.2016 03:57 1,1 C 92 % 1025,0 hPa 0,0 l/m 31,5 km/h (5 Bft) NO 55 0 min 0,000 mm 0,0 UV-I 0 W/m -0,1 C -12,3 C 41,8 km/h (6 Bft) 100,00 %
17.02.2016 03:58 1,1 C 92 % 1024,9 hPa 0,0 l/m 25,1 km/h (4 Bft) O-NO 61 0 min 0,000 mm 0,0 UV-I 0 W/m -0,1 C -10,3 C 35,4 km/h (5 Bft) 100,00 %
17.02.2016 03:59 1,1 C 92 % 1025,0 hPa 0,0 l/m 30,7 km/h (5 Bft) O-NO 66 0 min 0,000 mm 0,0 UV-I 0 W/m -0,1 C -12,1 C 41,8 km/h (6 Bft) 85,71 %
17.02.2016 04:00 1,1 C 92 % 1024,9 hPa 0,0 l/m 31,7 km/h (5 Bft) NO 38 0 min 0,000 mm 0,0 UV-I 0 W/m -0,1 C -12,3 C 43,5 km/h (6 Bft) 100,00 %
17.02.2016 04:01 1,1 C 92 % 1024,9 hPa 0,0 l/m 39,2 km/h (6 Bft) O-NO 59 0 min 0,026 mm 0,0 UV-I 0 W/m -0,1 C -14,1 C 48,3 km/h (6 Bft) 100,00 %
17.02.2016 04:02 1,1 C 92 % 1024,9 hPa 0,0 l/m 31,5 km/h (5 Bft) O-NO 65 0 min 0,000 mm 0,0 UV-I 0 W/m -0,1 C -12,3 C 38,6 km/h (5 Bft) 100,00 %
17.02.2016 04:03 1,1 C 92 % 1024,8 hPa 0,0 l/m 37,4 km/h (5 Bft) O-NO 76 0 min 0,000 mm 0,0 UV-I 0 W/m -0,1 C -13,8 C 46,7 km/h (6 Bft) 93,33 %
17.02.2016 04:04 1,1 C 92 % 1024,7 hPa 0,0 l/m 35,2 km/h (5 Bft) O-NO 63 0 min 0,000 mm 0,0 UV-I 0 W/m -0,1 C -13,2 C 48,3 km/h (6 Bft) 100,00 %
17.02.2016 04:05 1,1 C 92 % 1024,8 hPa 0,0 l/m 28,8 km/h (4 Bft) O-NO 67 0 min 0,000 mm 0,0 UV-I 0 W/m -0,1 C -11,5 C 37,0 km/h (5 Bft) 100,00 %
17.02.2016 04:06 1,1 C 92 % 1024,8 hPa 0,0 l/m 31,2 km/h (5 Bft) O-NO 76 0 min 0,000 mm 0,0 UV-I 0 W/m -0,1 C -12,2 C 38,6 km/h (5 Bft) 100,00 %
17.02.2016 04:07 1,2 C 92 % 1024,8 hPa 0,0 l/m 32,1 km/h (5 Bft) NO 35 0 min 0,000 mm 0,0 UV-I 0 W/m 0,0 C -12,3 C 38,6 km/h (5 Bft) 96,15 %
17.02.2016 04:08 1,1 C 92 % 1024,8 hPa 0,0 l/m 35,9 km/h (5 Bft) O-NO 67 0 min 0,000 mm 0,0 UV-I 0 W/m -0,1 C -13,4 C 43,5 km/h (6 Bft) 100,00 %
17.02.2016 04:09 1,1 C 92 % 1024,7 hPa 0,0 l/m 30,8 km/h (5 Bft) NO 51 0 min 0,000 mm 0,0 UV-I 0 W/m -0,1 C -12,1 C 40,2 km/h (6 Bft) 100,00 %
17.02.2016 04:10 1,2 C 92 % 1024,8 hPa 0,0 l/m 27,0 km/h (4 Bft) NO 51 0 min 0,000 mm 0,0 UV-I 0 W/m 0,0 C -10,8 C 35,4 km/h (5 Bft) 100,00 %
17.02.2016 04:11 1,2 C 92 % 1024,7 hPa 0,0 l/m 30,9 km/h (5 Bft) NO 50 0 min 0,000 mm 0,0 UV-I 0 W/m 0,0 C -12,0 C 43,5 km/h (6 Bft) 100,00 %
17.02.2016 04:12 1,2 C 92 % 1024,7 hPa 0,0 l/m 30,6 km/h (5 Bft) NO 45 0 min 0,000 mm 0,0 UV-I 0 W/m 0,0 C -11,9 C 40,2 km/h (6 Bft) 100,00 %
17.02.2016 04:13 1,2 C 92 % 1024,5 hPa 0,0 l/m 32,2 km/h (5 Bft) NO 37 0 min 0,000 mm 0,0 UV-I 0 W/m 0,0 C -12,3 C 45,1 km/h (6 Bft) 100,00 %
17.02.2016 04:14 1,2 C 92 % 1024,6 hPa 0,0 l/m 33,3 km/h (5 Bft) NO 49 0 min 0,000 mm 0,0 UV-I 0 W/m 0,0 C -12,6 C 38,6 km/h (5 Bft) 100,00 %
17.02.2016 04:15 1,2 C 92 % 1024,6 hPa 0,0 l/m 28,0 km/h (4 Bft) O-NO 71 0 min 0,000 mm 0,0 UV-I 0 W/m 0,0 C -11,1 C 40,2 km/h (6 Bft) 100,00 %
17.02.2016 04:16 1,1 C 92 % 1024,4 hPa 0,0 l/m 35,6 km/h (5 Bft) NO 54 0 min 0,000 mm 0,0 UV-I 0 W/m -0,1 C -13,3 C 46,7 km/h (6 Bft) 100,00 %
17.02.2016 04:17 1,2 C 92 % 1024,4 hPa 0,0 l/m 37,7 km/h (5 Bft) O-NO 68 0 min 0,000 mm 0,0 UV-I 0 W/m 0,0 C -13,7 C 45,1 km/h (6 Bft) 100,00 %
17.02.2016 04:18 1,1 C 92 % 1024,3 hPa 0,0 l/m 41,1 km/h (6 Bft) O 79 0 min 0,000 mm 0,0 UV-I 0 W/m -0,1 C -14,5 C 57,9 km/h (7 Bft) 100,00 %
17.02.2016 04:19 1,2 C 92 % 1024,3 hPa 0,0 l/m 35,6 km/h (5 Bft) O-NO 76 0 min 0,000 mm 0,0 UV-I 0 W/m 0,0 C -13,2 C 41,8 km/h (6 Bft) 100,00 %
17.02.2016 04:20 1,2 C 92 % 1024,3 hPa 0,0 l/m 26,1 km/h (4 Bft) O-NO 65 0 min 0,000 mm 0,0 UV-I 0 W/m 0,0 C -10,5 C 32,2 km/h (5 Bft) 100,00 %
17.02.2016 04:21 1,2 C 92 % 1024,4 hPa 0,0 l/m 31,3 km/h (5 Bft) NO 50 0 min 0,000 mm 0,0 UV-I 0 W/m 0,0 C -12,1 C 40,2 km/h (6 Bft) 100,00 %
17.02.2016 04:22 1,2 C 92 % 1024,3 hPa 0,0 l/m 33,6 km/h (5 Bft) O-NO 61 0 min 0,000 mm 0,0 UV-I 0 W/m 0,0 C -12,7 C 43,5 km/h (6 Bft) 100,00 %
17.02.2016 04:23 1,1 C 92 % 1024,3 hPa 0,0 l/m 36,4 km/h (5 Bft) O-NO 62 0 min 0,000 mm 0,0 UV-I 0 W/m -0,1 C -13,5 C 45,1 km/h (6 Bft) 100,00 %
17.02.2016 04:24 1,2 C 92 % 1024,2 hPa 0,0 l/m 33,2 km/h (5 Bft) O-NO 59 0 min 0,000 mm 0,0 UV-I 0 W/m 0,0 C -12,6 C 45,1 km/h (6 Bft) 100,00 %
17.02.2016 04:25 1,2 C 92 % 1024,2 hPa 0,0 l/m 35,5 km/h (5 Bft) NO 36 0 min 0,000 mm 0,0 UV-I 0 W/m 0,0 C -13,2 C 45,1 km/h (6 Bft) 100,00 %
17.02.2016 04:26 1,2 C 92 % 1024,2 hPa 0,0 l/m 33,2 km/h (5 Bft) O-NO 67 0 min 0,000 mm 0,0 UV-I 0 W/m 0,0 C -12,6 C 48,3 km/h (6 Bft) 95,65 %
17.02.2016 04:27 1,2 C 92 % 1024,2 hPa 0,0 l/m 26,7 km/h (4 Bft) N-NO 31 0 min 0,000 mm 0,0 UV-I 0 W/m 0,0 C -10,7 C 35,4 km/h (5 Bft) 100,00 %
17.02.2016 04:28 1,2 C 92 % 1024,2 hPa 0,0 l/m 35,2 km/h (5 Bft) O-NO 65 0 min 0,000 mm 0,0 UV-I 0 W/m 0,0 C -13,1 C 49,9 km/h (6 Bft) 100,00 %
17.02.2016 04:29 1,2 C 92 % 1024,2 hPa 0,0 l/m 27,7 km/h (4 Bft) NO 55 0 min 0,000 mm 0,0 UV-I 0 W/m 0,0 C -11,0 C 38,6 km/h (5 Bft) 100,00 %
17.02.2016 04:30 1,2 C 92 % 1024,1 hPa 0,0 l/m 31,8 km/h (5 Bft) O-NO 62 0 min 0,000 mm 0,0 UV-I 0 W/m 0,0 C -12,2 C 45,1 km/h (6 Bft) 100,00 %
17.02.2016 04:31 1,2 C 92 % 1024,1 hPa 0,0 l/m 33,0 km/h (5 Bft) O-NO 62 0 min 0,000 mm 0,0 UV-I 0 W/m 0,0 C -12,5 C 40,2 km/h (6 Bft) 100,00 %
17.02.2016 04:32 1,2 C 92 % 1024,0 hPa 0,0 l/m 34,4 km/h (5 Bft) NO 55 0 min 0,000 mm 0,0 UV-I 0 W/m 0,0 C -12,9 C 41,8 km/h (6 Bft) 100,00 %
17.02.2016 04:33 1,2 C 92 % 1023,9 hPa 0,0 l/m 29,4 km/h (5 Bft) O-NO 76 0 min 0,000 mm 0,0 UV-I 0 W/m 0,0 C -11,5 C 33,8 km/h (5 Bft) 100,00 %
17.02.2016 04:34 1,2 C 92 % 1023,9 hPa 0,0 l/m 31,3 km/h (5 Bft) NO 53 0 min 0,000 mm 0,0 UV-I 0 W/m 0,0 C -12,1 C 38,6 km/h (5 Bft) 100,00 %
17.02.2016 04:35 1,2 C 92 % 1024,0 hPa 0,0 l/m 31,3 km/h (5 Bft) O-NO 67 0 min 0,000 mm 0,0 UV-I 0 W/m 0,0 C -12,1 C 40,2 km/h (6 Bft) 100,00 %
17.02.2016 04:36 1,2 C 92 % 1023,8 hPa 0,0 l/m 32,2 km/h (5 Bft) NO 48 0 min 0,000 mm 0,0 UV-I 0 W/m 0,0 C -12,3 C 38,6 km/h (5 Bft) 100,00 %
17.02.2016 04:37 1,2 C 92 % 1024,0 hPa 0,0 l/m 29,8 km/h (5 Bft) O-NO 59 0 min 0,000 mm 0,0 UV-I 0 W/m 0,0 C -11,7 C 35,4 km/h (5 Bft) 100,00 %
17.02.2016 04:38 1,2 C 92 % 1023,9 hPa 0,0 l/m 31,6 km/h (5 Bft) NO 56 0 min 0,000 mm 0,0 UV-I 0 W/m 0,0 C -12,2 C 45,1 km/h (6 Bft) 100,00 %
17.02.2016 04:39 1,2 C 92 % 1023,8 hPa 0,0 l/m 30,7 km/h (5 Bft) NO 42 0 min 0,000 mm 0,0 UV-I 0 W/m 0,0 C -11,9 C 49,9 km/h (6 Bft) 100,00 %
17.02.2016 04:40 1,2 C 92 % 1023,7 hPa 0,0 l/m 42,4 km/h (6 Bft) NO 53 0 min 0,000 mm 0,0 UV-I 0 W/m 0,0 C -14,6 C 49,9 km/h (6 Bft) 100,00 %
17.02.2016 04:41 1,2 C 92 % 1023,8 hPa 0,0 l/m 37,3 km/h (5 Bft) NO 44 0 min 0,000 mm 0,0 UV-I 0 W/m 0,0 C -13,6 C 49,9 km/h (6 Bft) 91,30 %
17.02.2016 04:42 1,2 C 92 % 1023,8 hPa 0,0 l/m 27,5 km/h (4 Bft) O 94 0 min 0,000 mm 0,0 UV-I 0 W/m 0,0 C -10,9 C 41,8 km/h (6 Bft) 100,00 %
17.02.2016 04:43 1,2 C 92 % 1023,8 hPa 0,0 l/m 35,5 km/h (5 Bft) O-NO 67 0 min 0,000 mm 0,0 UV-I 0 W/m 0,0 C -13,2 C 43,5 km/h (6 Bft) 97,56 %
17.02.2016 04:44 1,2 C 92 % 1023,7 hPa 0,0 l/m 33,2 km/h (5 Bft) O-NO 78 0 min 0,000 mm 0,0 UV-I 0 W/m 0,0 C -12,6 C 43,5 km/h (6 Bft) 100,00 %
17.02.2016 04:45 1,2 C 92 % 1023,7 hPa 0,0 l/m 35,5 km/h (5 Bft) O 80 0 min 0,000 mm 0,0 UV-I 0 W/m 0,0 C -13,2 C 43,5 km/h (6 Bft) 100,00 %
17.02.2016 04:46 1,1 C 92 % 1023,7 hPa 0,0 l/m 31,9 km/h (5 Bft) NO 46 0 min 0,000 mm 0,0 UV-I 0 W/m -0,1 C -12,4 C 38,6 km/h (5 Bft) 100,00 %
17.02.2016 04:47 1,1 C 92 % 1023,5 hPa 0,0 l/m 38,3 km/h (5 Bft) NO 44 0 min 0,000 mm 0,0 UV-I 0 W/m -0,1 C -14,0 C 46,7 km/h (6 Bft) 100,00 %
17.02.2016 04:48 1,1 C 92 % 1023,6 hPa 0,0 l/m 35,3 km/h (5 Bft) O-NO 75 0 min 0,000 mm 0,0 UV-I 0 W/m -0,1 C -13,3 C 48,3 km/h (6 Bft) 100,00 %
17.02.2016 04:49 1,2 C 92 % 1023,5 hPa 0,0 l/m 34,0 km/h (5 Bft) O 83 0 min 0,000 mm 0,0 UV-I 0 W/m 0,0 C -12,8 C 45,1 km/h (6 Bft) 100,00 %
17.02.2016 04:50 1,1 C 92 % 1023,5 hPa 0,0 l/m 27,3 km/h (4 Bft) NO 47 0 min 0,000 mm 0,0 UV-I 0 W/m -0,1 C -11,0 C 37,0 km/h (5 Bft) 100,00 %
17.02.2016 04:51 1,2 C 92 % 1023,6 hPa 0,0 l/m 26,7 km/h (4 Bft) NO 39 0 min 0,000 mm 0,0 UV-I 0 W/m 0,0 C -10,7 C 38,6 km/h (5 Bft) 100,00 %
17.02.2016 04:52 1,1 C 92 % 1023,4 hPa 0,0 l/m 37,4 km/h (5 Bft) O-NO 59 0 min 0,000 mm 0,0 UV-I 0 W/m -0,1 C -13,8 C 46,7 km/h (6 Bft) 100,00 %
17.02.2016 04:53 1,1 C 92 % 1023,5 hPa 0,0 l/m 35,0 km/h (5 Bft) NO 55 0 min 0,000 mm 0,0 UV-I 0 W/m -0,1 C -13,2 C 41,8 km/h (6 Bft) 100,00 %
17.02.2016 04:54 1,1 C 92 % 1023,6 hPa 0,0 l/m 33,3 km/h (5 Bft) NO 46 0 min 0,000 mm 0,0 UV-I 0 W/m -0,1 C -12,8 C 41,8 km/h (6 Bft) 100,00 %
17.02.2016 04:55 1,1 C 92 % 1023,5 hPa 0,0 l/m 34,7 km/h (5 Bft) O-NO 63 0 min 0,000 mm 0,0 UV-I 0 W/m -0,1 C -13,1 C 40,2 km/h (6 Bft) 95,83 %
17.02.2016 04:56 1,1 C 92 % 1023,5 hPa 0,0 l/m 27,6 km/h (4 Bft) NO 46 0 min 0,000 mm 0,0 UV-I 0 W/m -0,1 C -11,1 C 35,4 km/h (5 Bft) 100,00 %
17.02.2016 04:57 1,1 C 92 % 1023,4 hPa 0,0 l/m 42,2 km/h (6 Bft) O 88 0 min 0,000 mm 0,0 UV-I 0 W/m -0,1 C -14,7 C 56,3 km/h (7 Bft) 93,33 %
17.02.2016 04:58 1,1 C 92 % 1023,4 hPa 0,0 l/m 40,1 km/h (6 Bft) O-NO 65 0 min 0,000 mm 0,0 UV-I 0 W/m -0,1 C -14,3 C 51,5 km/h (7 Bft) 100,00 %
17.02.2016 04:59 1,1 C 92 % 1023,4 hPa 0,0 l/m 34,5 km/h (5 Bft) O-NO 76 0 min 0,000 mm 0,0 UV-I 0 W/m -0,1 C -13,1 C 49,9 km/h (6 Bft) 100,00 %
17.02.2016 05:00 1,1 C 92 % 1023,4 hPa 0,0 l/m 30,7 km/h (5 Bft) O 80 0 min 0,025 mm 0,0 UV-I 0 W/m -0,1 C -12,1 C 37,0 km/h (5 Bft) 100,00 %
17.02.2016 05:01 1,1 C 92 % 1023,5 hPa 0,0 l/m 30,4 km/h (5 Bft) O-NO 67 0 min 0,000 mm 0,0 UV-I 0 W/m -0,1 C -12,0 C 48,3 km/h (6 Bft) 100,00 %
17.02.2016 05:02 1,1 C 92 % 1023,5 hPa 0,0 l/m 30,1 km/h (5 Bft) O-NO 64 0 min 0,000 mm 0,0 UV-I 0 W/m -0,1 C -11,9 C 38,6 km/h (5 Bft) 100,00 %
17.02.2016 05:03 1,1 C 92 % 1023,4 hPa 0,0 l/m 41,8 km/h (6 Bft) O-NO 61 0 min 0,000 mm 0,0 UV-I 0 W/m -0,1 C -14,7 C 53,1 km/h (7 Bft) 100,00 %
17.02.2016 05:04 1,1 C 92 % 1023,4 hPa 0,0 l/m 39,3 km/h (6 Bft) O-NO 63 0 min 0,000 mm 0,0 UV-I 0 W/m -0,1 C -14,2 C 54,7 km/h (7 Bft) 95,65 %
17.02.2016 05:05 1,1 C 92 % 1023,6 hPa 0,0 l/m 43,9 km/h (6 Bft) O-NO 77 0 min 0,000 mm 0,0 UV-I 0 W/m -0,1 C -15,0 C 64,4 km/h (8 Bft) 100,00 %
17.02.2016 05:06 1,1 C 92 % 1023,4 hPa 0,0 l/m 37,3 km/h (5 Bft) O-NO 65 0 min 0,000 mm 0,0 UV-I 0 W/m -0,1 C -13,7 C 49,9 km/h (6 Bft) 100,00 %
17.02.2016 05:07 1,1 C 92 % 1023,4 hPa 0,0 l/m 36,5 km/h (5 Bft) O-NO 74 0 min 0,000 mm 0,0 UV-I 0 W/m -0,1 C -13,6 C 45,1 km/h (6 Bft) 96,15 %
17.02.2016 05:08 1,1 C 92 % 1023,4 hPa 0,0 l/m 40,2 km/h (6 Bft) O-NO 78 0 min 0,000 mm 0,0 UV-I 0 W/m -0,1 C -14,3 C 48,3 km/h (6 Bft) 100,00 %
17.02.2016 05:09 1,1 C 92 % 1023,5 hPa 0,0 l/m 37,1 km/h (5 Bft) O-NO 65 0 min 0,000 mm 0,0 UV-I 0 W/m -0,1 C -13,7 C 51,5 km/h (7 Bft) 100,00 %
17.02.2016 05:10 1,1 C 92 % 1023,5 hPa 0,0 l/m 25,9 km/h (4 Bft) NO 56 0 min 0,000 mm 0,0 UV-I 0 W/m -0,1 C -10,5 C 32,2 km/h (5 Bft) 100,00 %
17.02.2016 05:11 1,1 C 92 % 1023,5 hPa 0,0 l/m 26,4 km/h (4 Bft) NO 55 0 min 0,000 mm 0,0 UV-I 0 W/m -0,1 C -10,7 C 37,0 km/h (5 Bft) 100,00 %
17.02.2016 05:12 1,1 C 92 % 1023,4 hPa 0,0 l/m 33,3 km/h (5 Bft) NO 56 0 min 0,000 mm 0,0 UV-I 0 W/m -0,1 C -12,8 C 43,5 km/h (6 Bft) 100,00 %
17.02.2016 05:13 1,1 C 92 % 1023,3 hPa 0,0 l/m 42,3 km/h (6 Bft) NO 56 0 min 0,000 mm 0,0 UV-I 0 W/m -0,1 C -14,7 C 53,1 km/h (7 Bft) 100,00 %
17.02.2016 05:14 1,1 C 92 % 1023,4 hPa 0,0 l/m 32,0 km/h (5 Bft) NO 53 0 min 0,000 mm 0,0 UV-I 0 W/m -0,1 C -12,4 C 43,5 km/h (6 Bft) 100,00 %
17.02.2016 05:15 1,1 C 92 % 1023,4 hPa 0,0 l/m 36,7 km/h (5 Bft) NO 40 0 min 0,000 mm 0,0 UV-I 0 W/m -0,1 C -13,6 C 45,1 km/h (6 Bft) 90,91 %
17.02.2016 05:16 1,1 C 92 % 1023,5 hPa 0,0 l/m 32,0 km/h (5 Bft) O 86 0 min 0,000 mm 0,0 UV-I 0 W/m -0,1 C -12,4 C 45,1 km/h (6 Bft) 100,00 %
17.02.2016 05:17 1,1 C 92 % 1023,4 hPa 0,0 l/m 30,7 km/h (5 Bft) O-NO 75 0 min 0,000 mm 0,0 UV-I 0 W/m -0,1 C -12,1 C 40,2 km/h (6 Bft) 100,00 %
17.02.2016 05:18 1,1 C 92 % 1023,4 hPa 0,0 l/m 31,9 km/h (5 Bft) O-NO 69 0 min 0,000 mm 0,0 UV-I 0 W/m -0,1 C -12,4 C 41,8 km/h (6 Bft) 96,30 %
17.02.2016 05:19 1,1 C 92 % 1023,3 hPa 0,0 l/m 28,8 km/h (4 Bft) O-NO 67 0 min 0,000 mm 0,0 UV-I 0 W/m -0,1 C -11,5 C 40,2 km/h (6 Bft) 100,00 %
17.02.2016 05:20 1,1 C 92 % 1023,3 hPa 0,0 l/m 28,4 km/h (4 Bft) O-NO 62 0 min 0,000 mm 0,0 UV-I 0 W/m -0,1 C -11,4 C 38,6 km/h (5 Bft) 95,83 %
17.02.2016 05:21 1,1 C 92 % 1023,3 hPa 0,0 l/m 36,0 km/h (5 Bft) O-NO 77 0 min 0,000 mm 0,0 UV-I 0 W/m -0,1 C -13,4 C 46,7 km/h (6 Bft) 95,65 %
17.02.2016 05:22 1,1 C 92 % 1023,2 hPa 0,0 l/m 38,1 km/h (5 Bft) O-NO 65 0 min 0,000 mm 0,0 UV-I 0 W/m -0,1 C -13,9 C 49,9 km/h (6 Bft) 100,00 %
17.02.2016 05:23 1,1 C 92 % 1023,2 hPa 0,0 l/m 34,2 km/h (5 Bft) O-NO 74 0 min 0,000 mm 0,0 UV-I 0 W/m -0,1 C -13,0 C 40,2 km/h (6 Bft) 95,65 %
17.02.2016 05:24 1,1 C 92 % 1023,2 hPa 0,0 l/m 36,5 km/h (5 Bft) O 87 0 min 0,000 mm 0,0 UV-I 0 W/m -0,1 C -13,6 C 46,7 km/h (6 Bft) 100,00 %
17.02.2016 05:25 1,1 C 92 % 1023,1 hPa 0,0 l/m 30,5 km/h (5 Bft) O-NO 61 0 min 0,000 mm 0,0 UV-I 0 W/m -0,1 C -12,0 C 43,5 km/h (6 Bft) 93,33 %
17.02.2016 05:26 1,1 C 92 % 1023,2 hPa 0,0 l/m 27,8 km/h (4 Bft) NO 45 0 min 0,000 mm 0,0 UV-I 0 W/m -0,1 C -11,2 C 38,6 km/h (5 Bft) 100,00 %
17.02.2016 05:27 1,1 C 92 % 1023,2 hPa 0,0 l/m 32,4 km/h (5 Bft) NO 53 0 min 0,000 mm 0,0 UV-I 0 W/m -0,1 C -12,5 C 48,3 km/h (6 Bft) 96,15 %
17.02.2016 05:28 1,1 C 92 % 1023,0 hPa 0,0 l/m 30,7 km/h (5 Bft) O-NO 63 0 min 0,000 mm 0,0 UV-I 0 W/m -0,1 C -12,1 C 41,8 km/h (6 Bft) 100,00 %
17.02.2016 05:29 1,1 C 92 % 1023,1 hPa 0,0 l/m 32,7 km/h (5 Bft) O-NO 57 0 min 0,000 mm 0,0 UV-I 0 W/m -0,1 C -12,6 C 46,7 km/h (6 Bft) 96,30 %
17.02.2016 05:30 1,1 C 92 % 1023,0 hPa 0,0 l/m 37,2 km/h (5 Bft) NO 53 0 min 0,000 mm 0,0 UV-I 0 W/m -0,1 C -13,7 C 45,1 km/h (6 Bft) 96,15 %
17.02.2016 05:31 1,1 C 92 % 1023,0 hPa 0,0 l/m 35,0 km/h (5 Bft) O 85 0 min 0,000 mm 0,0 UV-I 0 W/m -0,1 C -13,2 C 45,1 km/h (6 Bft) 100,00 %
17.02.2016 05:32 1,1 C 92 % 1023,1 hPa 0,0 l/m 35,1 km/h (5 Bft) NO 42 0 min 0,000 mm 0,0 UV-I 0 W/m -0,1 C -13,2 C 48,3 km/h (6 Bft) 96,55 %
17.02.2016 05:33 1,1 C 92 % 1023,1 hPa 0,0 l/m 30,7 km/h (5 Bft) O-NO 71 0 min 0,000 mm 0,0 UV-I 0 W/m -0,1 C -12,1 C 41,8 km/h (6 Bft) 94,44 %
17.02.2016 05:34 1,1 C 92 % 1023,1 hPa 0,0 l/m 31,0 km/h (5 Bft) NO 50 0 min 0,000 mm 0,0 UV-I 0 W/m -0,1 C -12,1 C 38,6 km/h (5 Bft) 93,10 %
17.02.2016 05:35 1,1 C 92 % 1023,0 hPa 0,0 l/m 36,5 km/h (5 Bft) O-NO 58 0 min 0,000 mm 0,0 UV-I 0 W/m -0,1 C -13,6 C 43,5 km/h (6 Bft) 100,00 %
17.02.2016 05:36 1,1 C 92 % 1023,0 hPa 0,0 l/m 32,5 km/h (5 Bft) O 88 0 min 0,000 mm 0,0 UV-I 0 W/m -0,1 C -12,6 C 40,2 km/h (6 Bft) 95,65 %
17.02.2016 05:37 1,1 C 92 % 1023,0 hPa 0,0 l/m 36,4 km/h (5 Bft) O-NO 75 0 min 0,000 mm 0,0 UV-I 0 W/m -0,1 C -13,5 C 46,7 km/h (6 Bft) 96,30 %
17.02.2016 05:38 1,1 C 92 % 1023,0 hPa 0,0 l/m 28,8 km/h (4 Bft) NO 50 0 min 0,000 mm 0,0 UV-I 0 W/m -0,1 C -11,5 C 35,4 km/h (5 Bft) 100,00 %
17.02.2016 05:39 1,1 C 92 % 1023,1 hPa 0,0 l/m 25,3 km/h (4 Bft) O-NO 59 0 min 0,000 mm 0,0 UV-I 0 W/m -0,1 C -10,3 C 35,4 km/h (5 Bft) 96,30 %
17.02.2016 05:40 1,1 C 92 % 1022,9 hPa 0,0 l/m 32,6 km/h (5 Bft) NO 47 0 min 0,000 mm 0,0 UV-I 0 W/m -0,1 C -12,6 C 37,0 km/h (5 Bft) 100,00 %
17.02.2016 05:41 1,2 C 92 % 1022,9 hPa 0,0 l/m 32,6 km/h (5 Bft) NO 44 0 min 0,000 mm 0,0 UV-I 0 W/m 0,0 C -12,4 C 40,2 km/h (6 Bft) 91,67 %
17.02.2016 05:42 1,1 C 92 % 1023,0 hPa 0,0 l/m 25,5 km/h (4 Bft) NO 47 0 min 0,000 mm 0,0 UV-I 0 W/m -0,1 C -10,4 C 38,6 km/h (5 Bft) 100,00 %
17.02.2016 05:43 1,1 C 92 % 1023,0 hPa 0,0 l/m 24,6 km/h (4 Bft) O-NO 76 0 min 0,000 mm 0,0 UV-I 0 W/m -0,1 C -10,1 C 33,8 km/h (5 Bft) 96,67 %
17.02.2016 05:44 1,1 C 92 % 1022,9 hPa 0,0 l/m 26,3 km/h (4 Bft) NO 53 0 min 0,000 mm 0,0 UV-I 0 W/m -0,1 C -10,7 C 37,0 km/h (5 Bft) 96,15 %
17.02.2016 05:45 1,1 C 92 % 1022,9 hPa 0,0 l/m 28,3 km/h (4 Bft) O-NO 61 0 min 0,000 mm 0,0 UV-I 0 W/m -0,1 C -11,3 C 37,0 km/h (5 Bft) 100,00 %
17.02.2016 05:46 1,2 C 92 % 1022,9 hPa 0,0 l/m 27,8 km/h (4 Bft) O-NO 73 0 min 0,000 mm 0,0 UV-I 0 W/m 0,0 C -11,0 C 38,6 km/h (5 Bft) 100,00 %
17.02.2016 05:47 1,1 C 92 % 1022,9 hPa 0,0 l/m 30,1 km/h (5 Bft) NO 50 0 min 0,000 mm 0,0 UV-I 0 W/m -0,1 C -11,9 C 35,4 km/h (5 Bft) 97,73 %
17.02.2016 05:48 1,1 C 92 % 1022,9 hPa 0,0 l/m 33,1 km/h (5 Bft) NO 50 0 min 0,000 mm 0,0 UV-I 0 W/m -0,1 C -12,7 C 43,5 km/h (6 Bft) 91,67 %
17.02.2016 05:49 1,2 C 92 % 1022,9 hPa 0,0 l/m 27,0 km/h (4 Bft) O-NO 63 0 min 0,000 mm 0,0 UV-I 0 W/m 0,0 C -10,8 C 32,2 km/h (5 Bft) 96,88 %
17.02.2016 05:50 1,1 C 92 % 1022,9 hPa 0,0 l/m 22,3 km/h (4 Bft) O-NO 69 0 min 0,000 mm 0,0 UV-I 0 W/m -0,1 C -9,2 C 25,7 km/h (4 Bft) 95,65 %
17.02.2016 05:51 1,1 C 92 % 1022,6 hPa 0,0 l/m 34,7 km/h (5 Bft) O-NO 63 0 min 0,000 mm 0,0 UV-I 0 W/m -0,1 C -13,1 C 46,7 km/h (6 Bft) 95,83 %
17.02.2016 05:52 1,2 C 92 % 1022,6 hPa 0,0 l/m 29,8 km/h (5 Bft) O-NO 67 0 min 0,000 mm 0,0 UV-I 0 W/m 0,0 C -11,7 C 35,4 km/h (5 Bft) 95,83 %
17.02.2016 05:53 1,2 C 92 % 1022,7 hPa 0,0 l/m 22,3 km/h (4 Bft) NO 55 0 min 0,000 mm 0,0 UV-I 0 W/m 0,0 C -9,1 C 29,0 km/h (5 Bft) 100,00 %
17.02.2016 05:54 1,2 C 92 % 1022,7 hPa 0,0 l/m 31,9 km/h (5 Bft) NO 42 0 min 0,000 mm 0,0 UV-I 0 W/m 0,0 C -12,3 C 40,2 km/h (6 Bft) 100,00 %
17.02.2016 05:55 1,2 C 92 % 1022,5 hPa 0,0 l/m 30,2 km/h (5 Bft) NO 40 0 min 0,000 mm 0,0 UV-I 0 W/m 0,0 C -11,8 C 43,5 km/h (6 Bft) 96,15 %
17.02.2016 05:56 1,2 C 92 % 1022,5 hPa 0,0 l/m 33,6 km/h (5 Bft) O-NO 62 0 min 0,000 mm 0,0 UV-I 0 W/m 0,0 C -12,7 C 40,2 km/h (6 Bft) 100,00 %
17.02.2016 05:57 1,2 C 92 % 1022,5 hPa 0,0 l/m 32,3 km/h (5 Bft) NO 46 0 min 0,000 mm 0,0 UV-I 0 W/m 0,0 C -12,4 C 41,8 km/h (6 Bft) 100,00 %
17.02.2016 05:58 1,2 C 92 % 1022,4 hPa 0,0 l/m 28,1 km/h (4 Bft) O-NO 59 0 min 0,000 mm 0,0 UV-I 0 W/m 0,0 C -11,1 C 37,0 km/h (5 Bft) 100,00 %
17.02.2016 05:59 1,2 C 92 % 1022,5 hPa 0,0 l/m 30,0 km/h (5 Bft) O-NO 78 0 min 0,000 mm 0,0 UV-I 0 W/m 0,0 C -11,7 C 35,4 km/h (5 Bft) 100,00 %
17.02.2016 06:00 1,2 C 92 % 1022,4 hPa 0,0 l/m 28,7 km/h (4 Bft) O-NO 61 0 min 0,025 mm 0,0 UV-I 0 W/m 0,0 C -11,3 C 35,4 km/h (5 Bft) 100,00 %
17.02.2016 06:01 1,2 C 92 % 1022,4 hPa 0,0 l/m 27,7 km/h (4 Bft) O-NO 63 0 min 0,000 mm 0,0 UV-I 0 W/m 0,0 C -11,0 C 35,4 km/h (5 Bft) 100,00 %
17.02.2016 06:02 1,2 C 92 % 1022,4 hPa 0,0 l/m 22,9 km/h (4 Bft) NO 46 0 min 0,000 mm 0,0 UV-I 0 W/m 0,0 C -9,3 C 33,8 km/h (5 Bft) 100,00 %
17.02.2016 06:03 1,2 C 92 % 1022,3 hPa 0,0 l/m 25,3 km/h (4 Bft) O-NO 63 0 min 0,000 mm 0,0 UV-I 0 W/m 0,0 C -10,2 C 30,6 km/h (5 Bft) 100,00 %
17.02.2016 06:04 1,2 C 92 % 1022,3 hPa 0,0 l/m 27,2 km/h (4 Bft) O-NO 57 0 min 0,000 mm 0,0 UV-I 0 W/m 0,0 C -10,8 C 33,8 km/h (5 Bft) 95,83 %
17.02.2016 06:05 1,2 C 92 % 1022,3 hPa 0,0 l/m 29,4 km/h (5 Bft) O-NO 60 0 min 0,000 mm 0,0 UV-I 0 W/m 0,0 C -11,5 C 35,4 km/h (5 Bft) 91,67 %
17.02.2016 06:06 1,2 C 92 % 1022,3 hPa 0,0 l/m 29,3 km/h (5 Bft) O-NO 69 0 min 0,000 mm 0,0 UV-I 0 W/m 0,0 C -11,5 C 38,6 km/h (5 Bft) 100,00 %
17.02.2016 06:07 1,2 C 92 % 1022,4 hPa 0,0 l/m 29,7 km/h (5 Bft) NO 53 0 min 0,000 mm 0,0 UV-I 0 W/m 0,0 C -11,6 C 38,6 km/h (5 Bft) 100,00 %
17.02.2016 06:08 1,2 C 92 % 1022,4 hPa 0,0 l/m 29,1 km/h (5 Bft) O-NO 57 0 min 0,000 mm 0,0 UV-I 0 W/m 0,0 C -11,4 C 35,4 km/h (5 Bft) 100,00 %
17.02.2016 06:09 1,2 C 92 % 1022,4 hPa 0,0 l/m 26,4 km/h (4 Bft) O-NO 66 0 min 0,000 mm 0,0 UV-I 0 W/m 0,0 C -10,6 C 37,0 km/h (5 Bft) 96,15 %
17.02.2016 06:10 1,2 C 92 % 1022,3 hPa 0,0 l/m 28,5 km/h (4 Bft) O-NO 67 0 min 0,000 mm 0,0 UV-I 0 W/m 0,0 C -11,3 C 37,0 km/h (5 Bft) 100,00 %
17.02.2016 06:11 1,2 C 92 % 1022,3 hPa 0,0 l/m 25,3 km/h (4 Bft) NO 52 0 min 0,000 mm 0,0 UV-I 0 W/m 0,0 C -10,2 C 32,2 km/h (5 Bft) 100,00 %
17.02.2016 06:12 1,2 C 92 % 1022,3 hPa 0,0 l/m 30,1 km/h (5 Bft) NO 48 0 min 0,000 mm 0,0 UV-I 0 W/m 0,0 C -11,7 C 43,5 km/h (6 Bft) 100,00 %
17.02.2016 06:13 1,2 C 92 % 1022,4 hPa 0,0 l/m 32,5 km/h (5 Bft) NO 50 0 min 0,000 mm 0,0 UV-I 0 W/m 0,0 C -12,4 C 46,7 km/h (6 Bft) 100,00 %
17.02.2016 06:14 1,2 C 92 % 1022,4 hPa 0,0 l/m 34,5 km/h (5 Bft) O-NO 67 0 min 0,000 mm 0,0 UV-I 0 W/m 0,0 C -12,9 C 46,7 km/h (6 Bft) 100,00 %
17.02.2016 06:15 1,2 C 92 % 1022,2 hPa 0,0 l/m 30,7 km/h (5 Bft) NO 54 0 min 0,000 mm 0,0 UV-I 0 W/m 0,0 C -11,9 C 41,8 km/h (6 Bft) 100,00 %
17.02.2016 06:16 1,2 C 92 % 1022,3 hPa 0,0 l/m 31,9 km/h (5 Bft) O-NO 69 0 min 0,000 mm 0,0 UV-I 0 W/m 0,0 C -12,3 C 37,0 km/h (5 Bft) 100,00 %
17.02.2016 06:17 1,2 C 92 % 1022,3 hPa 0,0 l/m 33,9 km/h (5 Bft) O-NO 78 0 min 0,000 mm 0,0 UV-I 0 W/m 0,0 C -12,8 C 45,1 km/h (6 Bft) 100,00 %
17.02.2016 06:18 1,2 C 92 % 1022,2 hPa 0,0 l/m 25,5 km/h (4 Bft) O-NO 74 0 min 0,000 mm 0,0 UV-I 0 W/m 0,0 C -10,3 C 32,2 km/h (5 Bft) 96,88 %
17.02.2016 06:19 1,2 C 92 % 1022,1 hPa 0,0 l/m 23,7 km/h (4 Bft) NO 51 0 min 0,000 mm 0,0 UV-I 0 W/m 0,0 C -9,6 C 30,6 km/h (5 Bft) 100,00 %
17.02.2016 06:20 1,2 C 92 % 1022,1 hPa 0,0 l/m 23,8 km/h (4 Bft) O-NO 63 0 min 0,000 mm 0,0 UV-I 0 W/m 0,0 C -9,6 C 27,4 km/h (4 Bft) 100,00 %
17.02.2016 06:21 1,2 C 92 % 1022,1 hPa 0,0 l/m 26,5 km/h (4 Bft) O-NO 59 0 min 0,000 mm 0,0 UV-I 0 W/m 0,0 C -10,6 C 33,8 km/h (5 Bft) 100,00 %
17.02.2016 06:22 1,2 C 92 % 1022,1 hPa 0,0 l/m 31,6 km/h (5 Bft) NO 42 0 min 0,000 mm 0,0 UV-I 0 W/m 0,0 C -12,2 C 40,2 km/h (6 Bft) 100,00 %
17.02.2016 06:23 1,2 C 92 % 1022,0 hPa 0,0 l/m 29,7 km/h (5 Bft) NO 53 0 min 0,000 mm 0,0 UV-I 0 W/m 0,0 C -11,6 C 40,2 km/h (6 Bft) 100,00 %
17.02.2016 06:24 1,2 C 92 % 1022,0 hPa 0,0 l/m 26,1 km/h (4 Bft) O-NO 63 0 min 0,000 mm 0,0 UV-I 0 W/m 0,0 C -10,5 C 32,2 km/h (5 Bft) 100,00 %
17.02.2016 06:25 1,2 C 92 % 1022,0 hPa 0,0 l/m 34,2 km/h (5 Bft) NO 51 0 min 0,000 mm 0,0 UV-I 0 W/m 0,0 C -12,9 C 45,1 km/h (6 Bft) 92,31 %
17.02.2016 06:26 1,2 C 92 % 1021,8 hPa 0,0 l/m 31,0 km/h (5 Bft) NO 49 0 min 0,000 mm 0,0 UV-I 0 W/m 0,0 C -12,0 C 38,6 km/h (5 Bft) 100,00 %
17.02.2016 06:27 1,2 C 92 % 1021,9 hPa 0,0 l/m 34,7 km/h (5 Bft) O-NO 59 0 min 0,000 mm 0,0 UV-I 0 W/m 0,0 C -13,0 C 46,7 km/h (6 Bft) 100,00 %
17.02.2016 06:28 1,2 C 92 % 1021,9 hPa 0,0 l/m 33,6 km/h (5 Bft) O-NO 57 0 min 0,000 mm 0,0 UV-I 0 W/m 0,0 C -12,7 C 45,1 km/h (6 Bft) 96,30 %
17.02.2016 06:29 1,2 C 92 % 1021,8 hPa 0,0 l/m 35,9 km/h (5 Bft) NO 55 0 min 0,000 mm 0,0 UV-I 0 W/m 0,0 C -13,3 C 43,5 km/h (6 Bft) 100,00 %
17.02.2016 06:30 1,2 C 92 % 1021,8 hPa 0,0 l/m 38,4 km/h (5 Bft) NO 45 0 min 0,000 mm 0,0 UV-I 0 W/m 0,0 C -13,8 C 46,7 km/h (6 Bft) 100,00 %
17.02.2016 06:31 1,2 C 92 % 1021,8 hPa 0,0 l/m 36,0 km/h (5 Bft) O 79 0 min 0,000 mm 0,0 UV-I 0 W/m 0,0 C -13,3 C 48,3 km/h (6 Bft) 100,00 %
17.02.2016 06:32 1,2 C 92 % 1021,8 hPa 0,0 l/m 27,1 km/h (4 Bft) NO 55 0 min 0,000 mm 0,0 UV-I 0 W/m 0,0 C -10,8 C 38,6 km/h (5 Bft) 93,33 %
17.02.2016 06:33 1,2 C 91 % 1021,9 hPa 0,0 l/m 25,0 km/h (4 Bft) NO 46 0 min 0,000 mm 0,0 UV-I 0 W/m -0,1 C -10,1 C 37,0 km/h (5 Bft) 100,00 %
17.02.2016 06:34 1,2 C 91 % 1021,9 hPa 0,0 l/m 23,8 km/h (4 Bft) O-NO 57 0 min 0,000 mm 0,0 UV-I 0 W/m -0,1 C -9,6 C 30,6 km/h (5 Bft) 100,00 %
17.02.2016 06:35 1,2 C 92 % 1021,9 hPa 0,0 l/m 27,8 km/h (4 Bft) O-NO 61 0 min 0,000 mm 0,0 UV-I 0 W/m 0,0 C -11,0 C 35,4 km/h (5 Bft) 100,00 %
17.02.2016 06:36 1,2 C 91 % 1021,8 hPa 0,0 l/m 32,4 km/h (5 Bft) O-NO 67 0 min 0,000 mm 0,0 UV-I 0 W/m -0,1 C -12,4 C 41,8 km/h (6 Bft) 100,00 %
17.02.2016 06:37 1,2 C 92 % 1021,8 hPa 0,0 l/m 24,9 km/h (4 Bft) NO 55 0 min 0,000 mm 0,0 UV-I 0 W/m 0,0 C -10,1 C 32,2 km/h (5 Bft) 100,00 %
17.02.2016 06:38 1,2 C 91 % 1021,8 hPa 0,0 l/m 19,5 km/h (3 Bft) O-NO 70 0 min 0,000 mm 0,0 UV-I 0 W/m -0,1 C -7,9 C 24,1 km/h (4 Bft) 100,00 %
17.02.2016 06:39 1,2 C 92 % 1021,6 hPa 0,0 l/m 26,8 km/h (4 Bft) NO 38 0 min 0,000 mm 0,0 UV-I 0 W/m 0,0 C -10,7 C 35,4 km/h (5 Bft) 100,00 %
17.02.2016 06:40 1,3 C 92 % 1021,7 hPa 0,0 l/m 31,1 km/h (5 Bft) O-NO 70 0 min 0,000 mm 0,0 UV-I 0 W/m 0,1 C -11,9 C 43,5 km/h (6 Bft) 100,00 %
17.02.2016 06:41 1,2 C 92 % 1021,7 hPa 0,0 l/m 29,8 km/h (5 Bft) O-NO 60 0 min 0,000 mm 0,0 UV-I 0 W/m 0,0 C -11,7 C 41,8 km/h (6 Bft) 100,00 %
17.02.2016 06:42 1,2 C 91 % 1021,6 hPa 0,0 l/m 32,3 km/h (5 Bft) O-NO 59 0 min 0,000 mm 0,0 UV-I 0 W/m -0,1 C -12,4 C 41,8 km/h (6 Bft) 100,00 %
17.02.2016 06:43 1,2 C 91 % 1021,5 hPa 0,0 l/m 35,5 km/h (5 Bft) NO 55 0 min 0,000 mm 0,0 UV-I 0 W/m -0,1 C -13,2 C 45,1 km/h (6 Bft) 96,15 %
17.02.2016 06:44 1,3 C 91 % 1021,4 hPa 0,0 l/m 27,4 km/h (4 Bft) O-NO 63 0 min 0,000 mm 0,0 UV-I 0 W/m -0,0 C -10,8 C 37,0 km/h (5 Bft) 100,00 %
17.02.2016 06:45 1,2 C 92 % 1021,5 hPa 0,0 l/m 25,6 km/h (4 Bft) NO 44 0 min 0,000 mm 0,0 UV-I 0 W/m 0,0 C -10,3 C 33,8 km/h (5 Bft) 100,00 %
17.02.2016 06:46 1,3 C 92 % 1021,5 hPa 0,0 l/m 25,8 km/h (4 Bft) O-NO 61 0 min 0,000 mm 0,0 UV-I 0 W/m 0,1 C -10,2 C 40,2 km/h (6 Bft) 100,00 %
17.02.2016 06:47 1,3 C 92 % 1021,5 hPa 0,0 l/m 23,3 km/h (4 Bft) NO 42 0 min 0,000 mm 0,0 UV-I 0 W/m 0,1 C -9,3 C 35,4 km/h (5 Bft) 100,00 %
17.02.2016 06:48 1,3 C 92 % 1021,5 hPa 0,0 l/m 27,2 km/h (4 Bft) O-NO 60 0 min 0,000 mm 0,0 UV-I 0 W/m 0,1 C -10,7 C 37,0 km/h (5 Bft) 100,00 %
17.02.2016 06:49 1,2 C 92 % 1021,5 hPa 0,0 l/m 24,4 km/h (4 Bft) NO 50 0 min 0,000 mm 0,0 UV-I 0 W/m 0,0 C -9,9 C 32,2 km/h (5 Bft) 94,44 %
17.02.2016 06:50 1,3 C 92 % 1021,5 hPa 0,0 l/m 22,2 km/h (4 Bft) O-NO 74 0 min 0,000 mm 0,0 UV-I 0 W/m 0,1 C -8,9 C 32,2 km/h (5 Bft) 100,00 %
17.02.2016 06:51 1,3 C 92 % 1021,4 hPa 0,0 l/m 23,8 km/h (4 Bft) O 84 0 min 0,000 mm 0,0 UV-I 0 W/m 0,1 C -9,5 C 37,0 km/h (5 Bft) 100,00 %
17.02.2016 06:52 1,3 C 92 % 1021,4 hPa 0,0 l/m 27,1 km/h (4 Bft) O-NO 66 0 min 0,000 mm 0,0 UV-I 0 W/m 0,1 C -10,7 C 35,4 km/h (5 Bft) 100,00 %
17.02.2016 06:53 1,3 C 92 % 1021,3 hPa 0,0 l/m 33,0 km/h (5 Bft) N-NO 32 0 min 0,000 mm 0,0 UV-I 0 W/m 0,1 C -12,4 C 43,5 km/h (6 Bft) 100,00 %
17.02.2016 06:54 1,3 C 92 % 1021,3 hPa 0,0 l/m 33,9 km/h (5 Bft) O-NO 75 0 min 0,000 mm 0,0 UV-I 0 W/m 0,1 C -12,6 C 41,8 km/h (6 Bft) 100,00 %
17.02.2016 06:55 1,3 C 92 % 1021,2 hPa 0,0 l/m 37,6 km/h (5 Bft) O-NO 58 0 min 0,000 mm 0,0 UV-I 0 W/m 0,1 C -13,5 C 45,1 km/h (6 Bft) 100,00 %
17.02.2016 06:56 1,3 C 91 % 1021,3 hPa 0,0 l/m 28,8 km/h (4 Bft) O-NO 57 0 min 0,000 mm 0,0 UV-I 0 W/m -0,0 C -11,2 C 43,5 km/h (6 Bft) 100,00 %
17.02.2016 06:57 1,3 C 92 % 1021,4 hPa 0,0 l/m 34,8 km/h (5 Bft) O-NO 74 0 min 0,000 mm 0,0 UV-I 0 W/m 0,1 C -12,9 C 43,5 km/h (6 Bft) 92,59 %
17.02.2016 06:58 1,3 C 91 % 1021,5 hPa 0,0 l/m 31,4 km/h (5 Bft) O-NO 57 0 min 0,000 mm 0,0 UV-I 0 W/m -0,0 C -12,0 C 40,2 km/h (6 Bft) 95,65 %
17.02.2016 06:59 1,3 C 91 % 1021,4 hPa 0,0 l/m 33,7 km/h (5 Bft) O-NO 60 0 min 0,000 mm 0,0 UV-I 0 W/m -0,0 C -12,6 C 41,8 km/h (6 Bft) 96,30 %
17.02.2016 07:00 1,3 C 92 % 1021,4 hPa 0,0 l/m 30,7 km/h (5 Bft) NO 36 0 min 0,026 mm 0,0 UV-I 0 W/m 0,1 C -11,8 C 43,5 km/h (6 Bft) 100,00 %
17.02.2016 07:02 1,3 C 92 % 1021,4 hPa 0,0 l/m 29,2 km/h (5 Bft) O-NO 67 0 min 0,000 mm 0,0 UV-I 0 W/m 0,1 C -11,3 C 41,8 km/h (6 Bft) 100,00 %
17.02.2016 07:03 1,3 C 91 % 1021,3 hPa 0,0 l/m 32,2 km/h (5 Bft) NO 53 0 min 0,000 mm 0,0 UV-I 0 W/m -0,0 C -12,2 C 41,8 km/h (6 Bft) 93,33 %
17.02.2016 07:04 1,3 C 91 % 1021,3 hPa 0,0 l/m 43,9 km/h (6 Bft) O-NO 57 0 min 0,000 mm 0,0 UV-I 0 W/m -0,0 C -14,7 C 53,1 km/h (7 Bft) 100,00 %
17.02.2016 07:05 1,3 C 91 % 1021,4 hPa 0,0 l/m 36,6 km/h (5 Bft) O-NO 78 0 min 0,000 mm 0,0 UV-I 0 W/m -0,0 C -13,3 C 51,5 km/h (7 Bft) 96,55 %
17.02.2016 07:06 1,3 C 91 % 1021,1 hPa 0,0 l/m 41,8 km/h (6 Bft) NO 54 0 min 0,000 mm 0,0 UV-I 0 W/m -0,0 C -14,4 C 51,5 km/h (7 Bft) 100,00 %
17.02.2016 07:07 1,3 C 91 % 1021,1 hPa 0,0 l/m 42,5 km/h (6 Bft) NO 42 0 min 0,000 mm 0,0 UV-I 0 W/m -0,0 C -14,5 C 51,5 km/h (7 Bft) 100,00 %
17.02.2016 07:08 1,3 C 91 % 1021,1 hPa 0,0 l/m 41,4 km/h (6 Bft) O-NO 57 0 min 0,000 mm 0,0 UV-I 0 W/m -0,0 C -14,3 C 49,9 km/h (6 Bft) 100,00 %
17.02.2016 07:09 1,3 C 91 % 1021,1 hPa 0,0 l/m 36,0 km/h (5 Bft) NO 51 0 min 0,000 mm 0,0 UV-I 0 W/m -0,0 C -13,1 C 49,9 km/h (6 Bft) 100,00 %
17.02.2016 07:10 1,3 C 91 % 1021,1 hPa 0,0 l/m 38,4 km/h (5 Bft) NO 56 0 min 0,000 mm 0,0 UV-I 0 W/m -0,0 C -13,7 C 46,7 km/h (6 Bft) 100,00 %
17.02.2016 07:12 1,3 C 91 % 1021,0 hPa 0,0 l/m 32,2 km/h (5 Bft) O-NO 59 0 min 0,000 mm 0,0 UV-I 0 W/m -0,0 C -12,2 C 43,5 km/h (6 Bft) 96,00 %
17.02.2016 07:13 1,3 C 92 % 1020,9 hPa 0,0 l/m 35,2 km/h (5 Bft) O-NO 63 0 min 0,000 mm 0,0 UV-I 5 W/m 0,1 C -13,0 C 41,8 km/h (6 Bft) 94,12 %
17.02.2016 07:14 1,3 C 92 % 1021,0 hPa 0,0 l/m 32,1 km/h (5 Bft) O-NO 67 0 min 0,000 mm 0,0 UV-I 5 W/m 0,1 C -12,2 C 43,5 km/h (6 Bft) 100,00 %
17.02.2016 07:15 1,3 C 92 % 1021,0 hPa 0,0 l/m 27,8 km/h (4 Bft) O-NO 76 0 min 0,000 mm 0,0 UV-I 5 W/m 0,1 C -10,9 C 35,4 km/h (5 Bft) 100,00 %
17.02.2016 07:16 1,3 C 92 % 1021,0 hPa 0,0 l/m 38,9 km/h (6 Bft) NO 36 0 min 0,000 mm 0,0 UV-I 6 W/m 0,1 C -13,8 C 51,5 km/h (7 Bft) 100,00 %
17.02.2016 07:17 1,3 C 92 % 1021,0 hPa 0,0 l/m 33,9 km/h (5 Bft) O-NO 74 0 min 0,000 mm 0,0 UV-I 7 W/m 0,1 C -12,6 C 41,8 km/h (6 Bft) 100,00 %
17.02.2016 07:18 1,3 C 92 % 1021,0 hPa 0,0 l/m 38,4 km/h (5 Bft) NO 47 0 min 0,000 mm 0,0 UV-I 7 W/m 0,1 C -13,7 C 48,3 km/h (6 Bft) 100,00 %
17.02.2016 07:19 1,3 C 92 % 1020,9 hPa 0,0 l/m 35,3 km/h (5 Bft) NO 54 0 min 0,000 mm 0,0 UV-I 7 W/m 0,1 C -13,0 C 43,5 km/h (6 Bft) 100,00 %
17.02.2016 07:20 1,3 C 92 % 1021,0 hPa 0,0 l/m 27,0 km/h (4 Bft) N 9 0 min 0,000 mm 0,0 UV-I 8 W/m 0,1 C -10,6 C 40,2 km/h (6 Bft) 100,00 %
17.02.2016 07:22 1,3 C 92 % 1020,9 hPa 0,0 l/m 24,9 km/h (4 Bft) O-NO 64 0 min 0,000 mm 0,0 UV-I 9 W/m 0,1 C -9,9 C 38,6 km/h (5 Bft) 97,14 %
17.02.2016 07:23 1,3 C 92 % 1020,9 hPa 0,0 l/m 31,2 km/h (5 Bft) O 90 0 min 0,000 mm 0,0 UV-I 10 W/m 0,1 C -11,9 C 43,5 km/h (6 Bft) 96,15 %
17.02.2016 07:24 1,3 C 92 % 1021,0 hPa 0,0 l/m 31,4 km/h (5 Bft) O-NO 75 0 min 0,000 mm 0,0 UV-I 9 W/m 0,1 C -12,0 C 41,8 km/h (6 Bft) 100,00 %
17.02.2016 07:25 1,3 C 92 % 1021,0 hPa 0,0 l/m 35,7 km/h (5 Bft) O-NO 63 0 min 0,000 mm 0,0 UV-I 11 W/m 0,1 C -13,1 C 48,3 km/h (6 Bft) 95,83 %
17.02.2016 07:26 1,3 C 92 % 1020,9 hPa 0,0 l/m 29,8 km/h (5 Bft) NO 42 0 min 0,000 mm 0,0 UV-I 11 W/m 0,1 C -11,5 C 37,0 km/h (5 Bft) 100,00 %
17.02.2016 07:27 1,3 C 92 % 1020,8 hPa 0,0 l/m 30,4 km/h (5 Bft) O 92 0 min 0,000 mm 0,0 UV-I 11 W/m 0,1 C -11,7 C 38,6 km/h (5 Bft) 96,15 %
17.02.2016 07:28 1,3 C 92 % 1020,8 hPa 0,0 l/m 34,6 km/h (5 Bft) O-NO 78 0 min 0,000 mm 0,0 UV-I 12 W/m 0,1 C -12,8 C 48,3 km/h (6 Bft) 96,30 %
17.02.2016 07:29 1,3 C 92 % 1020,8 hPa 0,0 l/m 34,7 km/h (5 Bft) O-NO 69 0 min 0,000 mm 0,0 UV-I 12 W/m 0,1 C -12,8 C 49,9 km/h (6 Bft) 100,00 %
17.02.2016 07:30 1,3 C 92 % 1020,8 hPa 0,0 l/m 28,9 km/h (5 Bft) O-NO 61 0 min 0,000 mm 0,0 UV-I 14 W/m 0,1 C -11,2 C 35,4 km/h (5 Bft) 96,15 %
17.02.2016 07:32 1,3 C 92 % 1020,8 hPa 0,0 l/m 29,5 km/h (5 Bft) NO 53 0 min 0,000 mm 0,0 UV-I 13 W/m 0,1 C -11,4 C 38,6 km/h (5 Bft) 95,12 %
17.02.2016 07:33 1,3 C 92 % 1020,8 hPa 0,0 l/m 35,2 km/h (5 Bft) O-NO 67 0 min 0,000 mm 0,0 UV-I 13 W/m 0,1 C -13,0 C 45,1 km/h (6 Bft) 100,00 %
17.02.2016 07:34 1,3 C 92 % 1020,8 hPa 0,0 l/m 34,5 km/h (5 Bft) O-NO 61 0 min 0,000 mm 0,0 UV-I 15 W/m 0,1 C -12,8 C 46,7 km/h (6 Bft) 91,30 %
17.02.2016 07:35 1,3 C 92 % 1020,8 hPa 0,0 l/m 27,0 km/h (4 Bft) O-NO 65 0 min 0,000 mm 0,0 UV-I 16 W/m 0,1 C -10,6 C 35,4 km/h (5 Bft) 100,00 %
17.02.2016 07:36 1,3 C 92 % 1020,8 hPa 0,0 l/m 29,8 km/h (5 Bft) O 86 0 min 0,000 mm 0,0 UV-I 16 W/m 0,1 C -11,5 C 45,1 km/h (6 Bft) 95,65 %
17.02.2016 07:37 1,3 C 92 % 1020,9 hPa 0,0 l/m 30,5 km/h (5 Bft) O-NO 62 0 min 0,000 mm 0,0 UV-I 16 W/m 0,1 C -11,7 C 38,6 km/h (5 Bft) 96,30 %
17.02.2016 07:38 1,3 C 92 % 1020,8 hPa 0,0 l/m 41,7 km/h (6 Bft) NO 55 0 min 0,000 mm 0,0 UV-I 16 W/m 0,1 C -14,3 C 57,9 km/h (7 Bft) 100,00 %
17.02.2016 07:39 1,3 C 92 % 1020,8 hPa 0,0 l/m 36,1 km/h (5 Bft) NO 50 0 min 0,000 mm 0,0 UV-I 16 W/m 0,1 C -13,2 C 49,9 km/h (6 Bft) 95,83 %
17.02.2016 07:40 1,3 C 92 % 1020,8 hPa 0,0 l/m 30,9 km/h (5 Bft) NO 49 0 min 0,000 mm 0,0 UV-I 17 W/m 0,1 C -11,8 C 38,6 km/h (5 Bft) 100,00 %
17.02.2016 07:42 1,3 C 92 % 1020,7 hPa 0,0 l/m 32,1 km/h (5 Bft) O 82 0 min 0,000 mm 0,0 UV-I 18 W/m 0,1 C -12,2 C 45,1 km/h (6 Bft) 97,83 %
17.02.2016 07:43 1,3 C 92 % 1020,7 hPa 0,0 l/m 33,2 km/h (5 Bft) NO 44 0 min 0,000 mm 0,0 UV-I 18 W/m 0,1 C -12,5 C 43,5 km/h (6 Bft) 96,30 %
17.02.2016 07:44 1,3 C 92 % 1020,7 hPa 0,0 l/m 36,4 km/h (5 Bft) O-NO 71 0 min 0,000 mm 0,0 UV-I 18 W/m 0,1 C -13,2 C 48,3 km/h (6 Bft) 100,00 %
17.02.2016 07:45 1,3 C 92 % 1020,7 hPa 0,0 l/m 36,8 km/h (5 Bft) O 79 0 min 0,000 mm 0,0 UV-I 19 W/m 0,1 C -13,3 C 49,9 km/h (6 Bft) 97,56 %
17.02.2016 07:46 1,3 C 92 % 1020,7 hPa 0,0 l/m 32,1 km/h (5 Bft) O-NO 75 0 min 0,000 mm 0,0 UV-I 19 W/m 0,1 C -12,2 C 37,0 km/h (5 Bft) 100,00 %
17.02.2016 07:47 1,3 C 92 % 1020,8 hPa 0,0 l/m 36,6 km/h (5 Bft) O-NO 63 0 min 0,000 mm 0,0 UV-I 20 W/m 0,1 C -13,3 C 43,5 km/h (6 Bft) 93,10 %
17.02.2016 07:48 1,3 C 92 % 1020,7 hPa 0,0 l/m 31,7 km/h (5 Bft) NO 44 0 min 0,000 mm 0,0 UV-I 23 W/m 0,1 C -12,1 C 45,1 km/h (6 Bft) 95,65 %
17.02.2016 07:49 1,4 C 92 % 1020,8 hPa 0,0 l/m 30,4 km/h (5 Bft) O-NO 72 0 min 0,000 mm 0,0 UV-I 24 W/m 0,2 C -11,6 C 40,2 km/h (6 Bft) 100,00 %
17.02.2016 07:50 1,3 C 92 % 1020,6 hPa 0,0 l/m 30,3 km/h (5 Bft) NO 50 0 min 0,000 mm 0,0 UV-I 28 W/m 0,1 C -11,7 C 40,2 km/h (6 Bft) 96,15 %
17.02.2016 07:51 1,4 C 92 % 1020,6 hPa 0,0 l/m 35,8 km/h (5 Bft) O 90 0 min 0,000 mm 0,0 UV-I 30 W/m 0,2 C -13,0 C 54,7 km/h (7 Bft) 100,00 %
17.02.2016 07:52 1,4 C 92 % 1020,5 hPa 0,0 l/m 36,9 km/h (5 Bft) O-NO 65 0 min 0,000 mm 0,0 UV-I 32 W/m 0,2 C -13,2 C 49,9 km/h (6 Bft) 100,00 %
17.02.2016 07:53 1,4 C 92 % 1020,5 hPa 0,0 l/m 34,9 km/h (5 Bft) O-NO 67 0 min 0,000 mm 0,0 UV-I 29 W/m 0,2 C -12,7 C 43,5 km/h (6 Bft) 97,37 %
17.02.2016 07:54 1,4 C 92 % 1020,5 hPa 0,0 l/m 27,4 km/h (4 Bft) O-NO 60 0 min 0,000 mm 0,0 UV-I 28 W/m 0,2 C -10,6 C 35,4 km/h (5 Bft) 96,30 %
17.02.2016 07:55 1,4 C 92 % 1020,6 hPa 0,0 l/m 30,3 km/h (5 Bft) O-NO 73 0 min 0,000 mm 0,0 UV-I 29 W/m 0,2 C -11,5 C 40,2 km/h (6 Bft) 96,15 %
17.02.2016 07:56 1,4 C 92 % 1020,5 hPa 0,0 l/m 40,2 km/h (6 Bft) O-NO 70 0 min 0,000 mm 0,0 UV-I 31 W/m 0,2 C -13,9 C 51,5 km/h (7 Bft) 100,00 %
17.02.2016 07:57 1,4 C 92 % 1020,4 hPa 0,0 l/m 33,2 km/h (5 Bft) O-NO 71 0 min 0,000 mm 0,0 UV-I 35 W/m 0,2 C -12,3 C 48,3 km/h (6 Bft) 100,00 %
17.02.2016 07:58 1,4 C 92 % 1020,4 hPa 0,0 l/m 27,0 km/h (4 Bft) O-NO 65 0 min 0,000 mm 0,0 UV-I 37 W/m 0,2 C -10,5 C 38,6 km/h (5 Bft) 96,30 %
17.02.2016 07:59 1,4 C 92 % 1020,4 hPa 0,0 l/m 30,6 km/h (5 Bft) NO 35 0 min 0,000 mm 0,0 UV-I 31 W/m 0,2 C -11,6 C 40,2 km/h (6 Bft) 100,00 %
17.02.2016 08:00 1,4 C 92 % 1020,4 hPa 0,0 l/m 35,5 km/h (5 Bft) O-NO 61 0 min 0,000 mm 0,0 UV-I 30 W/m 0,2 C -12,9 C 48,3 km/h (6 Bft) 100,00 %
17.02.2016 08:02 1,4 C 92 % 1020,1 hPa 0,0 l/m 36,1 km/h (5 Bft) O-NO 74 0 min 0,025 mm 0,0 UV-I 32 W/m 0,2 C -13,0 C 49,9 km/h (6 Bft) 97,73 %
17.02.2016 08:03 1,4 C 92 % 1020,3 hPa 0,0 l/m 30,0 km/h (5 Bft) O 90 0 min 0,000 mm 0,0 UV-I 30 W/m 0,2 C -11,4 C 40,2 km/h (6 Bft) 100,00 %
17.02.2016 08:04 1,4 C 92 % 1020,4 hPa 0,0 l/m 35,0 km/h (5 Bft) O 82 0 min 0,000 mm 0,0 UV-I 31 W/m 0,2 C -12,8 C 53,1 km/h (7 Bft) 100,00 %
17.02.2016 08:05 1,4 C 92 % 1020,2 hPa 0,0 l/m 36,0 km/h (5 Bft) O 80 0 min 0,000 mm 0,0 UV-I 29 W/m 0,2 C -13,0 C 48,3 km/h (6 Bft) 100,00 %
17.02.2016 08:06 1,4 C 92 % 1020,2 hPa 0,0 l/m 40,0 km/h (6 Bft) O-NO 59 0 min 0,000 mm 0,0 UV-I 29 W/m 0,2 C -13,9 C 51,5 km/h (7 Bft) 100,00 %
17.02.2016 08:07 1,4 C 92 % 1020,2 hPa 0,0 l/m 38,4 km/h (5 Bft) O-NO 58 0 min 0,000 mm 0,0 UV-I 32 W/m 0,2 C -13,5 C 56,3 km/h (7 Bft) 95,65 %
17.02.2016 08:08 1,4 C 92 % 1020,2 hPa 0,0 l/m 37,4 km/h (5 Bft) O-NO 62 0 min 0,000 mm 0,0 UV-I 33 W/m 0,2 C -13,3 C 49,9 km/h (6 Bft) 100,00 %
17.02.2016 08:09 1,4 C 92 % 1020,1 hPa 0,0 l/m 36,3 km/h (5 Bft) O-NO 58 0 min 0,000 mm 0,0 UV-I 34 W/m 0,2 C -13,1 C 51,5 km/h (7 Bft) 100,00 %
17.02.2016 08:10 1,4 C 92 % 1020,0 hPa 0,0 l/m 37,1 km/h (5 Bft) O 92 0 min 0,000 mm 0,0 UV-I 36 W/m 0,2 C -13,2 C 48,3 km/h (6 Bft) 91,67 %
17.02.2016 08:11 1,4 C 92 % 1020,0 hPa 0,0 l/m 35,6 km/h (5 Bft) NO 53 0 min 0,000 mm 0,0 UV-I 33 W/m 0,2 C -12,9 C 48,3 km/h (6 Bft) 100,00 %
17.02.2016 08:12 1,5 C 92 % 1020,0 hPa 0,0 l/m 38,9 km/h (6 Bft) O 82 0 min 0,000 mm 0,0 UV-I 33 W/m 0,3 C -13,5 C 48,3 km/h (6 Bft) 100,00 %
17.02.2016 08:13 1,4 C 92 % 1020,0 hPa 0,0 l/m 44,6 km/h (6 Bft) O 82 0 min 0,000 mm 0,0 UV-I 32 W/m 0,2 C -14,7 C 59,5 km/h (7 Bft) 100,00 %
17.02.2016 08:14 1,5 C 92 % 1019,9 hPa 0,0 l/m 44,0 km/h (6 Bft) O-NO 73 0 min 0,000 mm 0,0 UV-I 33 W/m 0,3 C -14,4 C 56,3 km/h (7 Bft) 100,00 %
17.02.2016 08:15 1,5 C 92 % 1019,8 hPa 0,0 l/m 44,7 km/h (6 Bft) O-NO 67 0 min 0,000 mm 0,0 UV-I 33 W/m 0,3 C -14,6 C 53,1 km/h (7 Bft) 100,00 %
17.02.2016 08:16 1,5 C 92 % 1019,7 hPa 0,0 l/m 39,7 km/h (6 Bft) NO 42 0 min 0,000 mm 0,0 UV-I 32 W/m 0,3 C -13,7 C 53,1 km/h (7 Bft) 96,15 %
17.02.2016 08:17 1,5 C 92 % 1019,7 hPa 0,0 l/m 42,5 km/h (6 Bft) O-NO 75 0 min 0,000 mm 0,0 UV-I 34 W/m 0,3 C -14,2 C 51,5 km/h (7 Bft) 100,00 %
17.02.2016 08:18 1,5 C 92 % 1019,7 hPa 0,0 l/m 36,1 km/h (5 Bft) O-NO 67 0 min 0,000 mm 0,0 UV-I 33 W/m 0,3 C -12,9 C 46,7 km/h (6 Bft) 100,00 %
17.02.2016 08:19 1,5 C 92 % 1019,6 hPa 0,0 l/m 38,0 km/h (5 Bft) O-NO 68 0 min 0,000 mm 0,0 UV-I 35 W/m 0,3 C -13,3 C 53,1 km/h (7 Bft) 100,00 %
17.02.2016 08:20 1,5 C 92 % 1019,7 hPa 0,0 l/m 41,0 km/h (6 Bft) O-NO 63 0 min 0,000 mm 0,0 UV-I 37 W/m 0,3 C -13,9 C 54,7 km/h (7 Bft) 100,00 %
17.02.2016 08:21 1,5 C 92 % 1019,7 hPa 0,0 l/m 43,4 km/h (6 Bft) O-NO 69 0 min 0,000 mm 0,0 UV-I 38 W/m 0,3 C -14,3 C 57,9 km/h (7 Bft) 100,00 %
17.02.2016 08:22 1,5 C 92 % 1019,6 hPa 0,0 l/m 41,0 km/h (6 Bft) O-NO 69 0 min 0,000 mm 0,0 UV-I 35 W/m 0,3 C -13,9 C 54,7 km/h (7 Bft) 96,15 %
17.02.2016 08:23 1,5 C 93 % 1019,6 hPa 0,0 l/m 40,3 km/h (6 Bft) O-NO 63 0 min 0,000 mm 0,0 UV-I 35 W/m 0,5 C -13,8 C 51,5 km/h (7 Bft) 100,00 %
17.02.2016 08:24 1,5 C 93 % 1019,6 hPa 0,0 l/m 34,6 km/h (5 Bft) O-NO 78 0 min 0,000 mm 0,0 UV-I 34 W/m 0,5 C -12,5 C 46,7 km/h (6 Bft) 96,55 %
17.02.2016 08:25 1,5 C 93 % 1019,5 hPa 0,0 l/m 36,2 km/h (5 Bft) O-NO 78 0 min 0,000 mm 0,0 UV-I 38 W/m 0,5 C -12,9 C 48,3 km/h (6 Bft) 100,00 %
17.02.2016 08:26 1,5 C 93 % 1019,3 hPa 0,0 l/m 43,5 km/h (6 Bft) O-NO 62 0 min 0,000 mm 0,0 UV-I 41 W/m 0,5 C -14,4 C 57,9 km/h (7 Bft) 100,00 %
17.02.2016 08:27 1,5 C 93 % 1019,3 hPa 0,0 l/m 44,1 km/h (6 Bft) O-NO 67 0 min 0,000 mm 0,0 UV-I 41 W/m 0,5 C -14,5 C 54,7 km/h (7 Bft) 100,00 %
17.02.2016 08:28 1,5 C 93 % 1019,3 hPa 0,0 l/m 43,5 km/h (6 Bft) NO 53 0 min 0,000 mm 0,0 UV-I 42 W/m 0,5 C -14,4 C 57,9 km/h (7 Bft) 100,00 %
17.02.2016 08:29 1,5 C 93 % 1019,3 hPa 0,0 l/m 44,3 km/h (6 Bft) O-NO 74 0 min 0,000 mm 0,0 UV-I 46 W/m 0,5 C -14,5 C 56,3 km/h (7 Bft) 100,00 %
17.02.2016 08:30 1,5 C 93 % 1019,2 hPa 0,0 l/m 46,5 km/h (6 Bft) NO 53 0 min 0,000 mm 0,0 UV-I 42 W/m 0,5 C -14,9 C 66,0 km/h (8 Bft) 100,00 %
17.02.2016 08:31 1,5 C 93 % 1019,1 hPa 0,0 l/m 41,0 km/h (6 Bft) O-NO 64 0 min 0,000 mm 0,0 UV-I 41 W/m 0,5 C -13,9 C 49,9 km/h (6 Bft) 100,00 %
17.02.2016 08:32 1,5 C 93 % 1019,1 hPa 0,0 l/m 38,6 km/h (5 Bft) O-NO 78 0 min 0,000 mm 0,0 UV-I 39 W/m 0,5 C -13,4 C 48,3 km/h (6 Bft) 100,00 %
17.02.2016 08:33 1,5 C 93 % 1019,1 hPa 0,0 l/m 38,1 km/h (5 Bft) O-NO 61 0 min 0,000 mm 0,0 UV-I 39 W/m 0,5 C -13,3 C 48,3 km/h (6 Bft) 100,00 %
17.02.2016 08:34 1,5 C 93 % 1019,0 hPa 0,0 l/m 37,6 km/h (5 Bft) O-NO 74 0 min 0,000 mm 0,0 UV-I 43 W/m 0,5 C -13,2 C 49,9 km/h (6 Bft) 100,00 %
17.02.2016 08:35 1,5 C 93 % 1019,1 hPa 0,0 l/m 39,8 km/h (6 Bft) O-NO 59 0 min 0,000 mm 0,0 UV-I 47 W/m 0,5 C -13,7 C 53,1 km/h (7 Bft) 100,00 %
17.02.2016 08:36 1,6 C 93 % 1019,1 hPa 0,0 l/m 38,5 km/h (5 Bft) O 79 0 min 0,000 mm 0,0 UV-I 44 W/m 0,6 C -13,3 C 51,5 km/h (7 Bft) 100,00 %
17.02.2016 08:37 1,5 C 93 % 1019,1 hPa 0,0 l/m 39,5 km/h (6 Bft) O-NO 63 0 min 0,000 mm 0,0 UV-I 41 W/m 0,5 C -13,6 C 54,7 km/h (7 Bft) 100,00 %
17.02.2016 08:38 1,6 C 93 % 1019,1 hPa 0,0 l/m 33,7 km/h (5 Bft) NO 56 0 min 0,000 mm 0,0 UV-I 40 W/m 0,6 C -12,2 C 43,5 km/h (6 Bft) 100,00 %
17.02.2016 08:39 1,6 C 93 % 1019,1 hPa 0,0 l/m 40,9 km/h (6 Bft) O-NO 74 0 min 0,000 mm 0,0 UV-I 42 W/m 0,6 C -13,7 C 54,7 km/h (7 Bft) 96,15 %
17.02.2016 08:40 1,6 C 93 % 1018,9 hPa 0,0 l/m 36,4 km/h (5 Bft) NO 56 0 min 0,000 mm 0,0 UV-I 44 W/m 0,6 C -12,8 C 45,1 km/h (6 Bft) 100,00 %
17.02.2016 08:41 1,6 C 93 % 1018,9 hPa 0,0 l/m 36,8 km/h (5 Bft) O-NO 59 0 min 0,000 mm 0,0 UV-I 47 W/m 0,6 C -12,9 C 51,5 km/h (7 Bft) 92,86 %
17.02.2016 08:42 1,6 C 93 % 1018,9 hPa 0,0 l/m 33,3 km/h (5 Bft) O-NO 57 0 min 0,000 mm 0,0 UV-I 45 W/m 0,6 C -12,1 C 46,7 km/h (6 Bft) 100,00 %
17.02.2016 08:43 1,6 C 93 % 1018,9 hPa 0,0 l/m 38,0 km/h (5 Bft) O-NO 65 0 min 0,000 mm 0,0 UV-I 50 W/m 0,6 C -13,2 C 49,9 km/h (6 Bft) 100,00 %
17.02.2016 08:44 1,6 C 93 % 1018,9 hPa 0,0 l/m 42,3 km/h (6 Bft) O-NO 63 0 min 0,000 mm 0,0 UV-I 53 W/m 0,6 C -14,0 C 57,9 km/h (7 Bft) 100,00 %
17.02.2016 08:45 1,6 C 93 % 1018,9 hPa 0,0 l/m 38,6 km/h (5 Bft) NO 37 0 min 0,000 mm 0,0 UV-I 55 W/m 0,6 C -13,3 C 48,3 km/h (6 Bft) 95,65 %
17.02.2016 08:46 1,6 C 93 % 1018,9 hPa 0,0 l/m 31,5 km/h (5 Bft) O-NO 59 0 min 0,000 mm 0,0 UV-I 54 W/m 0,6 C -11,6 C 40,2 km/h (6 Bft) 100,00 %
17.02.2016 08:47 1,6 C 93 % 1018,9 hPa 0,0 l/m 31,3 km/h (5 Bft) O-NO 57 0 min 0,000 mm 0,0 UV-I 50 W/m 0,6 C -11,5 C 41,8 km/h (6 Bft) 100,00 %
17.02.2016 08:48 1,6 C 93 % 1018,8 hPa 0,0 l/m 29,9 km/h (5 Bft) NO 40 0 min 0,000 mm 0,0 UV-I 45 W/m 0,6 C -11,1 C 35,4 km/h (5 Bft) 100,00 %
17.02.2016 08:49 1,7 C 93 % 1019,0 hPa 0,0 l/m 35,9 km/h (5 Bft) O-NO 74 0 min 0,000 mm 0,0 UV-I 48 W/m 0,7 C -12,5 C 45,1 km/h (6 Bft) 100,00 %
17.02.2016 08:50 1,7 C 93 % 1018,9 hPa 0,0 l/m 38,4 km/h (5 Bft) NO 46 0 min 0,000 mm 0,0 UV-I 48 W/m 0,7 C -13,1 C 53,1 km/h (7 Bft) 95,65 %
17.02.2016 08:51 1,7 C 93 % 1019,0 hPa 0,0 l/m 32,7 km/h (5 Bft) NO 34 0 min 0,000 mm 0,0 UV-I 49 W/m 0,7 C -11,8 C 46,7 km/h (6 Bft) 100,00 %
17.02.2016 08:52 1,7 C 93 % 1018,8 hPa 0,0 l/m 40,6 km/h (6 Bft) NO 48 0 min 0,000 mm 0,0 UV-I 55 W/m 0,7 C -13,5 C 56,3 km/h (7 Bft) 100,00 %
17.02.2016 08:53 1,7 C 93 % 1018,9 hPa 0,0 l/m 34,0 km/h (5 Bft) O 87 0 min 0,000 mm 0,0 UV-I 54 W/m 0,7 C -12,1 C 46,7 km/h (6 Bft) 100,00 %
17.02.2016 08:54 1,7 C 93 % 1019,1 hPa 0,0 l/m 28,9 km/h (5 Bft) O 87 0 min 0,000 mm 0,0 UV-I 58 W/m 0,7 C -10,7 C 37,0 km/h (5 Bft) 100,00 %
17.02.2016 08:55 1,7 C 93 % 1019,0 hPa 0,0 l/m 37,9 km/h (5 Bft) O-NO 62 0 min 0,000 mm 0,0 UV-I 58 W/m 0,7 C -13,0 C 49,9 km/h (6 Bft) 96,67 %
17.02.2016 08:56 1,7 C 93 % 1018,9 hPa 0,0 l/m 41,1 km/h (6 Bft) O-NO 71 0 min 0,000 mm 0,0 UV-I 57 W/m 0,7 C -13,6 C 49,9 km/h (6 Bft) 92,31 %
17.02.2016 08:57 1,7 C 93 % 1018,9 hPa 0,0 l/m 35,6 km/h (5 Bft) O 93 0 min 0,000 mm 0,0 UV-I 62 W/m 0,7 C -12,5 C 45,1 km/h (6 Bft) 100,00 %
17.02.2016 08:58 1,7 C 93 % 1019,0 hPa 0,0 l/m 31,9 km/h (5 Bft) O 87 0 min 0,000 mm 0,0 UV-I 60 W/m 0,7 C -11,5 C 45,1 km/h (6 Bft) 100,00 %
17.02.2016 08:59 1,7 C 93 % 1019,0 hPa 0,0 l/m 29,7 km/h (5 Bft) O-NO 70 0 min 0,000 mm 0,0 UV-I 50 W/m 0,7 C -10,9 C 41,8 km/h (6 Bft) 100,00 %
17.02.2016 09:00 1,7 C 93 % 1019,0 hPa 0,0 l/m 30,9 km/h (5 Bft) NO 55 0 min 0,026 mm 0,0 UV-I 45 W/m 0,7 C -11,3 C 40,2 km/h (6 Bft) 100,00 %
17.02.2016 09:02 1,8 C 93 % 1019,1 hPa 0,0 l/m 25,8 km/h (4 Bft) NO 34 0 min 0,000 mm 0,0 UV-I 44 W/m 0,8 C -9,6 C 35,4 km/h (5 Bft) 97,73 %
17.02.2016 09:03 1,8 C 93 % 1019,1 hPa 0,0 l/m 30,3 km/h (5 Bft) O-NO 70 0 min 0,000 mm 0,0 UV-I 43 W/m 0,8 C -11,0 C 46,7 km/h (6 Bft) 100,00 %
17.02.2016 09:04 1,8 C 93 % 1019,1 hPa 0,0 l/m 28,9 km/h (5 Bft) O-NO 64 0 min 0,000 mm 0,0 UV-I 42 W/m 0,8 C -10,6 C 38,6 km/h (5 Bft) 100,00 %
17.02.2016 09:05 1,8 C 93 % 1019,0 hPa 0,0 l/m 37,7 km/h (5 Bft) NO 49 0 min 0,000 mm 0,0 UV-I 39 W/m 0,8 C -12,8 C 46,7 km/h (6 Bft) 98,68 %
17.02.2016 09:06 1,8 C 93 % 1019,0 hPa 0,0 l/m 33,3 km/h (5 Bft) O 82 0 min 0,000 mm 0,0 UV-I 36 W/m 0,8 C -11,8 C 45,1 km/h (6 Bft) 93,62 %
17.02.2016 09:07 1,8 C 93 % 1019,2 hPa 0,0 l/m 30,7 km/h (5 Bft) O-SO 120 0 min 0,000 mm 0,0 UV-I 37 W/m 0,8 C -11,1 C 38,6 km/h (5 Bft) 100,00 %
17.02.2016 09:08 1,8 C 93 % 1019,1 hPa 0,0 l/m 27,5 km/h (4 Bft) O-NO 74 0 min 0,000 mm 0,0 UV-I 36 W/m 0,8 C -10,1 C 37,0 km/h (5 Bft) 100,00 %
17.02.2016 09:09 1,8 C 93 % 1019,1 hPa 0,0 l/m 31,3 km/h (5 Bft) O 92 0 min 0,000 mm 0,0 UV-I 33 W/m 0,8 C -11,2 C 41,8 km/h (6 Bft) 100,00 %
17.02.2016 09:10 1,8 C 93 % 1019,0 hPa 0,0 l/m 35,5 km/h (5 Bft) O-NO 77 0 min 0,000 mm 0,0 UV-I 39 W/m 0,8 C -12,3 C 45,1 km/h (6 Bft) 100,00 %
17.02.2016 09:11 1,8 C 93 % 1018,9 hPa 0,0 l/m 34,1 km/h (5 Bft) O-NO 69 0 min 0,000 mm 0,0 UV-I 42 W/m 0,8 C -12,0 C 43,5 km/h (6 Bft) 100,00 %
17.02.2016 09:12 1,8 C 92 % 1019,0 hPa 0,0 l/m 35,9 km/h (5 Bft) O-NO 68 0 min 0,000 mm 0,0 UV-I 39 W/m 0,6 C -12,4 C 45,1 km/h (6 Bft) 100,00 %
17.02.2016 09:13 1,8 C 92 % 1019,0 hPa 0,0 l/m 29,8 km/h (5 Bft) O-NO 72 0 min 0,000 mm 0,0 UV-I 42 W/m 0,6 C -10,8 C 38,6 km/h (5 Bft) 100,00 %
17.02.2016 09:14 1,8 C 92 % 1018,9 hPa 0,0 l/m 30,2 km/h (5 Bft) O-NO 58 0 min 0,000 mm 0,0 UV-I 45 W/m 0,6 C -10,9 C 37,0 km/h (5 Bft) 96,30 %
17.02.2016 09:15 1,9 C 92 % 1018,9 hPa 0,0 l/m 36,1 km/h (5 Bft) NO 34 0 min 0,000 mm 0,0 UV-I 44 W/m 0,7 C -12,3 C 48,3 km/h (6 Bft) 100,00 %
17.02.2016 09:16 1,9 C 92 % 1018,8 hPa 0,0 l/m 27,5 km/h (4 Bft) O 88 0 min 0,000 mm 0,0 UV-I 44 W/m 0,7 C -10,0 C 40,2 km/h (6 Bft) 96,67 %
17.02.2016 09:17 1,9 C 92 % 1018,8 hPa 0,0 l/m 28,9 km/h (5 Bft) O-NO 78 0 min 0,000 mm 0,0 UV-I 42 W/m 0,7 C -10,4 C 41,8 km/h (6 Bft) 100,00 %
17.02.2016 09:18 1,9 C 92 % 1018,8 hPa 0,0 l/m 35,9 km/h (5 Bft) O-NO 74 0 min 0,000 mm 0,0 UV-I 45 W/m 0,7 C -12,2 C 53,1 km/h (7 Bft) 100,00 %
17.02.2016 09:19 1,9 C 93 % 1018,8 hPa 0,0 l/m 30,2 km/h (5 Bft) O 79 0 min 0,000 mm 0,0 UV-I 47 W/m 0,9 C -10,8 C 41,8 km/h (6 Bft) 100,00 %
17.02.2016 09:20 1,9 C 93 % 1018,8 hPa 0,0 l/m 25,4 km/h (4 Bft) O 84 0 min 0,000 mm 0,0 UV-I 51 W/m 0,9 C -9,3 C 32,2 km/h (5 Bft) 100,00 %
17.02.2016 09:21 1,9 C 93 % 1018,6 hPa 0,0 l/m 34,2 km/h (5 Bft) O-NO 74 0 min 0,000 mm 0,0 UV-I 54 W/m 0,9 C -11,8 C 45,1 km/h (6 Bft) 100,00 %
17.02.2016 09:22 1,9 C 93 % 1018,5 hPa 0,0 l/m 31,3 km/h (5 Bft) O 80 0 min 0,000 mm 0,0 UV-I 54 W/m 0,9 C -11,1 C 38,6 km/h (5 Bft) 100,00 %
17.02.2016 09:23 1,9 C 93 % 1018,6 hPa 0,0 l/m 26,0 km/h (4 Bft) O-NO 76 0 min 0,000 mm 0,0 UV-I 55 W/m 0,9 C -9,5 C 35,4 km/h (5 Bft) 100,00 %
17.02.2016 09:24 1,9 C 93 % 1018,5 hPa 0,0 l/m 25,2 km/h (4 Bft) O-NO 59 0 min 0,000 mm 0,0 UV-I 59 W/m 0,9 C -9,2 C 32,2 km/h (5 Bft) 100,00 %
17.02.2016 09:25 1,9 C 93 % 1018,5 hPa 0,0 l/m 26,7 km/h (4 Bft) NO 56 0 min 0,000 mm 0,0 UV-I 61 W/m 0,9 C -9,7 C 33,8 km/h (5 Bft) 91,67 %
17.02.2016 09:26 1,9 C 93 % 1018,5 hPa 0,0 l/m 35,2 km/h (5 Bft) O-NO 76 0 min 0,000 mm 0,0 UV-I 65 W/m 0,9 C -12,1 C 54,7 km/h (7 Bft) 100,00 %
17.02.2016 09:27 2,0 C 92 % 1018,5 hPa 0,0 l/m 41,5 km/h (6 Bft) NO 47 0 min 0,000 mm 0,0 UV-I 69 W/m 0,8 C -13,3 C 49,9 km/h (6 Bft) 96,55 %
17.02.2016 09:28 2,0 C 92 % 1018,4 hPa 0,0 l/m 31,0 km/h (5 Bft) O 92 0 min 0,000 mm 0,0 UV-I 74 W/m 0,8 C -10,9 C 43,5 km/h (6 Bft) 100,00 %
17.02.2016 09:29 2,0 C 92 % 1018,3 hPa 0,0 l/m 33,2 km/h (5 Bft) O-NO 64 0 min 0,000 mm 0,0 UV-I 78 W/m 0,8 C -11,5 C 49,9 km/h (6 Bft) 96,30 %
17.02.2016 09:30 2,0 C 92 % 1018,3 hPa 0,0 l/m 33,1 km/h (5 Bft) O-NO 65 0 min 0,000 mm 0,0 UV-I 81 W/m 0,8 C -11,4 C 40,2 km/h (6 Bft) 96,15 %
17.02.2016 09:31 2,1 C 92 % 1018,3 hPa 0,0 l/m 32,5 km/h (5 Bft) O-NO 60 0 min 0,000 mm 0,0 UV-I 78 W/m 0,9 C -11,1 C 38,6 km/h (5 Bft) 100,00 %
17.02.2016 09:32 2,1 C 92 % 1018,3 hPa 0,0 l/m 41,6 km/h (6 Bft) O-NO 78 0 min 0,000 mm 0,0 UV-I 80 W/m 0,9 C -13,1 C 49,9 km/h (6 Bft) 92,59 %
17.02.2016 09:33 2,1 C 92 % 1018,2 hPa 0,0 l/m 36,7 km/h (5 Bft) O-NO 74 0 min 0,000 mm 0,0 UV-I 89 W/m 0,9 C -12,1 C 49,9 km/h (6 Bft) 100,00 %
17.02.2016 09:34 2,1 C 92 % 1018,1 hPa 0,0 l/m 33,8 km/h (5 Bft) O 86 0 min 0,000 mm 0,0 UV-I 87 W/m 0,9 C -11,5 C 48,3 km/h (6 Bft) 95,65 %
17.02.2016 09:35 2,1 C 92 % 1018,2 hPa 0,0 l/m 39,2 km/h (6 Bft) O 84 0 min 0,000 mm 0,0 UV-I 94 W/m 0,9 C -12,7 C 49,9 km/h (6 Bft) 100,00 %
17.02.2016 09:36 2,1 C 92 % 1018,1 hPa 0,0 l/m 39,8 km/h (6 Bft) O-NO 63 0 min 0,000 mm 0,0 UV-I 95 W/m 0,9 C -12,8 C 53,1 km/h (7 Bft) 92,86 %
17.02.2016 09:37 2,2 C 92 % 1017,9 hPa 0,0 l/m 39,9 km/h (6 Bft) NO 51 0 min 0,000 mm 0,0 UV-I 86 W/m 1,0 C -12,7 C 49,9 km/h (6 Bft) 100,00 %
17.02.2016 09:38 2,2 C 92 % 1017,9 hPa 0,0 l/m 32,9 km/h (5 Bft) O 95 0 min 0,000 mm 0,0 UV-I 89 W/m 1,0 C -11,1 C 45,1 km/h (6 Bft) 96,55 %
17.02.2016 09:39 2,2 C 92 % 1018,0 hPa 0,0 l/m 35,3 km/h (5 Bft) O-NO 71 0 min 0,000 mm 0,0 UV-I 95 W/m 1,0 C -11,7 C 49,9 km/h (6 Bft) 100,00 %
17.02.2016 09:40 2,2 C 92 % 1017,9 hPa 0,0 l/m 29,9 km/h (5 Bft) O-NO 71 0 min 0,000 mm 0,0 UV-I 93 W/m 1,0 C -10,3 C 38,6 km/h (5 Bft) 96,15 %
17.02.2016 09:41 2,2 C 92 % 1017,8 hPa 0,0 l/m 38,7 km/h (5 Bft) O-NO 57 0 min 0,000 mm 0,0 UV-I 96 W/m 1,0 C -12,4 C 59,5 km/h (7 Bft) 96,30 %
17.02.2016 09:42 2,2 C 92 % 1017,8 hPa 0,0 l/m 35,2 km/h (5 Bft) O-NO 78 0 min 0,000 mm 0,0 UV-I 98 W/m 1,0 C -11,7 C 43,5 km/h (6 Bft) 100,00 %
17.02.2016 09:43 2,3 C 92 % 1017,8 hPa 0,0 l/m 41,8 km/h (6 Bft) O-NO 63 0 min 0,000 mm 0,0 UV-I 95 W/m 1,1 C -12,9 C 57,9 km/h (7 Bft) 93,10 %
17.02.2016 09:44 2,3 C 91 % 1017,8 hPa 0,0 l/m 37,4 km/h (5 Bft) O-NO 78 0 min 0,000 mm 0,0 UV-I 86 W/m 1,0 C -12,0 C 51,5 km/h (7 Bft) 100,00 %
17.02.2016 09:45 2,3 C 91 % 1017,8 hPa 0,0 l/m 37,4 km/h (5 Bft) NO 54 0 min 0,000 mm 0,0 UV-I 84 W/m 1,0 C -12,0 C 48,3 km/h (6 Bft) 96,55 %
17.02.2016 09:46 2,3 C 92 % 1017,7 hPa 0,0 l/m 30,6 km/h (5 Bft) O-NO 66 0 min 0,000 mm 0,0 UV-I 87 W/m 1,1 C -10,3 C 40,2 km/h (6 Bft) 100,00 %
17.02.2016 09:47 2,3 C 92 % 1017,7 hPa 0,0 l/m 30,3 km/h (5 Bft) O-NO 67 0 min 0,000 mm 0,0 UV-I 84 W/m 1,1 C -10,3 C 40,2 km/h (6 Bft) 97,56 %
17.02.2016 09:48 2,3 C 92 % 1017,7 hPa 0,0 l/m 33,3 km/h (5 Bft) NO 51 0 min 0,000 mm 0,0 UV-I 82 W/m 1,1 C -11,0 C 41,8 km/h (6 Bft) 95,65 %
17.02.2016 09:49 2,3 C 92 % 1017,7 hPa 0,0 l/m 25,2 km/h (4 Bft) O-NO 69 0 min 0,000 mm 0,0 UV-I 86 W/m 1,1 C -8,7 C 38,6 km/h (5 Bft) 100,00 %
17.02.2016 09:50 2,4 C 91 % 1017,6 hPa 0,0 l/m 30,8 km/h (5 Bft) O-NO 65 0 min 0,000 mm 0,0 UV-I 95 W/m 1,1 C -10,3 C 37,0 km/h (5 Bft) 93,94 %
17.02.2016 09:51 2,4 C 92 % 1017,7 hPa 0,0 l/m 31,8 km/h (5 Bft) O-NO 76 0 min 0,000 mm 0,0 UV-I 98 W/m 1,2 C -10,5 C 45,1 km/h (6 Bft) 100,00 %
17.02.2016 09:52 2,4 C 91 % 1017,6 hPa 0,0 l/m 32,7 km/h (5 Bft) O-NO 72 0 min 0,000 mm 0,0 UV-I 102 W/m 1,1 C -10,8 C 46,7 km/h (6 Bft) 96,67 %
17.02.2016 09:53 2,4 C 91 % 1017,6 hPa 0,0 l/m 38,6 km/h (5 Bft) O-NO 74 0 min 0,000 mm 0,0 UV-I 100 W/m 1,1 C -12,1 C 48,3 km/h (6 Bft) 100,00 %
17.02.2016 09:54 2,4 C 91 % 1017,6 hPa 0,0 l/m 31,9 km/h (5 Bft) NO 52 0 min 0,000 mm 0,0 UV-I 99 W/m 1,1 C -10,5 C 46,7 km/h (6 Bft) 95,83 %
17.02.2016 09:55 2,4 C 91 % 1017,6 hPa 0,0 l/m 34,8 km/h (5 Bft) O-NO 63 0 min 0,000 mm 0,0 UV-I 99 W/m 1,1 C -11,3 C 45,1 km/h (6 Bft) 98,56 %
17.02.2016 09:56 2,4 C 91 % 1017,6 hPa 0,0 l/m 31,4 km/h (5 Bft) O 98 0 min 0,000 mm 0,0 UV-I 107 W/m 1,1 C -10,4 C 43,5 km/h (6 Bft) 97,56 %
17.02.2016 09:57 2,4 C 91 % 1017,6 hPa 0,0 l/m 31,7 km/h (5 Bft) O-NO 69 0 min 0,000 mm 0,0 UV-I 99 W/m 1,1 C -10,5 C 45,1 km/h (6 Bft) 93,10 %
17.02.2016 09:58 2,5 C 91 % 1017,6 hPa 0,0 l/m 28,1 km/h (4 Bft) O-NO 60 0 min 0,000 mm 0,0 UV-I 98 W/m 1,2 C -9,3 C 33,8 km/h (5 Bft) 100,00 %
17.02.2016 09:59 2,5 C 91 % 1017,6 hPa 0,0 l/m 33,1 km/h (5 Bft) O-NO 63 0 min 0,000 mm 0,0 UV-I 108 W/m 1,2 C -10,7 C 45,1 km/h (6 Bft) 95,65 %
17.02.2016 10:00 2,5 C 91 % 1017,6 hPa 0,0 l/m 31,3 km/h (5 Bft) NO 47 0 min 0,050 mm 0,0 UV-I 112 W/m 1,2 C -10,2 C 40,2 km/h (6 Bft) 100,00 %
17.02.2016 10:01 2,6 C 91 % 1017,6 hPa 0,0 l/m 30,2 km/h (5 Bft) O-NO 70 0 min 0,000 mm 0,0 UV-I 112 W/m 1,3 C -9,8 C 38,6 km/h (5 Bft) 91,67 %
17.02.2016 10:02 2,6 C 91 % 1017,6 hPa 0,0 l/m 33,9 km/h (5 Bft) O-NO 69 0 min 0,000 mm 0,0 UV-I 113 W/m 1,3 C -10,8 C 45,1 km/h (6 Bft) 100,00 %
17.02.2016 10:03 2,6 C 91 % 1017,7 hPa 0,0 l/m 29,1 km/h (5 Bft) O-NO 64 0 min 0,000 mm 0,0 UV-I 108 W/m 1,3 C -9,5 C 40,2 km/h (6 Bft) 100,00 %
17.02.2016 10:04 2,6 C 91 % 1017,6 hPa 0,0 l/m 32,9 km/h (5 Bft) O-NO 73 0 min 0,000 mm 0,0 UV-I 106 W/m 1,3 C -10,5 C 38,6 km/h (5 Bft) 100,00 %
17.02.2016 10:05 2,6 C 91 % 1017,7 hPa 0,0 l/m 30,7 km/h (5 Bft) O 85 0 min 0,000 mm 0,0 UV-I 106 W/m 1,3 C -9,9 C 40,2 km/h (6 Bft) 100,00 %
17.02.2016 10:06 2,7 C 91 % 1017,6 hPa 0,0 l/m 32,8 km/h (5 Bft) O-NO 78 0 min 0,000 mm 0,0 UV-I 115 W/m 1,4 C -10,4 C 43,5 km/h (6 Bft) 96,30 %
17.02.2016 10:07 2,7 C 91 % 1017,6 hPa 0,0 l/m 36,1 km/h (5 Bft) O-NO 64 0 min 0,000 mm 0,0 UV-I 121 W/m 1,4 C -11,1 C 41,8 km/h (6 Bft) 100,00 %
17.02.2016 10:08 2,7 C 91 % 1017,6 hPa 0,0 l/m 29,8 km/h (5 Bft) O 95 0 min 0,000 mm 0,0 UV-I 120 W/m 1,4 C -9,6 C 46,7 km/h (6 Bft) 100,00 %
17.02.2016 10:09 2,7 C 91 % 1017,7 hPa 0,0 l/m 33,5 km/h (5 Bft) O-NO 65 0 min 0,000 mm 0,0 UV-I 120 W/m 1,4 C -10,5 C 40,2 km/h (6 Bft) 100,00 %
17.02.2016 10:10 2,7 C 91 % 1017,6 hPa 0,0 l/m 32,8 km/h (5 Bft) O-NO 69 0 min 0,000 mm 0,0 UV-I 118 W/m 1,4 C -10,4 C 38,6 km/h (5 Bft) 100,00 %
17.02.2016 10:11 2,7 C 91 % 1017,6 hPa 0,0 l/m 30,5 km/h (5 Bft) O-NO 61 0 min 0,000 mm 0,0 UV-I 108 W/m 1,4 C -9,7 C 45,1 km/h (6 Bft) 100,00 %
17.02.2016 10:12 2,7 C 91 % 1017,6 hPa 0,0 l/m 39,1 km/h (6 Bft) O-NO 62 0 min 0,000 mm 0,0 UV-I 113 W/m 1,4 C -11,8 C 49,9 km/h (6 Bft) 100,00 %
17.02.2016 10:13 2,8 C 90 % 1017,6 hPa 0,0 l/m 39,0 km/h (6 Bft) NO 52 0 min 0,000 mm 0,0 UV-I 134 W/m 1,3 C -11,6 C 46,7 km/h (6 Bft) 100,00 %
17.02.2016 10:14 2,8 C 90 % 1017,6 hPa 0,0 l/m 36,0 km/h (5 Bft) NO 51 0 min 0,000 mm 0,0 UV-I 132 W/m 1,3 C -11,0 C 43,5 km/h (6 Bft) 100,00 %
17.02.2016 10:15 2,8 C 90 % 1017,4 hPa 0,0 l/m 30,8 km/h (5 Bft) NO 55 0 min 0,000 mm 0,0 UV-I 129 W/m 1,3 C -9,7 C 43,5 km/h (6 Bft) 100,00 %
17.02.2016 10:16 2,8 C 90 % 1017,5 hPa 0,0 l/m 28,2 km/h (4 Bft) O-NO 58 0 min 0,000 mm 0,0 UV-I 144 W/m 1,3 C -8,9 C 35,4 km/h (5 Bft) 96,15 %
17.02.2016 10:17 2,8 C 91 % 1017,5 hPa 0,0 l/m 23,9 km/h (4 Bft) O 96 0 min 0,000 mm 0,0 UV-I 151 W/m 1,5 C -7,5 C 30,6 km/h (5 Bft) 100,00 %
17.02.2016 10:18 2,9 C 91 % 1017,5 hPa 0,0 l/m 37,2 km/h (5 Bft) NO 40 0 min 0,000 mm 0,0 UV-I 154 W/m 1,6 C -11,1 C 51,5 km/h (7 Bft) 100,00 %
17.02.2016 10:19 2,9 C 90 % 1017,4 hPa 0,0 l/m 38,6 km/h (5 Bft) O-NO 59 0 min 0,000 mm 0,0 UV-I 155 W/m 1,4 C -11,4 C 51,5 km/h (7 Bft) 100,00 %
17.02.2016 10:20 2,9 C 90 % 1017,4 hPa 0,0 l/m 35,1 km/h (5 Bft) O-NO 66 0 min 0,000 mm 0,4 UV-I 170 W/m 1,4 C -10,6 C 46,7 km/h (6 Bft) 92,86 %
17.02.2016 10:21 2,9 C 90 % 1017,3 hPa 0,0 l/m 37,5 km/h (5 Bft) O-NO 63 0 min 0,000 mm 0,5 UV-I 170 W/m 1,4 C -11,1 C 49,9 km/h (6 Bft) 100,00 %
17.02.2016 10:22 2,9 C 90 % 1017,2 hPa 0,0 l/m 37,0 km/h (5 Bft) O-NO 69 0 min 0,000 mm 0,1 UV-I 162 W/m 1,4 C -11,0 C 51,5 km/h (7 Bft) 100,00 %
17.02.2016 10:23 3,0 C 90 % 1017,2 hPa 0,0 l/m 39,7 km/h (6 Bft) O-NO 78 0 min 0,000 mm 0,5 UV-I 169 W/m 1,5 C -11,4 C 49,9 km/h (6 Bft) 100,00 %
17.02.2016 10:24 3,0 C 90 % 1017,3 hPa 0,0 l/m 36,4 km/h (5 Bft) O 99 0 min 0,000 mm 0,2 UV-I 159 W/m 1,5 C -10,8 C 46,7 km/h (6 Bft) 100,00 %
17.02.2016 10:25 3,0 C 90 % 1017,3 hPa 0,0 l/m 39,5 km/h (6 Bft) O-NO 76 0 min 0,000 mm 0,3 UV-I 162 W/m 1,5 C -11,4 C 51,5 km/h (7 Bft) 96,30 %
17.02.2016 10:26 3,0 C 90 % 1017,3 hPa 0,0 l/m 44,0 km/h (6 Bft) O-NO 75 0 min 0,000 mm 0,5 UV-I 167 W/m 1,5 C -12,2 C 56,3 km/h (7 Bft) 98,58 %
17.02.2016 10:27 3,0 C 90 % 1017,2 hPa 0,0 l/m 36,7 km/h (5 Bft) O-NO 66 0 min 0,000 mm 0,5 UV-I 173 W/m 1,5 C -10,8 C 48,3 km/h (6 Bft) 100,00 %
17.02.2016 10:28 3,1 C 90 % 1017,2 hPa 0,0 l/m 41,3 km/h (6 Bft) O-NO 58 0 min 0,000 mm 0,5 UV-I 178 W/m 1,6 C -11,6 C 56,3 km/h (7 Bft) 100,00 %
17.02.2016 10:29 3,1 C 90 % 1017,1 hPa 0,0 l/m 38,3 km/h (5 Bft) O 83 0 min 0,000 mm 0,5 UV-I 181 W/m 1,6 C -11,0 C 53,1 km/h (7 Bft) 100,00 %
17.02.2016 10:30 3,1 C 90 % 1017,0 hPa 0,0 l/m 39,0 km/h (6 Bft) O-NO 67 0 min 0,000 mm 0,5 UV-I 181 W/m 1,6 C -11,1 C 53,1 km/h (7 Bft) 100,00 %
17.02.2016 10:31 3,1 C 90 % 1017,0 hPa 0,0 l/m 36,5 km/h (5 Bft) O-NO 77 0 min 0,000 mm 0,5 UV-I 189 W/m 1,6 C -10,6 C 48,3 km/h (6 Bft) 100,00 %
17.02.2016 10:32 3,1 C 90 % 1017,0 hPa 0,0 l/m 32,3 km/h (5 Bft) O-NO 73 0 min 0,000 mm 0,5 UV-I 190 W/m 1,6 C -9,7 C 46,7 km/h (6 Bft) 100,00 %
17.02.2016 10:33 3,1 C 90 % 1017,0 hPa 0,0 l/m 34,3 km/h (5 Bft) O-NO 70 0 min 0,000 mm 0,5 UV-I 190 W/m 1,6 C -10,1 C 45,1 km/h (6 Bft) 100,00 %
17.02.2016 10:34 3,1 C 90 % 1017,0 hPa 0,0 l/m 43,1 km/h (6 Bft) O-NO 67 0 min 0,000 mm 0,5 UV-I 193 W/m 1,6 C -11,9 C 51,5 km/h (7 Bft) 100,00 %
17.02.2016 10:35 3,1 C 90 % 1016,9 hPa 0,0 l/m 39,2 km/h (6 Bft) O-NO 74 0 min 0,000 mm 0,5 UV-I 221 W/m 1,6 C -11,2 C 56,3 km/h (7 Bft) 100,00 %
17.02.2016 10:36 3,2 C 90 % 1016,9 hPa 0,0 l/m 44,6 km/h (6 Bft) O 91 0 min 0,000 mm 0,8 UV-I 239 W/m 1,7 C -12,0 C 54,7 km/h (7 Bft) 91,67 %
17.02.2016 10:37 3,2 C 90 % 1016,9 hPa 0,0 l/m 38,1 km/h (5 Bft) O-NO 63 1 min 0,000 mm 0,8 UV-I 403 W/m 1,7 C -10,8 C 46,7 km/h (6 Bft) 100,00 %
17.02.2016 10:38 3,3 C 90 % 1016,8 hPa 0,0 l/m 33,2 km/h (5 Bft) O-NO 76 1 min 0,000 mm 0,9 UV-I 468 W/m 1,8 C -9,6 C 51,5 km/h (7 Bft) 100,00 %
17.02.2016 10:39 3,4 C 90 % 1016,7 hPa 0,0 l/m 43,4 km/h (6 Bft) O-NO 71 1 min 0,000 mm 1,0 UV-I 646 W/m 1,9 C -11,5 C 57,9 km/h (7 Bft) 100,00 %
17.02.2016 10:40 3,4 C 90 % 1016,6 hPa 0,0 l/m 43,5 km/h (6 Bft) NO 54 1 min 0,000 mm 0,8 UV-I 599 W/m 1,9 C -11,5 C 54,7 km/h (7 Bft) 100,00 %
17.02.2016 10:41 3,5 C 90 % 1016,7 hPa 0,0 l/m 37,1 km/h (5 Bft) O-NO 72 1 min 0,000 mm 0,8 UV-I 472 W/m 2,0 C -10,2 C 48,3 km/h (6 Bft) 100,00 %
17.02.2016 10:42 3,6 C 89 % 1016,7 hPa 0,0 l/m 38,5 km/h (5 Bft) O-NO 68 1 min 0,000 mm 0,8 UV-I 309 W/m 2,0 C -10,3 C 48,3 km/h (6 Bft) 100,00 %
17.02.2016 10:43 3,6 C 89 % 1016,7 hPa 0,0 l/m 39,4 km/h (6 Bft) NO 44 1 min 0,000 mm 1,0 UV-I 348 W/m 2,0 C -10,5 C 57,9 km/h (7 Bft) 100,00 %
17.02.2016 10:44 3,6 C 89 % 1016,8 hPa 0,0 l/m 38,2 km/h (5 Bft) O 90 1 min 0,000 mm 0,9 UV-I 353 W/m 2,0 C -10,3 C 51,5 km/h (7 Bft) 100,00 %
17.02.2016 10:45 3,7 C 89 % 1016,7 hPa 0,0 l/m 41,0 km/h (6 Bft) NO 55 1 min 0,000 mm 0,9 UV-I 354 W/m 2,1 C -10,6 C 53,1 km/h (7 Bft) 100,00 %
17.02.2016 10:46 3,7 C 88 % 1016,7 hPa 0,0 l/m 35,3 km/h (5 Bft) O-NO 74 1 min 0,000 mm 0,9 UV-I 345 W/m 1,9 C -9,5 C 51,5 km/h (7 Bft) 100,00 %
17.02.2016 10:47 3,7 C 89 % 1016,8 hPa 0,0 l/m 32,3 km/h (5 Bft) O-NO 58 1 min 0,000 mm 1,0 UV-I 358 W/m 2,1 C -8,8 C 41,8 km/h (6 Bft) 100,00 %
17.02.2016 10:48 3,8 C 89 % 1016,8 hPa 0,0 l/m 32,7 km/h (5 Bft) O-NO 66 1 min 0,000 mm 0,9 UV-I 323 W/m 2,2 C -8,8 C 41,8 km/h (6 Bft) 95,65 %
17.02.2016 10:49 3,8 C 89 % 1016,7 hPa 0,0 l/m 29,8 km/h (5 Bft) NO 55 1 min 0,000 mm 0,9 UV-I 320 W/m 2,2 C -8,0 C 43,5 km/h (6 Bft) 100,00 %
17.02.2016 10:50 3,8 C 89 % 1016,7 hPa 0,0 l/m 32,8 km/h (5 Bft) O-NO 65 1 min 0,000 mm 1,0 UV-I 338 W/m 2,2 C -8,8 C 45,1 km/h (6 Bft) 100,00 %
17.02.2016 10:51 3,9 C 88 % 1016,6 hPa 0,0 l/m 39,5 km/h (6 Bft) O 80 1 min 0,000 mm 1,1 UV-I 361 W/m 2,1 C -10,1 C 51,5 km/h (7 Bft) 100,00 %
17.02.2016 10:52 3,9 C 88 % 1016,6 hPa 0,0 l/m 37,0 km/h (5 Bft) O-NO 78 1 min 0,000 mm 1,1 UV-I 634 W/m 2,1 C -9,6 C 46,7 km/h (6 Bft) 100,00 %
17.02.2016 10:53 4,1 C 89 % 1016,6 hPa 0,0 l/m 30,9 km/h (5 Bft) O-NO 62 1 min 0,000 mm 1,1 UV-I 631 W/m 2,5 C -7,9 C 41,8 km/h (6 Bft) 100,00 %
17.02.2016 10:54 4,2 C 89 % 1016,6 hPa 0,0 l/m 40,1 km/h (6 Bft) O-NO 78 1 min 0,000 mm 1,0 UV-I 571 W/m 2,6 C -9,7 C 57,9 km/h (7 Bft) 100,00 %
17.02.2016 10:55 4,2 C 88 % 1016,6 hPa 0,0 l/m 43,0 km/h (6 Bft) O-NO 76 1 min 0,000 mm 0,9 UV-I 543 W/m 2,4 C -10,2 C 57,9 km/h (7 Bft) 100,00 %
17.02.2016 10:56 4,2 C 87 % 1016,6 hPa 0,0 l/m 48,6 km/h (6 Bft) NO 48 1 min 0,000 mm 1,0 UV-I 543 W/m 2,2 C -11,0 C 59,5 km/h (7 Bft) 100,00 %
17.02.2016 10:57 4,2 C 87 % 1016,6 hPa 0,0 l/m 37,6 km/h (5 Bft) O-NO 68 1 min 0,000 mm 1,0 UV-I 543 W/m 2,2 C -9,3 C 46,7 km/h (6 Bft) 96,30 %
17.02.2016 10:58 4,2 C 87 % 1016,5 hPa 0,0 l/m 33,0 km/h (5 Bft) O-NO 57 1 min 0,000 mm 1,1 UV-I 543 W/m 2,2 C -8,3 C 49,9 km/h (6 Bft) 100,00 %
17.02.2016 10:59 4,3 C 87 % 1016,5 hPa 0,0 l/m 41,5 km/h (6 Bft) O 90 1 min 0,000 mm 1,1 UV-I 543 W/m 2,3 C -9,8 C 57,9 km/h (7 Bft) 100,00 %
17.02.2016 11:00 4,3 C 87 % 1016,5 hPa 0,0 l/m 36,0 km/h (5 Bft) NO 51 1 min 0,127 mm 1,1 UV-I 489 W/m 2,3 C -8,8 C 46,7 km/h (6 Bft) 100,00 %
17.02.2016 11:01 4,3 C 87 % 1016,4 hPa 0,0 l/m 42,8 km/h (6 Bft) O 82 1 min 0,000 mm 1,1 UV-I 473 W/m 2,3 C -10,0 C 56,3 km/h (7 Bft) 100,00 %
17.02.2016 11:02 4,3 C 87 % 1016,4 hPa 0,0 l/m 35,0 km/h (5 Bft) O-NO 63 1 min 0,000 mm 1,1 UV-I 467 W/m 2,3 C -8,6 C 45,1 km/h (6 Bft) 100,00 %
17.02.2016 11:03 4,3 C 87 % 1016,4 hPa 0,0 l/m 39,5 km/h (6 Bft) O-NO 65 1 min 0,000 mm 1,1 UV-I 454 W/m 2,3 C -9,5 C 51,5 km/h (7 Bft) 100,00 %
17.02.2016 11:04 4,3 C 87 % 1016,4 hPa 0,0 l/m 43,1 km/h (6 Bft) O-NO 65 1 min 0,000 mm 1,1 UV-I 440 W/m 2,3 C -10,1 C 53,1 km/h (7 Bft) 96,15 %
17.02.2016 11:05 4,3 C 86 % 1016,3 hPa 0,0 l/m 45,9 km/h (6 Bft) O-NO 68 1 min 0,000 mm 1,1 UV-I 466 W/m 2,2 C -10,5 C 59,5 km/h (7 Bft) 100,00 %
17.02.2016 11:06 4,4 C 87 % 1016,4 hPa 0,0 l/m 34,4 km/h (5 Bft) O-NO 71 1 min 0,000 mm 1,1 UV-I 474 W/m 2,4 C -8,3 C 46,7 km/h (6 Bft) 100,00 %
17.02.2016 11:07 4,4 C 87 % 1016,5 hPa 0,0 l/m 35,4 km/h (5 Bft) O 79 1 min 0,000 mm 1,2 UV-I 465 W/m 2,4 C -8,5 C 43,5 km/h (6 Bft) 100,00 %
17.02.2016 11:08 4,4 C 87 % 1016,5 hPa 0,0 l/m 41,8 km/h (6 Bft) O-NO 64 1 min 0,000 mm 0,9 UV-I 370 W/m 2,4 C -9,7 C 51,5 km/h (7 Bft) 100,00 %
17.02.2016 11:09 4,4 C 86 % 1016,5 hPa 0,0 l/m 44,4 km/h (6 Bft) NO 41 0 min 0,000 mm 0,8 UV-I 88 W/m 2,3 C -10,1 C 56,3 km/h (7 Bft) 100,00 %
17.02.2016 11:10 4,4 C 85 % 1016,5 hPa 0,0 l/m 32,2 km/h (5 Bft) O-NO 77 0 min 0,000 mm 0,7 UV-I 73 W/m 2,1 C -7,8 C 45,1 km/h (6 Bft) 96,30 %
17.02.2016 11:11 4,3 C 86 % 1016,5 hPa 0,0 l/m 34,4 km/h (5 Bft) O-NO 74 0 min 0,000 mm 0,8 UV-I 117 W/m 2,2 C -8,4 C 51,5 km/h (7 Bft) 100,00 %
17.02.2016 11:12 4,3 C 86 % 1016,6 hPa 0,0 l/m 49,9 km/h (6 Bft) O-SO 107 0 min 0,000 mm 0,8 UV-I 145 W/m 2,2 C -11,1 C 56,3 km/h (7 Bft) 100,00 %
17.02.2016 11:13 4,2 C 86 % 1016,5 hPa 0,0 l/m 41,9 km/h (6 Bft) O-NO 65 0 min 0,000 mm 1,0 UV-I 146 W/m 2,1 C -10,0 C 49,9 km/h (6 Bft) 96,55 %
17.02.2016 11:14 4,2 C 86 % 1016,4 hPa 0,0 l/m 40,1 km/h (6 Bft) O-NO 67 0 min 0,000 mm 1,1 UV-I 146 W/m 2,1 C -9,7 C 49,9 km/h (6 Bft) 100,00 %
17.02.2016 11:15 4,2 C 87 % 1016,5 hPa 0,0 l/m 37,1 km/h (5 Bft) O-NO 60 0 min 0,000 mm 1,0 UV-I 146 W/m 2,2 C -9,2 C 51,5 km/h (7 Bft) 100,00 %
17.02.2016 11:16 4,2 C 87 % 1016,4 hPa 0,0 l/m 37,4 km/h (5 Bft) O 80 0 min 0,000 mm 1,1 UV-I 218 W/m 2,2 C -9,2 C 49,9 km/h (6 Bft) 100,00 %
17.02.2016 11:17 4,2 C 87 % 1016,5 hPa 0,0 l/m 33,9 km/h (5 Bft) O-NO 69 1 min 0,000 mm 1,0 UV-I 279 W/m 2,2 C -8,5 C 41,8 km/h (6 Bft) 100,00 %
17.02.2016 11:18 4,2 C 87 % 1016,5 hPa 0,0 l/m 36,6 km/h (5 Bft) O-NO 77 0 min 0,000 mm 0,9 UV-I 243 W/m 2,2 C -9,0 C 53,1 km/h (7 Bft) 100,00 %
17.02.2016 11:19 4,1 C 87 % 1016,5 hPa 0,0 l/m 26,7 km/h (4 Bft) O-SO 105 0 min 0,000 mm 0,8 UV-I 157 W/m 2,1 C -6,7 C 38,6 km/h (5 Bft) 100,00 %
17.02.2016 11:20 4,1 C 87 % 1016,5 hPa 0,0 l/m 30,7 km/h (5 Bft) O-NO 78 0 min 0,000 mm 1,0 UV-I 200 W/m 2,1 C -7,8 C 41,8 km/h (6 Bft) 100,00 %
17.02.2016 11:21 4,1 C 87 % 1016,5 hPa 0,0 l/m 39,0 km/h (6 Bft) O-NO 59 0 min 0,000 mm 1,0 UV-I 209 W/m 2,1 C -9,7 C 46,7 km/h (6 Bft) 100,00 %
17.02.2016 11:22 4,0 C 87 % 1016,5 hPa 0,0 l/m 34,0 km/h (5 Bft) O-NO 62 0 min 0,000 mm 0,8 UV-I 187 W/m 2,0 C -8,8 C 49,9 km/h (6 Bft) 96,15 %
17.02.2016 11:23 4,0 C 87 % 1016,5 hPa 0,0 l/m 32,6 km/h (5 Bft) O-NO 65 0 min 0,000 mm 0,7 UV-I 128 W/m 2,0 C -8,4 C 41,8 km/h (6 Bft) 96,15 %
17.02.2016 11:24 3,9 C 87 % 1016,5 hPa 0,0 l/m 30,0 km/h (5 Bft) O-NO 68 0 min 0,000 mm 0,6 UV-I 117 W/m 1,9 C -7,9 C 38,6 km/h (5 Bft) 96,30 %
17.02.2016 11:25 3,9 C 87 % 1016,5 hPa 0,0 l/m 25,0 km/h (4 Bft) O-NO 68 0 min 0,000 mm 0,7 UV-I 135 W/m 1,9 C -6,4 C 33,8 km/h (5 Bft) 91,67 %
17.02.2016 11:26 3,9 C 87 % 1016,4 hPa 0,0 l/m 37,1 km/h (5 Bft) NO 49 0 min 0,000 mm 0,8 UV-I 142 W/m 1,9 C -9,6 C 49,9 km/h (6 Bft) 96,88 %
17.02.2016 11:27 3,8 C 87 % 1016,3 hPa 0,0 l/m 34,0 km/h (5 Bft) O-NO 63 0 min 0,000 mm 0,8 UV-I 173 W/m 1,8 C -9,1 C 41,8 km/h (6 Bft) 96,15 %
17.02.2016 11:28 3,8 C 87 % 1016,4 hPa 0,0 l/m 36,5 km/h (5 Bft) NO 53 0 min 0,000 mm 0,9 UV-I 239 W/m 1,8 C -9,6 C 49,9 km/h (6 Bft) 100,00 %
17.02.2016 11:29 3,8 C 87 % 1016,4 hPa 0,0 l/m 26,5 km/h (4 Bft) O-NO 63 0 min 0,000 mm 1,0 UV-I 262 W/m 1,8 C -7,0 C 37,0 km/h (5 Bft) 94,44 %
17.02.2016 11:30 3,8 C 88 % 1016,5 hPa 0,0 l/m 29,8 km/h (5 Bft) O-NO 78 0 min 0,000 mm 0,9 UV-I 249 W/m 2,0 C -8,0 C 38,6 km/h (5 Bft) 100,00 %
17.02.2016 11:31 3,8 C 88 % 1016,5 hPa 0,0 l/m 33,7 km/h (5 Bft) O-NO 69 0 min 0,000 mm 0,8 UV-I 186 W/m 2,0 C -9,0 C 43,5 km/h (6 Bft) 95,83 %
17.02.2016 11:32 3,9 C 87 % 1016,5 hPa 0,0 l/m 32,5 km/h (5 Bft) O-NO 70 0 min 0,000 mm 0,9 UV-I 226 W/m 1,9 C -8,6 C 43,5 km/h (6 Bft) 96,15 %
17.02.2016 11:33 3,9 C 87 % 1016,5 hPa 0,0 l/m 29,4 km/h (5 Bft) O-NO 63 0 min 0,000 mm 0,8 UV-I 197 W/m 1,9 C -7,8 C 40,2 km/h (6 Bft) 100,00 %
17.02.2016 11:34 3,8 C 87 % 1016,4 hPa 0,0 l/m 28,1 km/h (4 Bft) NO 53 0 min 0,000 mm 0,7 UV-I 171 W/m 1,8 C -7,5 C 37,0 km/h (5 Bft) 92,31 %
17.02.2016 11:35 3,9 C 88 % 1016,5 hPa 0,0 l/m 22,6 km/h (4 Bft) O 80 0 min 0,000 mm 0,7 UV-I 172 W/m 2,1 C -5,6 C 30,6 km/h (5 Bft) 100,00 %
17.02.2016 11:36 3,9 C 88 % 1016,5 hPa 0,0 l/m 28,2 km/h (4 Bft) O-NO 67 0 min 0,000 mm 0,8 UV-I 174 W/m 2,1 C -7,4 C 37,0 km/h (5 Bft) 91,30 %
17.02.2016 11:37 3,9 C 88 % 1016,5 hPa 0,0 l/m 33,9 km/h (5 Bft) NO 55 0 min 0,000 mm 0,7 UV-I 206 W/m 2,1 C -8,9 C 45,1 km/h (6 Bft) 100,00 %
17.02.2016 11:38 3,9 C 87 % 1016,3 hPa 0,0 l/m 35,3 km/h (5 Bft) O-NO 74 0 min 0,000 mm 0,7 UV-I 209 W/m 1,9 C -9,2 C 45,1 km/h (6 Bft) 96,15 %
17.02.2016 11:39 3,9 C 88 % 1016,3 hPa 0,0 l/m 33,3 km/h (5 Bft) NO 52 0 min 0,000 mm 0,8 UV-I 240 W/m 2,1 C -8,8 C 43,5 km/h (6 Bft) 96,30 %
17.02.2016 11:40 3,9 C 88 % 1016,3 hPa 0,0 l/m 31,1 km/h (5 Bft) O-NO 63 0 min 0,000 mm 0,7 UV-I 233 W/m 2,1 C -8,2 C 43,5 km/h (6 Bft) 100,00 %
17.02.2016 11:41 3,9 C 88 % 1016,3 hPa 0,0 l/m 36,7 km/h (5 Bft) NO 49 0 min 0,000 mm 0,7 UV-I 221 W/m 2,1 C -9,5 C 48,3 km/h (6 Bft) 100,00 %
17.02.2016 11:42 3,9 C 87 % 1016,4 hPa 0,0 l/m 37,0 km/h (5 Bft) NO 55 0 min 0,000 mm 0,8 UV-I 246 W/m 1,9 C -9,6 C 49,9 km/h (6 Bft) 96,15 %
17.02.2016 11:43 3,9 C 88 % 1016,4 hPa 0,0 l/m 33,2 km/h (5 Bft) N-NO 33 0 min 0,000 mm 0,8 UV-I 250 W/m 2,1 C -8,7 C 49,9 km/h (6 Bft) 95,83 %
17.02.2016 11:44 3,9 C 88 % 1016,5 hPa 0,0 l/m 37,6 km/h (5 Bft) O-NO 63 0 min 0,000 mm 0,8 UV-I 255 W/m 2,1 C -9,7 C 48,3 km/h (6 Bft) 93,33 %
17.02.2016 11:45 3,9 C 88 % 1016,3 hPa 0,0 l/m 30,4 km/h (5 Bft) O-NO 73 1 min 0,000 mm 0,9 UV-I 312 W/m 2,1 C -8,0 C 45,1 km/h (6 Bft) 96,88 %
17.02.2016 11:46 3,9 C 88 % 1016,3 hPa 0,0 l/m 36,0 km/h (5 Bft) O-NO 63 1 min 0,000 mm 0,8 UV-I 274 W/m 2,1 C -9,4 C 43,5 km/h (6 Bft) 100,00 %
17.02.2016 11:47 4,0 C 88 % 1016,2 hPa 0,0 l/m 36,5 km/h (5 Bft) O 80 0 min 0,000 mm 0,8 UV-I 250 W/m 2,2 C -9,3 C 45,1 km/h (6 Bft) 91,67 %
17.02.2016 11:48 4,0 C 88 % 1016,2 hPa 0,0 l/m 27,9 km/h (4 Bft) O 86 0 min 0,000 mm 0,9 UV-I 270 W/m 2,2 C -7,2 C 41,8 km/h (6 Bft) 100,00 %
17.02.2016 11:49 4,1 C 88 % 1016,2 hPa 0,0 l/m 32,7 km/h (5 Bft) O-NO 61 0 min 0,000 mm 0,8 UV-I 248 W/m 2,3 C -8,3 C 38,6 km/h (5 Bft) 96,15 %
17.02.2016 11:50 4,1 C 88 % 1016,0 hPa 0,0 l/m 31,1 km/h (5 Bft) O-NO 60 1 min 0,000 mm 0,9 UV-I 277 W/m 2,3 C -7,9 C 40,2 km/h (6 Bft) 96,67 %
17.02.2016 11:51 4,1 C 88 % 1016,0 hPa 0,0 l/m 35,3 km/h (5 Bft) NO 44 0 min 0,000 mm 0,8 UV-I 209 W/m 2,3 C -8,9 C 43,5 km/h (6 Bft) 100,00 %
17.02.2016 11:52 4,1 C 88 % 1015,9 hPa 0,0 l/m 27,6 km/h (4 Bft) O 80 0 min 0,000 mm 0,9 UV-I 179 W/m 2,3 C -7,0 C 37,0 km/h (5 Bft) 96,67 %
17.02.2016 11:53 4,1 C 88 % 1015,9 hPa 0,0 l/m 31,2 km/h (5 Bft) O-NO 75 0 min 0,000 mm 1,1 UV-I 246 W/m 2,3 C -8,0 C 40,2 km/h (6 Bft) 100,00 %
17.02.2016 11:54 4,1 C 88 % 1015,8 hPa 0,0 l/m 33,8 km/h (5 Bft) O-NO 71 0 min 0,000 mm 0,9 UV-I 220 W/m 2,3 C -8,6 C 41,8 km/h (6 Bft) 96,97 %
17.02.2016 11:55 4,1 C 88 % 1015,8 hPa 0,0 l/m 34,9 km/h (5 Bft) O-NO 63 0 min 0,000 mm 0,9 UV-I 211 W/m 2,3 C -8,8 C 41,8 km/h (6 Bft) 100,00 %
17.02.2016 11:56 4,1 C 88 % 1015,8 hPa 0,0 l/m 28,1 km/h (4 Bft) O 86 0 min 0,000 mm 0,9 UV-I 242 W/m 2,3 C -7,1 C 40,2 km/h (6 Bft) 100,00 %
17.02.2016 11:57 4,1 C 88 % 1015,8 hPa 0,0 l/m 30,1 km/h (5 Bft) O 86 0 min 0,000 mm 0,9 UV-I 275 W/m 2,3 C -7,7 C 35,4 km/h (5 Bft) 100,00 %
17.02.2016 11:58 4,1 C 88 % 1015,8 hPa 0,0 l/m 24,5 km/h (4 Bft) O-NO 61 0 min 0,000 mm 0,9 UV-I 259 W/m 2,3 C -6,0 C 33,8 km/h (5 Bft) 100,00 %
17.02.2016 11:59 4,2 C 88 % 1015,8 hPa 0,0 l/m 30,6 km/h (5 Bft) O 87 1 min 0,000 mm 1,1 UV-I 295 W/m 2,4 C -7,7 C 40,2 km/h (6 Bft) 100,00 %
17.02.2016 12:00 4,2 C 88 % 1015,8 hPa 0,0 l/m 25,5 km/h (4 Bft) O-NO 65 1 min 0,127 mm 1,3 UV-I 362 W/m 2,4 C -6,2 C 33,8 km/h (5 Bft) 100,00 %
17.02.2016 12:01 4,3 C 89 % 1015,8 hPa 0,0 l/m 27,6 km/h (4 Bft) O 94 1 min 0,000 mm 1,0 UV-I 361 W/m 2,7 C -6,7 C 33,8 km/h (5 Bft) 100,00 %
17.02.2016 12:02 4,3 C 88 % 1015,8 hPa 0,0 l/m 29,6 km/h (5 Bft) O-NO 74 1 min 0,000 mm 1,0 UV-I 357 W/m 2,5 C -7,3 C 38,6 km/h (5 Bft) 100,00 %
17.02.2016 12:03 4,3 C 88 % 1015,8 hPa 0,0 l/m 32,9 km/h (5 Bft) O 84 1 min 0,000 mm 1,0 UV-I 357 W/m 2,5 C -8,1 C 43,5 km/h (6 Bft) 92,31 %
17.02.2016 12:04 4,3 C 88 % 1015,7 hPa 0,0 l/m 30,0 km/h (5 Bft) O-NO 69 1 min 0,000 mm 1,0 UV-I 357 W/m 2,5 C -7,4 C 40,2 km/h (6 Bft) 100,00 %
17.02.2016 12:05 4,4 C 88 % 1015,7 hPa 0,0 l/m 31,8 km/h (5 Bft) O-NO 69 0 min 0,000 mm 0,9 UV-I 243 W/m 2,6 C -7,7 C 37,0 km/h (5 Bft) 100,00 %
17.02.2016 12:06 4,4 C 88 % 1015,8 hPa 0,0 l/m 33,7 km/h (5 Bft) O-NO 59 0 min 0,000 mm 1,0 UV-I 276 W/m 2,6 C -8,1 C 43,5 km/h (6 Bft) 100,00 %
17.02.2016 12:07 4,4 C 88 % 1015,7 hPa 0,0 l/m 33,2 km/h (5 Bft) O 90 0 min 0,000 mm 1,0 UV-I 241 W/m 2,6 C -8,0 C 46,7 km/h (6 Bft) 100,00 %
17.02.2016 12:08 4,4 C 88 % 1015,6 hPa 0,0 l/m 31,8 km/h (5 Bft) O-NO 65 0 min 0,000 mm 1,0 UV-I 248 W/m 2,6 C -7,7 C 41,8 km/h (6 Bft) 100,00 %
17.02.2016 12:09 4,4 C 88 % 1015,6 hPa 0,0 l/m 34,9 km/h (5 Bft) O-NO 64 1 min 0,000 mm 1,0 UV-I 293 W/m 2,6 C -8,4 C 45,1 km/h (6 Bft) 100,00 %
17.02.2016 12:10 4,4 C 88 % 1015,5 hPa 0,0 l/m 26,7 km/h (4 Bft) O-NO 68 1 min 0,000 mm 0,9 UV-I 308 W/m 2,6 C -6,3 C 35,4 km/h (5 Bft) 96,15 %
17.02.2016 12:11 4,5 C 88 % 1015,5 hPa 0,0 l/m 29,7 km/h (5 Bft) O 94 1 min 0,000 mm 1,0 UV-I 293 W/m 2,7 C -7,0 C 38,6 km/h (5 Bft) 96,30 %
17.02.2016 12:12 4,5 C 88 % 1015,4 hPa 0,0 l/m 31,4 km/h (5 Bft) NO 54 0 min 0,000 mm 1,2 UV-I 254 W/m 2,7 C -7,4 C 43,5 km/h (6 Bft) 100,00 %
17.02.2016 12:13 4,6 C 87 % 1015,4 hPa 0,0 l/m 26,5 km/h (4 Bft) O-NO 67 0 min 0,000 mm 1,0 UV-I 257 W/m 2,6 C -6,0 C 33,8 km/h (5 Bft) 100,00 %
17.02.2016 12:14 4,6 C 88 % 1015,4 hPa 0,0 l/m 25,3 km/h (4 Bft) O-NO 57 1 min 0,000 mm 1,0 UV-I 304 W/m 2,8 C -5,6 C 38,6 km/h (5 Bft) 100,00 %
17.02.2016 12:15 4,7 C 88 % 1015,4 hPa 0,0 l/m 30,9 km/h (5 Bft) O 89 1 min 0,000 mm 1,2 UV-I 301 W/m 2,9 C -7,0 C 41,8 km/h (6 Bft) 100,00 %
17.02.2016 12:16 4,7 C 88 % 1015,3 hPa 0,0 l/m 29,2 km/h (5 Bft) O-NO 72 0 min 0,000 mm 1,3 UV-I 272 W/m 2,9 C -6,6 C 40,2 km/h (6 Bft) 100,00 %
17.02.2016 12:17 4,8 C 88 % 1015,3 hPa 0,0 l/m 32,8 km/h (5 Bft) O-NO 65 1 min 0,000 mm 1,3 UV-I 518 W/m 3,0 C -7,3 C 46,7 km/h (6 Bft) 100,00 %
17.02.2016 12:18 4,9 C 87 % 1015,3 hPa 0,0 l/m 28,6 km/h (4 Bft) O-NO 74 1 min 0,000 mm 1,2 UV-I 510 W/m 2,9 C -6,1 C 35,4 km/h (5 Bft) 100,00 %
17.02.2016 12:19 4,9 C 87 % 1015,2 hPa 0,0 l/m 29,6 km/h (5 Bft) O-NO 66 1 min 0,000 mm 1,0 UV-I 510 W/m 2,9 C -6,4 C 37,0 km/h (5 Bft) 100,00 %
17.02.2016 12:20 4,9 C 87 % 1015,2 hPa 0,0 l/m 29,4 km/h (5 Bft) O 79 1 min 0,000 mm 1,2 UV-I 510 W/m 2,9 C -6,4 C 35,4 km/h (5 Bft) 100,00 %
17.02.2016 12:21 4,9 C 87 % 1015,1 hPa 0,0 l/m 29,5 km/h (5 Bft) O-NO 73 1 min 0,000 mm 1,2 UV-I 510 W/m 2,9 C -6,4 C 38,6 km/h (5 Bft) 100,00 %
17.02.2016 12:22 5,0 C 87 % 1015,0 hPa 0,0 l/m 30,3 km/h (5 Bft) O-NO 66 1 min 0,000 mm 1,3 UV-I 538 W/m 3,0 C -6,5 C 35,4 km/h (5 Bft) 100,00 %
17.02.2016 12:23 5,1 C 87 % 1015,0 hPa 0,0 l/m 26,6 km/h (4 Bft) O-NO 75 1 min 0,000 mm 1,2 UV-I 516 W/m 3,1 C -5,3 C 32,2 km/h (5 Bft) 100,00 %
17.02.2016 12:24 5,2 C 87 % 1014,9 hPa 0,0 l/m 29,4 km/h (5 Bft) O 92 1 min 0,000 mm 1,2 UV-I 509 W/m 3,2 C -5,9 C 35,4 km/h (5 Bft) 100,00 %
17.02.2016 12:25 5,3 C 87 % 1014,9 hPa 0,0 l/m 29,8 km/h (5 Bft) O-NO 76 1 min 0,000 mm 1,2 UV-I 499 W/m 3,3 C -5,9 C 41,8 km/h (6 Bft) 100,00 %
17.02.2016 12:26 5,3 C 86 % 1014,8 hPa 0,0 l/m 31,5 km/h (5 Bft) O 80 1 min 0,000 mm 1,0 UV-I 499 W/m 3,2 C -6,3 C 38,6 km/h (5 Bft) 96,97 %
17.02.2016 12:27 5,3 C 86 % 1014,8 hPa 0,0 l/m 29,3 km/h (5 Bft) O-NO 78 1 min 0,000 mm 1,0 UV-I 322 W/m 3,2 C -5,8 C 40,2 km/h (6 Bft) 100,00 %
17.02.2016 12:28 5,2 C 86 % 1014,8 hPa 0,0 l/m 29,4 km/h (5 Bft) O-NO 67 0 min 0,000 mm 1,0 UV-I 182 W/m 3,1 C -5,9 C 37,0 km/h (5 Bft) 100,00 %
17.02.2016 12:29 5,2 C 85 % 1014,7 hPa 0,0 l/m 29,9 km/h (5 Bft) O-NO 77 0 min 0,000 mm 1,0 UV-I 170 W/m 2,9 C -6,1 C 37,0 km/h (5 Bft) 93,10 %
17.02.2016 12:30 5,3 C 86 % 1014,7 hPa 0,0 l/m 29,0 km/h (5 Bft) O-NO 61 0 min 0,000 mm 1,3 UV-I 246 W/m 3,2 C -5,7 C 41,8 km/h (6 Bft) 100,00 %
17.02.2016 12:31 5,3 C 86 % 1014,7 hPa 0,0 l/m 20,8 km/h (4 Bft) O-NO 69 1 min 0,000 mm 1,4 UV-I 598 W/m 3,2 C -3,1 C 29,0 km/h (5 Bft) 100,00 %
17.02.2016 12:32 5,5 C 86 % 1014,6 hPa 0,0 l/m 27,6 km/h (4 Bft) O-NO 67 1 min 0,000 mm 1,4 UV-I 605 W/m 3,3 C -5,0 C 33,8 km/h (5 Bft) 100,00 %
17.02.2016 12:33 5,6 C 87 % 1014,6 hPa 0,0 l/m 25,2 km/h (4 Bft) O-NO 68 1 min 0,000 mm 1,4 UV-I 607 W/m 3,6 C -4,2 C 30,6 km/h (5 Bft) 100,00 %
17.02.2016 12:34 5,8 C 86 % 1014,6 hPa 0,0 l/m 30,0 km/h (5 Bft) NO 54 1 min 0,000 mm 1,4 UV-I 601 W/m 3,6 C -5,3 C 40,2 km/h (6 Bft) 100,00 %
17.02.2016 12:35 5,8 C 85 % 1014,6 hPa 0,0 l/m 35,2 km/h (5 Bft) O-NO 60 1 min 0,000 mm 1,4 UV-I 608 W/m 3,5 C -6,4 C 40,2 km/h (6 Bft) 95,65 %
17.02.2016 12:36 5,9 C 84 % 1014,6 hPa 0,0 l/m 31,9 km/h (5 Bft) O 79 1 min 0,000 mm 1,5 UV-I 610 W/m 3,4 C -5,6 C 43,5 km/h (6 Bft) 100,00 %
17.02.2016 12:37 5,9 C 85 % 1014,5 hPa 0,0 l/m 29,5 km/h (5 Bft) O 80 1 min 0,000 mm 1,4 UV-I 602 W/m 3,6 C -5,0 C 38,6 km/h (5 Bft) 96,15 %
17.02.2016 12:38 5,9 C 84 % 1014,5 hPa 0,0 l/m 35,4 km/h (5 Bft) O 86 1 min 0,000 mm 1,4 UV-I 586 W/m 3,4 C -6,3 C 45,1 km/h (6 Bft) 100,00 %
17.02.2016 12:39 5,9 C 83 % 1014,5 hPa 0,0 l/m 33,2 km/h (5 Bft) O-NO 78 1 min 0,000 mm 1,4 UV-I 575 W/m 3,2 C -5,9 C 40,2 km/h (6 Bft) 100,00 %
17.02.2016 12:40 5,9 C 83 % 1014,5 hPa 0,0 l/m 29,7 km/h (5 Bft) O 88 1 min 0,000 mm 1,4 UV-I 565 W/m 3,2 C -5,0 C 38,6 km/h (5 Bft) 100,00 %
17.02.2016 12:41 5,9 C 84 % 1014,4 hPa 0,0 l/m 32,3 km/h (5 Bft) O 82 1 min 0,000 mm 1,4 UV-I 557 W/m 3,4 C -5,7 C 38,6 km/h (5 Bft) 100,00 %
17.02.2016 12:42 6,0 C 84 % 1014,4 hPa 0,0 l/m 31,3 km/h (5 Bft) O-NO 78 1 min 0,000 mm 1,3 UV-I 548 W/m 3,5 C -5,3 C 40,2 km/h (6 Bft) 100,00 %
17.02.2016 12:43 6,0 C 84 % 1014,5 hPa 0,0 l/m 32,2 km/h (5 Bft) O-SO 106 1 min 0,000 mm 1,3 UV-I 538 W/m 3,5 C -5,5 C 40,2 km/h (6 Bft) 100,00 %
17.02.2016 12:44 6,1 C 84 % 1014,4 hPa 0,0 l/m 26,0 km/h (4 Bft) O 99 1 min 0,000 mm 1,3 UV-I 537 W/m 3,6 C -3,8 C 38,6 km/h (5 Bft) 100,00 %
17.02.2016 12:45 6,1 C 84 % 1014,4 hPa 0,0 l/m 29,2 km/h (5 Bft) O 80 1 min 0,000 mm 1,3 UV-I 536 W/m 3,6 C -4,6 C 45,1 km/h (6 Bft) 100,00 %
17.02.2016 12:46 6,2 C 84 % 1014,4 hPa 0,0 l/m 24,9 km/h (4 Bft) O-NO 74 1 min 0,000 mm 1,3 UV-I 536 W/m 3,7 C -3,3 C 30,6 km/h (5 Bft) 100,00 %
17.02.2016 12:47 6,2 C 85 % 1014,3 hPa 0,0 l/m 28,1 km/h (4 Bft) O-NO 60 1 min 0,000 mm 1,3 UV-I 531 W/m 3,9 C -4,2 C 41,8 km/h (6 Bft) 100,00 %
17.02.2016 12:48 6,2 C 83 % 1014,4 hPa 0,0 l/m 31,5 km/h (5 Bft) O-NO 59 1 min 0,000 mm 1,3 UV-I 527 W/m 3,5 C -5,0 C 38,6 km/h (5 Bft) 100,00 %
17.02.2016 12:49 6,2 C 83 % 1014,4 hPa 0,0 l/m 27,2 km/h (4 Bft) O-NO 67 1 min 0,000 mm 1,3 UV-I 523 W/m 3,5 C -4,0 C 33,8 km/h (5 Bft) 95,83 %
17.02.2016 12:50 6,2 C 84 % 1014,3 hPa 0,0 l/m 27,3 km/h (4 Bft) O-NO 57 1 min 0,000 mm 1,3 UV-I 522 W/m 3,7 C -4,0 C 37,0 km/h (5 Bft) 100,00 %
17.02.2016 12:51 6,2 C 83 % 1014,3 hPa 0,0 l/m 31,8 km/h (5 Bft) O 82 1 min 0,000 mm 1,3 UV-I 521 W/m 3,5 C -5,1 C 41,8 km/h (6 Bft) 100,00 %
17.02.2016 12:52 6,3 C 84 % 1014,4 hPa 0,0 l/m 25,5 km/h (4 Bft) O-NO 69 1 min 0,000 mm 1,3 UV-I 524 W/m 3,8 C -3,3 C 32,2 km/h (5 Bft) 100,00 %
17.02.2016 12:53 6,3 C 84 % 1014,4 hPa 0,0 l/m 23,8 km/h (4 Bft) O-NO 64 1 min 0,000 mm 1,3 UV-I 543 W/m 3,8 C -2,8 C 33,8 km/h (5 Bft) 100,00 %
17.02.2016 12:54 6,4 C 84 % 1014,4 hPa 0,0 l/m 23,8 km/h (4 Bft) O-NO 77 1 min 0,000 mm 1,0 UV-I 564 W/m 3,9 C -2,7 C 29,0 km/h (5 Bft) 100,00 %
17.02.2016 12:55 6,4 C 84 % 1014,3 hPa 0,0 l/m 26,2 km/h (4 Bft) NO 56 1 min 0,000 mm 0,9 UV-I 426 W/m 3,9 C -3,4 C 37,0 km/h (5 Bft) 100,00 %
17.02.2016 12:56 6,4 C 83 % 1014,4 hPa 0,0 l/m 29,2 km/h (5 Bft) O-NO 71 0 min 0,000 mm 1,0 UV-I 177 W/m 3,7 C -4,2 C 38,6 km/h (5 Bft) 100,00 %
17.02.2016 12:57 6,3 C 83 % 1014,3 hPa 0,0 l/m 31,4 km/h (5 Bft) O-NO 66 0 min 0,000 mm 0,9 UV-I 187 W/m 3,6 C -4,9 C 38,6 km/h (5 Bft) 100,00 %
17.02.2016 12:58 6,2 C 82 % 1014,4 hPa 0,0 l/m 35,6 km/h (5 Bft) O-NO 75 0 min 0,000 mm 0,9 UV-I 214 W/m 3,4 C -5,9 C 43,5 km/h (6 Bft) 100,00 %
17.02.2016 12:59 6,1 C 82 % 1014,4 hPa 0,0 l/m 28,3 km/h (4 Bft) O-NO 60 0 min 0,000 mm 0,9 UV-I 214 W/m 3,3 C -4,4 C 43,5 km/h (6 Bft) 100,00 %
17.02.2016 13:00 6,1 C 83 % 1014,3 hPa 0,0 l/m 28,8 km/h (4 Bft) O-NO 64 0 min 0,000 mm 0,9 UV-I 230 W/m 3,4 C -4,5 C 43,5 km/h (6 Bft) 100,00 %
17.02.2016 13:01 5,9 C 82 % 1014,3 hPa 0,0 l/m 30,7 km/h (5 Bft) O-NO 58 0 min 0,204 mm 1,0 UV-I 241 W/m 3,1 C -5,3 C 43,5 km/h (6 Bft) 100,00 %
17.02.2016 13:02 5,9 C 82 % 1014,2 hPa 0,0 l/m 30,1 km/h (5 Bft) O-NO 69 0 min 0,000 mm 0,9 UV-I 255 W/m 3,1 C -5,1 C 49,9 km/h (6 Bft) 100,00 %
17.02.2016 13:03 5,8 C 83 % 1014,1 hPa 0,0 l/m 28,6 km/h (4 Bft) O-NO 60 0 min 0,000 mm 0,8 UV-I 255 W/m 3,1 C -4,9 C 37,0 km/h (5 Bft) 100,00 %
17.02.2016 13:04 5,8 C 83 % 1014,1 hPa 0,0 l/m 29,7 km/h (5 Bft) O-NO 76 0 min 0,000 mm 0,8 UV-I 221 W/m 3,1 C -5,2 C 41,8 km/h (6 Bft) 100,00 %
17.02.2016 13:05 5,8 C 84 % 1014,0 hPa 0,0 l/m 23,6 km/h (4 Bft) O-NO 64 0 min 0,000 mm 0,8 UV-I 211 W/m 3,3 C -3,4 C 33,8 km/h (5 Bft) 98,68 %
17.02.2016 13:06 5,8 C 84 % 1014,0 hPa 0,0 l/m 28,3 km/h (4 Bft) NO 52 0 min 0,000 mm 0,8 UV-I 211 W/m 3,3 C -4,8 C 33,8 km/h (5 Bft) 97,78 %
17.02.2016 13:07 5,8 C 85 % 1014,0 hPa 0,0 l/m 29,7 km/h (5 Bft) NO 42 0 min 0,000 mm 0,8 UV-I 211 W/m 3,5 C -5,2 C 40,2 km/h (6 Bft) 96,15 %
17.02.2016 13:08 5,8 C 85 % 1014,0 hPa 0,0 l/m 28,4 km/h (4 Bft) O 94 0 min 0,000 mm 0,8 UV-I 211 W/m 3,5 C -4,8 C 35,4 km/h (5 Bft) 100,00 %
17.02.2016 13:09 5,7 C 85 % 1014,0 hPa 0,0 l/m 26,8 km/h (4 Bft) O 94 0 min 0,000 mm 0,7 UV-I 211 W/m 3,4 C -4,5 C 40,2 km/h (6 Bft) 96,55 %
17.02.2016 13:10 5,7 C 84 % 1013,9 hPa 0,0 l/m 27,4 km/h (4 Bft) O-NO 73 0 min 0,000 mm 0,7 UV-I 209 W/m 3,2 C -4,7 C 38,6 km/h (5 Bft) 100,00 %
17.02.2016 13:11 5,7 C 84 % 1013,9 hPa 0,0 l/m 28,5 km/h (4 Bft) O 83 0 min 0,000 mm 0,7 UV-I 210 W/m 3,2 C -5,0 C 37,0 km/h (5 Bft) 94,12 %
17.02.2016 13:12 5,7 C 84 % 1013,8 hPa 0,0 l/m 28,5 km/h (4 Bft) NO 55 0 min 0,000 mm 0,7 UV-I 208 W/m 3,2 C -5,0 C 40,2 km/h (6 Bft) 100,00 %
17.02.2016 13:13 5,7 C 84 % 1013,8 hPa 0,0 l/m 27,7 km/h (4 Bft) O-NO 63 0 min 0,000 mm 0,7 UV-I 206 W/m 3,2 C -4,8 C 33,8 km/h (5 Bft) 96,15 %
17.02.2016 13:14 5,7 C 85 % 1013,8 hPa 0,0 l/m 25,9 km/h (4 Bft) NO 53 0 min 0,000 mm 0,7 UV-I 205 W/m 3,4 C -4,3 C 33,8 km/h (5 Bft) 95,83 %
17.02.2016 13:15 5,7 C 85 % 1013,7 hPa 0,0 l/m 30,4 km/h (5 Bft) O-NO 65 0 min 0,000 mm 0,7 UV-I 204 W/m 3,4 C -5,5 C 40,2 km/h (6 Bft) 100,00 %
17.02.2016 13:16 5,7 C 85 % 1013,6 hPa 0,0 l/m 29,0 km/h (5 Bft) O-NO 61 0 min 0,000 mm 0,7 UV-I 202 W/m 3,4 C -5,1 C 37,0 km/h (5 Bft) 95,83 %
17.02.2016 13:17 5,7 C 84 % 1013,6 hPa 0,0 l/m 32,3 km/h (5 Bft) O-NO 78 0 min 0,000 mm 0,7 UV-I 202 W/m 3,2 C -5,9 C 46,7 km/h (6 Bft) 100,00 %
17.02.2016 13:18 5,7 C 84 % 1013,6 hPa 0,0 l/m 27,2 km/h (4 Bft) O-NO 66 0 min 0,000 mm 0,6 UV-I 198 W/m 3,2 C -4,6 C 38,6 km/h (5 Bft) 96,55 %
17.02.2016 13:19 5,7 C 84 % 1013,6 hPa 0,0 l/m 26,7 km/h (4 Bft) O 82 0 min 0,000 mm 0,6 UV-I 196 W/m 3,2 C -4,5 C 43,5 km/h (6 Bft) 100,00 %
17.02.2016 13:20 5,7 C 84 % 1013,6 hPa 0,0 l/m 30,6 km/h (5 Bft) O 81 0 min 0,000 mm 0,6 UV-I 193 W/m 3,2 C -5,5 C 41,8 km/h (6 Bft) 93,33 %
17.02.2016 13:21 5,7 C 83 % 1013,7 hPa 0,0 l/m 28,5 km/h (4 Bft) O-NO 76 0 min 0,000 mm 0,6 UV-I 189 W/m 3,0 C -5,0 C 40,2 km/h (6 Bft) 96,30 %
17.02.2016 13:22 5,7 C 83 % 1013,7 hPa 0,0 l/m 25,9 km/h (4 Bft) NO 53 0 min 0,000 mm 0,6 UV-I 184 W/m 3,0 C -4,3 C 33,8 km/h (5 Bft) 96,15 %
17.02.2016 13:23 5,7 C 84 % 1013,7 hPa 0,0 l/m 28,0 km/h (4 Bft) NO 50 0 min 0,000 mm 0,6 UV-I 178 W/m 3,2 C -4,9 C 33,8 km/h (5 Bft) 100,00 %
17.02.2016 13:24 5,7 C 84 % 1013,7 hPa 0,0 l/m 25,0 km/h (4 Bft) O-NO 74 0 min 0,000 mm 0,6 UV-I 175 W/m 3,2 C -4,0 C 37,0 km/h (5 Bft) 91,67 %
17.02.2016 13:25 5,7 C 83 % 1013,7 hPa 0,0 l/m 31,2 km/h (5 Bft) O-NO 68 0 min 0,000 mm 0,6 UV-I 170 W/m 3,0 C -5,7 C 40,2 km/h (6 Bft) 100,00 %
17.02.2016 13:26 5,7 C 83 % 1013,7 hPa 0,0 l/m 26,2 km/h (4 Bft) O-NO 63 0 min 0,000 mm 0,6 UV-I 169 W/m 3,0 C -4,4 C 33,8 km/h (5 Bft) 96,55 %
17.02.2016 13:27 5,7 C 84 % 1013,8 hPa 0,0 l/m 27,8 km/h (4 Bft) O 86 0 min 0,000 mm 0,5 UV-I 169 W/m 3,2 C -4,8 C 37,0 km/h (5 Bft) 96,15 %
17.02.2016 13:28 5,7 C 84 % 1013,8 hPa 0,0 l/m 28,0 km/h (4 Bft) O-NO 63 0 min 0,000 mm 0,5 UV-I 167 W/m 3,2 C -4,9 C 37,0 km/h (5 Bft) 100,00 %
17.02.2016 13:29 5,7 C 84 % 1013,8 hPa 0,0 l/m 26,8 km/h (4 Bft) NO 44 0 min 0,000 mm 0,5 UV-I 165 W/m 3,2 C -4,5 C 37,0 km/h (5 Bft) 95,83 %
17.02.2016 13:30 5,7 C 84 % 1013,8 hPa 0,0 l/m 27,8 km/h (4 Bft) O-NO 67 0 min 0,000 mm 0,5 UV-I 164 W/m 3,2 C -4,8 C 35,4 km/h (5 Bft) 100,00 %
17.02.2016 13:31 5,7 C 84 % 1013,8 hPa 0,0 l/m 28,1 km/h (4 Bft) NO 48 0 min 0,000 mm 0,5 UV-I 162 W/m 3,2 C -4,9 C 35,4 km/h (5 Bft) 96,30 %
17.02.2016 13:32 5,7 C 83 % 1013,8 hPa 0,0 l/m 27,9 km/h (4 Bft) O 84 0 min 0,000 mm 0,5 UV-I 157 W/m 3,0 C -4,8 C 35,4 km/h (5 Bft) 96,15 %
17.02.2016 13:33 5,7 C 84 % 1013,9 hPa 0,0 l/m 24,1 km/h (4 Bft) O-NO 69 0 min 0,000 mm 0,5 UV-I 155 W/m 3,2 C -3,7 C 30,6 km/h (5 Bft) 100,00 %
17.02.2016 13:34 5,7 C 84 % 1013,8 hPa 0,0 l/m 23,0 km/h (4 Bft) O-NO 62 0 min 0,000 mm 0,5 UV-I 152 W/m 3,2 C -3,3 C 27,4 km/h (4 Bft) 100,00 %
17.02.2016 13:35 5,7 C 84 % 1013,7 hPa 0,0 l/m 25,8 km/h (4 Bft) O 84 0 min 0,000 mm 0,5 UV-I 148 W/m 3,2 C -4,2 C 38,6 km/h (5 Bft) 100,00 %
17.02.2016 13:36 5,7 C 83 % 1013,7 hPa 0,0 l/m 20,0 km/h (4 Bft) O-NO 70 0 min 0,000 mm 0,5 UV-I 147 W/m 3,0 C -2,3 C 27,4 km/h (4 Bft) 100,00 %
17.02.2016 13:37 5,7 C 84 % 1013,7 hPa 0,0 l/m 19,9 km/h (4 Bft) N-NO 32 0 min 0,000 mm 0,5 UV-I 144 W/m 3,2 C -2,2 C 25,7 km/h (4 Bft) 100,00 %
17.02.2016 13:38 5,7 C 84 % 1013,6 hPa 0,0 l/m 19,8 km/h (3 Bft) O-NO 71 0 min 0,000 mm 0,5 UV-I 144 W/m 3,2 C -2,2 C 24,1 km/h (4 Bft) 100,00 %
17.02.2016 13:39 5,7 C 84 % 1013,7 hPa 0,0 l/m 19,2 km/h (3 Bft) O-NO 70 0 min 0,000 mm 0,5 UV-I 144 W/m 3,2 C -2,0 C 25,7 km/h (4 Bft) 100,00 %
17.02.2016 13:40 5,6 C 84 % 1013,6 hPa 0,0 l/m 16,3 km/h (3 Bft) NO 51 0 min 0,000 mm 0,5 UV-I 146 W/m 3,1 C -0,8 C 22,5 km/h (4 Bft) 100,00 %
17.02.2016 13:41 5,7 C 84 % 1013,7 hPa 0,0 l/m 18,4 km/h (3 Bft) NO 46 0 min 0,000 mm 0,5 UV-I 147 W/m 3,2 C -1,6 C 22,5 km/h (4 Bft) 96,30 %
17.02.2016 13:42 5,7 C 84 % 1013,7 hPa 0,0 l/m 17,6 km/h (3 Bft) O-NO 67 0 min 0,000 mm 0,5 UV-I 148 W/m 3,2 C -1,3 C 22,5 km/h (4 Bft) 100,00 %
17.02.2016 13:43 5,7 C 85 % 1013,7 hPa 0,0 l/m 14,5 km/h (3 Bft) NO 54 0 min 0,000 mm 0,5 UV-I 148 W/m 3,4 C 0,2 C 20,9 km/h (4 Bft) 100,00 %
17.02.2016 13:44 5,7 C 85 % 1013,7 hPa 0,0 l/m 22,7 km/h (4 Bft) O-NO 67 0 min 0,000 mm 0,5 UV-I 146 W/m 3,4 C -3,2 C 27,4 km/h (4 Bft) 100,00 %
17.02.2016 13:45 5,7 C 84 % 1013,6 hPa 0,0 l/m 20,5 km/h (4 Bft) O-NO 64 0 min 0,000 mm 0,2 UV-I 146 W/m 3,2 C -2,5 C 25,7 km/h (4 Bft) 100,00 %
17.02.2016 13:46 5,7 C 84 % 1013,6 hPa 0,0 l/m 21,6 km/h (4 Bft) O-NO 59 0 min 0,000 mm 0,0 UV-I 144 W/m 3,2 C -2,9 C 29,0 km/h (5 Bft) 100,00 %
17.02.2016 13:47 5,6 C 84 % 1013,6 hPa 0,0 l/m 21,5 km/h (4 Bft) O-NO 71 0 min 0,000 mm 0,0 UV-I 142 W/m 3,1 C -3,0 C 25,7 km/h (4 Bft) 96,15 %
17.02.2016 13:48 5,6 C 84 % 1013,6 hPa 0,0 l/m 24,3 km/h (4 Bft) O 83 0 min 0,000 mm 0,0 UV-I 141 W/m 3,1 C -3,9 C 30,6 km/h (5 Bft) 100,00 %
17.02.2016 13:49 5,6 C 84 % 1013,6 hPa 0,0 l/m 20,0 km/h (4 Bft) O-NO 73 0 min 0,000 mm 0,0 UV-I 141 W/m 3,1 C -2,4 C 30,6 km/h (5 Bft) 100,00 %
17.02.2016 13:50 5,6 C 84 % 1013,6 hPa 0,0 l/m 23,0 km/h (4 Bft) O-NO 71 0 min 0,000 mm 0,0 UV-I 141 W/m 3,1 C -3,5 C 29,0 km/h (5 Bft) 100,00 %
17.02.2016 13:51 5,5 C 84 % 1013,6 hPa 0,0 l/m 20,3 km/h (4 Bft) O-NO 59 0 min 0,000 mm 0,0 UV-I 141 W/m 3,0 C -2,6 C 25,7 km/h (4 Bft) 100,00 %
17.02.2016 13:52 5,5 C 84 % 1013,6 hPa 0,0 l/m 20,8 km/h (4 Bft) O-NO 65 0 min 0,000 mm 0,0 UV-I 141 W/m 3,0 C -2,8 C 25,7 km/h (4 Bft) 100,00 %
17.02.2016 13:53 5,5 C 84 % 1013,6 hPa 0,0 l/m 17,4 km/h (3 Bft) O-NO 61 0 min 0,000 mm 0,0 UV-I 141 W/m 3,0 C -1,4 C 20,9 km/h (4 Bft) 100,00 %
17.02.2016 13:54 5,4 C 84 % 1013,6 hPa 0,0 l/m 14,7 km/h (3 Bft) O 81 0 min 0,000 mm 0,0 UV-I 140 W/m 2,9 C -0,3 C 19,3 km/h (3 Bft) 100,00 %
17.02.2016 13:55 5,5 C 85 % 1013,6 hPa 0,0 l/m 19,9 km/h (4 Bft) O-NO 59 0 min 0,000 mm 0,0 UV-I 139 W/m 3,2 C -2,5 C 30,6 km/h (5 Bft) 100,00 %
17.02.2016 13:56 5,5 C 85 % 1013,6 hPa 0,0 l/m 22,7 km/h (4 Bft) O-NO 60 0 min 0,000 mm 0,0 UV-I 139 W/m 3,2 C -3,5 C 29,0 km/h (5 Bft) 100,00 %
17.02.2016 13:57 5,4 C 84 % 1013,5 hPa 0,0 l/m 20,0 km/h (4 Bft) O-NO 67 0 min 0,000 mm 0,0 UV-I 139 W/m 2,9 C -2,7 C 30,6 km/h (5 Bft) 100,00 %
17.02.2016 13:58 5,4 C 85 % 1013,5 hPa 0,0 l/m 22,4 km/h (4 Bft) O 89 0 min 0,000 mm 0,0 UV-I 140 W/m 3,1 C -3,5 C 30,6 km/h (5 Bft) 100,00 %
17.02.2016 13:59 5,4 C 84 % 1013,5 hPa 0,0 l/m 22,9 km/h (4 Bft) NO 49 0 min 0,000 mm 0,0 UV-I 141 W/m 2,9 C -3,7 C 27,4 km/h (4 Bft) 100,00 %
17.02.2016 14:00 5,4 C 84 % 1013,5 hPa 0,0 l/m 24,6 km/h (4 Bft) O 99 0 min 0,000 mm 0,0 UV-I 142 W/m 2,9 C -4,3 C 29,0 km/h (5 Bft) 100,00 %
17.02.2016 14:01 5,4 C 84 % 1013,4 hPa 0,0 l/m 21,5 km/h (4 Bft) O-SO 106 0 min 0,101 mm 0,0 UV-I 143 W/m 2,9 C -3,2 C 29,0 km/h (5 Bft) 100,00 %
17.02.2016 14:02 5,4 C 84 % 1013,5 hPa 0,0 l/m 20,5 km/h (4 Bft) O 101 0 min 0,000 mm 0,0 UV-I 144 W/m 2,9 C -2,8 C 29,0 km/h (5 Bft) 100,00 %
17.02.2016 14:03 5,4 C 84 % 1013,4 hPa 0,0 l/m 20,7 km/h (4 Bft) O 92 0 min 0,000 mm 0,0 UV-I 146 W/m 2,9 C -2,9 C 27,4 km/h (4 Bft) 100,00 %
17.02.2016 14:04 5,4 C 84 % 1013,4 hPa 0,0 l/m 19,1 km/h (3 Bft) O-NO 63 0 min 0,000 mm 0,0 UV-I 146 W/m 2,9 C -2,3 C 24,1 km/h (4 Bft) 93,33 %
17.02.2016 14:05 5,4 C 84 % 1013,4 hPa 0,0 l/m 13,9 km/h (3 Bft) NO 53 0 min 0,000 mm 0,0 UV-I 147 W/m 2,9 C 0,1 C 16,1 km/h (3 Bft) 100,00 %
17.02.2016 14:06 5,4 C 85 % 1013,4 hPa 0,0 l/m 14,6 km/h (3 Bft) O-NO 71 0 min 0,000 mm 0,0 UV-I 147 W/m 3,1 C -0,2 C 19,3 km/h (3 Bft) 100,00 %
17.02.2016 14:07 5,4 C 85 % 1013,4 hPa 0,0 l/m 14,2 km/h (3 Bft) O-NO 63 0 min 0,000 mm 0,0 UV-I 145 W/m 3,1 C -0,0 C 22,5 km/h (4 Bft) 100,00 %
17.02.2016 14:08 5,4 C 85 % 1013,4 hPa 0,0 l/m 16,6 km/h (3 Bft) NO 48 0 min 0,000 mm 0,0 UV-I 142 W/m 3,1 C -1,2 C 24,1 km/h (4 Bft) 100,00 %
17.02.2016 14:09 5,4 C 85 % 1013,4 hPa 0,0 l/m 15,0 km/h (3 Bft) O-NO 71 0 min 0,000 mm 0,0 UV-I 141 W/m 3,1 C -0,4 C 24,1 km/h (4 Bft) 100,00 %
17.02.2016 14:10 5,4 C 85 % 1013,4 hPa 0,0 l/m 17,0 km/h (3 Bft) O-NO 64 0 min 0,000 mm 0,0 UV-I 139 W/m 3,1 C -1,4 C 22,5 km/h (4 Bft) 100,00 %
17.02.2016 14:11 5,4 C 85 % 1013,5 hPa 0,0 l/m 17,4 km/h (3 Bft) O 80 0 min 0,000 mm 0,0 UV-I 139 W/m 3,1 C -1,6 C 25,7 km/h (4 Bft) 100,00 %
17.02.2016 14:12 5,4 C 85 % 1013,5 hPa 0,0 l/m 19,7 km/h (3 Bft) O-NO 63 0 min 0,000 mm 0,0 UV-I 140 W/m 3,1 C -2,5 C 24,1 km/h (4 Bft) 100,00 %
17.02.2016 14:13 5,4 C 85 % 1013,5 hPa 0,0 l/m 14,3 km/h (3 Bft) O-NO 64 0 min 0,000 mm 0,0 UV-I 141 W/m 3,1 C -0,1 C 19,3 km/h (3 Bft) 100,00 %
17.02.2016 14:14 5,4 C 85 % 1013,5 hPa 0,0 l/m 8,1 km/h (2 Bft) NO 43 0 min 0,000 mm 0,0 UV-I 144 W/m 3,1 C 3,9 C 12,9 km/h (3 Bft) 100,00 %
17.02.2016 14:15 5,5 C 85 % 1013,6 hPa 0,0 l/m 10,2 km/h (2 Bft) O-NO 61 0 min 0,000 mm 0,0 UV-I 146 W/m 3,2 C 2,5 C 16,1 km/h (3 Bft) 100,00 %
17.02.2016 14:16 5,5 C 85 % 1013,5 hPa 0,0 l/m 12,7 km/h (3 Bft) NO 46 0 min 0,000 mm 0,0 UV-I 148 W/m 3,2 C 0,9 C 16,1 km/h (3 Bft) 100,00 %
17.02.2016 14:17 5,5 C 85 % 1013,5 hPa 0,0 l/m 13,1 km/h (3 Bft) NO 47 0 min 0,000 mm 0,0 UV-I 148 W/m 3,2 C 0,7 C 17,7 km/h (3 Bft) 100,00 %
17.02.2016 14:18 5,5 C 85 % 1013,6 hPa 0,0 l/m 12,8 km/h (3 Bft) O-NO 58 0 min 0,000 mm 0,0 UV-I 147 W/m 3,2 C 0,9 C 16,1 km/h (3 Bft) 100,00 %
17.02.2016 14:19 5,5 C 85 % 1013,5 hPa 0,0 l/m 10,1 km/h (2 Bft) NO 55 0 min 0,000 mm 0,0 UV-I 144 W/m 3,2 C 2,6 C 14,5 km/h (3 Bft) 100,00 %
17.02.2016 14:20 5,5 C 85 % 1013,5 hPa 0,0 l/m 10,7 km/h (2 Bft) O-NO 60 0 min 0,000 mm 0,0 UV-I 142 W/m 3,2 C 2,2 C 14,5 km/h (3 Bft) 100,00 %
17.02.2016 14:21 5,5 C 85 % 1013,5 hPa 0,0 l/m 10,8 km/h (2 Bft) O-NO 73 0 min 0,000 mm 0,0 UV-I 141 W/m 3,2 C 2,1 C 14,5 km/h (3 Bft) 100,00 %
17.02.2016 14:22 5,6 C 85 % 1013,5 hPa 0,0 l/m 12,1 km/h (2 Bft) NO 40 0 min 0,000 mm 0,0 UV-I 139 W/m 3,3 C 1,4 C 17,7 km/h (3 Bft) 100,00 %
17.02.2016 14:23 5,5 C 85 % 1013,5 hPa 0,0 l/m 8,4 km/h (2 Bft) NO 56 0 min 0,000 mm 0,0 UV-I 137 W/m 3,2 C 3,8 C 11,3 km/h (2 Bft) 100,00 %
17.02.2016 14:24 5,6 C 85 % 1013,5 hPa 0,0 l/m 11,7 km/h (2 Bft) O 94 0 min 0,000 mm 0,0 UV-I 136 W/m 3,3 C 1,6 C 17,7 km/h (3 Bft) 100,00 %
17.02.2016 14:25 5,6 C 85 % 1013,6 hPa 0,0 l/m 10,4 km/h (2 Bft) O-NO 77 0 min 0,000 mm 0,0 UV-I 135 W/m 3,3 C 2,5 C 14,5 km/h (3 Bft) 100,00 %
17.02.2016 14:26 5,6 C 85 % 1013,6 hPa 0,0 l/m 14,1 km/h (3 Bft) O-NO 77 0 min 0,000 mm 0,0 UV-I 137 W/m 3,3 C 0,3 C 19,3 km/h (3 Bft) 100,00 %
17.02.2016 14:27 5,6 C 85 % 1013,6 hPa 0,0 l/m 13,3 km/h (3 Bft) O 87 0 min 0,000 mm 0,0 UV-I 141 W/m 3,3 C 0,7 C 17,7 km/h (3 Bft) 100,00 %
17.02.2016 14:28 5,6 C 85 % 1013,6 hPa 0,0 l/m 11,8 km/h (2 Bft) O-NO 72 0 min 0,000 mm 0,0 UV-I 143 W/m 3,3 C 1,6 C 17,7 km/h (3 Bft) 100,00 %
17.02.2016 14:29 5,6 C 85 % 1013,7 hPa 0,0 l/m 11,6 km/h (2 Bft) O 80 0 min 0,000 mm 0,0 UV-I 145 W/m 3,3 C 1,7 C 16,1 km/h (3 Bft) 100,00 %
17.02.2016 14:30 5,6 C 85 % 1013,7 hPa 0,0 l/m 12,2 km/h (2 Bft) O-NO 76 0 min 0,000 mm 0,0 UV-I 147 W/m 3,3 C 1,3 C 16,1 km/h (3 Bft) 100,00 %
17.02.2016 14:31 5,6 C 85 % 1013,6 hPa 0,0 l/m 13,3 km/h (3 Bft) O 92 0 min 0,000 mm 0,0 UV-I 149 W/m 3,3 C 0,7 C 16,1 km/h (3 Bft) 100,00 %
17.02.2016 14:32 5,6 C 85 % 1013,6 hPa 0,0 l/m 12,7 km/h (3 Bft) O-NO 65 0 min 0,000 mm 0,0 UV-I 149 W/m 3,3 C 1,0 C 16,1 km/h (3 Bft) 95,83 %
17.02.2016 14:33 5,6 C 85 % 1013,6 hPa 0,0 l/m 16,2 km/h (3 Bft) NO 46 0 min 0,000 mm 0,0 UV-I 149 W/m 3,3 C -0,8 C 22,5 km/h (4 Bft) 95,65 %
17.02.2016 14:34 5,6 C 84 % 1013,6 hPa 0,0 l/m 11,6 km/h (2 Bft) O 94 0 min 0,000 mm 0,0 UV-I 150 W/m 3,1 C 1,7 C 17,7 km/h (3 Bft) 100,00 %
17.02.2016 14:35 5,6 C 84 % 1013,6 hPa 0,0 l/m 6,0 km/h (2 Bft) O-NO 65 0 min 0,000 mm 0,0 UV-I 151 W/m 3,1 C 5,6 C 9,7 km/h (2 Bft) 100,00 %
17.02.2016 14:36 5,6 C 85 % 1013,6 hPa 0,0 l/m 8,7 km/h (2 Bft) O 90 0 min 0,000 mm 0,0 UV-I 150 W/m 3,3 C 3,7 C 17,7 km/h (3 Bft) 100,00 %
17.02.2016 14:37 5,6 C 85 % 1013,6 hPa 0,0 l/m 13,5 km/h (3 Bft) O-NO 66 0 min 0,000 mm 0,0 UV-I 152 W/m 3,3 C 0,6 C 19,3 km/h (3 Bft) 100,00 %
17.02.2016 14:38 5,6 C 85 % 1013,6 hPa 0,0 l/m 9,5 km/h (2 Bft) O-NO 76 0 min 0,000 mm 0,0 UV-I 152 W/m 3,3 C 3,1 C 14,5 km/h (3 Bft) 96,30 %
17.02.2016 14:39 5,6 C 85 % 1013,6 hPa 0,0 l/m 13,5 km/h (3 Bft) O-NO 60 0 min 0,000 mm 0,0 UV-I 155 W/m 3,3 C 0,6 C 17,7 km/h (3 Bft) 100,00 %
17.02.2016 14:40 5,6 C 84 % 1013,6 hPa 0,0 l/m 6,2 km/h (2 Bft) O-NO 71 0 min 0,000 mm 0,0 UV-I 152 W/m 3,1 C 5,6 C 8,0 km/h (2 Bft) 100,00 %
17.02.2016 14:41 5,6 C 85 % 1013,7 hPa 0,0 l/m 8,8 km/h (2 Bft) O-NO 63 0 min 0,000 mm 0,0 UV-I 148 W/m 3,3 C 3,6 C 12,9 km/h (3 Bft) 100,00 %
17.02.2016 14:42 5,6 C 85 % 1013,6 hPa 0,0 l/m 7,7 km/h (2 Bft) O-NO 78 0 min 0,000 mm 0,0 UV-I 150 W/m 3,3 C 4,5 C 12,9 km/h (3 Bft) 100,00 %
17.02.2016 14:43 5,6 C 85 % 1013,7 hPa 0,0 l/m 11,1 km/h (2 Bft) O-NO 59 0 min 0,000 mm 0,0 UV-I 154 W/m 3,3 C 2,0 C 16,1 km/h (3 Bft) 100,00 %
17.02.2016 14:44 5,6 C 84 % 1013,6 hPa 0,0 l/m 10,2 km/h (2 Bft) NO 44 0 min 0,000 mm 0,0 UV-I 158 W/m 3,1 C 2,6 C 16,1 km/h (3 Bft) 100,00 %
17.02.2016 14:45 5,6 C 85 % 1013,6 hPa 0,0 l/m 8,7 km/h (2 Bft) O-NO 69 0 min 0,000 mm 0,0 UV-I 162 W/m 3,3 C 3,7 C 12,9 km/h (3 Bft) 100,00 %
17.02.2016 14:46 5,6 C 85 % 1013,7 hPa 0,0 l/m 9,7 km/h (2 Bft) O-NO 69 0 min 0,000 mm 0,0 UV-I 166 W/m 3,3 C 2,9 C 16,1 km/h (3 Bft) 100,00 %
17.02.2016 14:47 5,6 C 85 % 1013,7 hPa 0,0 l/m 9,3 km/h (2 Bft) NO 53 0 min 0,000 mm 0,0 UV-I 166 W/m 3,3 C 3,2 C 16,1 km/h (3 Bft) 100,00 %
17.02.2016 14:48 5,6 C 85 % 1013,7 hPa 0,0 l/m 8,4 km/h (2 Bft) NO 42 0 min 0,000 mm 0,0 UV-I 167 W/m 3,3 C 3,9 C 9,7 km/h (2 Bft) 100,00 %
17.02.2016 14:49 5,6 C 85 % 1013,7 hPa 0,0 l/m 5,4 km/h (1 Bft) O-NO 66 0 min 0,000 mm 0,0 UV-I 165 W/m 3,3 C 5,6 C 9,7 km/h (2 Bft) 100,00 %
17.02.2016 14:50 5,7 C 86 % 1013,7 hPa 0,0 l/m 7,5 km/h (2 Bft) O 83 0 min 0,000 mm 0,0 UV-I 162 W/m 3,5 C 4,8 C 16,1 km/h (3 Bft) 100,00 %
17.02.2016 14:51 5,7 C 85 % 1013,7 hPa 0,0 l/m 9,7 km/h (2 Bft) NO 51 0 min 0,000 mm 0,0 UV-I 159 W/m 3,4 C 3,1 C 12,9 km/h (3 Bft) 100,00 %
17.02.2016 14:52 5,7 C 84 % 1013,7 hPa 0,0 l/m 10,8 km/h (2 Bft) NO 51 0 min 0,000 mm 0,0 UV-I 156 W/m 3,2 C 2,3 C 16,1 km/h (3 Bft) 100,00 %
17.02.2016 14:53 5,6 C 84 % 1013,7 hPa 0,0 l/m 10,9 km/h (2 Bft) NO 49 0 min 0,000 mm 0,0 UV-I 154 W/m 3,1 C 2,1 C 12,9 km/h (3 Bft) 100,00 %
17.02.2016 14:54 5,6 C 84 % 1013,8 hPa 0,0 l/m 11,2 km/h (2 Bft) O-NO 73 0 min 0,000 mm 0,0 UV-I 154 W/m 3,1 C 1,9 C 14,5 km/h (3 Bft) 100,00 %
17.02.2016 14:55 5,6 C 84 % 1013,7 hPa 0,0 l/m 10,2 km/h (2 Bft) O-NO 63 0 min 0,000 mm 0,0 UV-I 153 W/m 3,1 C 2,6 C 12,9 km/h (3 Bft) 100,00 %
17.02.2016 14:56 5,6 C 84 % 1013,7 hPa 0,0 l/m 7,7 km/h (2 Bft) O-NO 67 0 min 0,000 mm 0,0 UV-I 146 W/m 3,1 C 4,5 C 11,3 km/h (2 Bft) 100,00 %
17.02.2016 14:57 5,7 C 85 % 1013,8 hPa 0,0 l/m 8,0 km/h (2 Bft) O-NO 70 0 min 0,000 mm 0,0 UV-I 145 W/m 3,4 C 4,3 C 12,9 km/h (3 Bft) 100,00 %
17.02.2016 14:58 5,7 C 85 % 1013,8 hPa 0,0 l/m 9,5 km/h (2 Bft) O-NO 77 0 min 0,000 mm 0,0 UV-I 145 W/m 3,4 C 3,2 C 14,5 km/h (3 Bft) 100,00 %
17.02.2016 14:59 5,7 C 85 % 1013,8 hPa 0,0 l/m 10,3 km/h (2 Bft) O-NO 74 0 min 0,000 mm 0,0 UV-I 146 W/m 3,4 C 2,6 C 14,5 km/h (3 Bft) 100,00 %
17.02.2016 15:00 5,7 C 84 % 1013,8 hPa 0,0 l/m 5,0 km/h (1 Bft) O-NO 60 0 min 0,000 mm 0,0 UV-I 149 W/m 3,2 C 5,7 C 6,4 km/h (2 Bft) 95,65 %
17.02.2016 15:01 5,7 C 84 % 1013,8 hPa 0,0 l/m 4,1 km/h (1 Bft) NO 55 0 min 0,076 mm 0,0 UV-I 151 W/m 3,2 C 5,7 C 4,8 km/h (1 Bft) 100,00 %
17.02.2016 15:02 5,7 C 85 % 1013,9 hPa 0,0 l/m 3,9 km/h (1 Bft) NO 44 0 min 0,000 mm 0,0 UV-I 150 W/m 3,4 C 5,7 C 4,8 km/h (1 Bft) 91,67 %
17.02.2016 15:03 5,7 C 85 % 1013,8 hPa 0,0 l/m 4,2 km/h (1 Bft) N-NO 22 0 min 0,000 mm 0,0 UV-I 148 W/m 3,4 C 5,7 C 6,4 km/h (2 Bft) 100,00 %
17.02.2016 15:04 5,7 C 86 % 1014,0 hPa 0,0 l/m 3,2 km/h (1 Bft) N-NO 28 0 min 0,000 mm 0,0 UV-I 148 W/m 3,5 C 5,7 C 4,8 km/h (1 Bft) 96,55 %
17.02.2016 15:05 5,7 C 85 % 1014,0 hPa 0,0 l/m 4,2 km/h (1 Bft) N-NO 28 0 min 0,000 mm 0,0 UV-I 149 W/m 3,4 C 5,7 C 6,4 km/h (2 Bft) 100,00 %
17.02.2016 15:06 5,7 C 85 % 1013,9 hPa 0,0 l/m 3,4 km/h (1 Bft) N-NO 22 0 min 0,000 mm 0,0 UV-I 148 W/m 3,4 C 5,7 C 4,8 km/h (1 Bft) 95,83 %
17.02.2016 15:07 5,7 C 87 % 1013,8 hPa 0,0 l/m 5,5 km/h (1 Bft) N-NO 21 0 min 0,000 mm 0,0 UV-I 148 W/m 3,7 C 5,7 C 8,0 km/h (2 Bft) 100,00 %
17.02.2016 15:08 5,7 C 86 % 1013,8 hPa 0,0 l/m 6,1 km/h (2 Bft) N-NO 27 0 min 0,000 mm 0,0 UV-I 148 W/m 3,5 C 5,7 C 6,4 km/h (2 Bft) 96,30 %
17.02.2016 15:09 5,7 C 87 % 1013,8 hPa 0,0 l/m 5,6 km/h (1 Bft) NO 35 0 min 0,000 mm 0,0 UV-I 148 W/m 3,7 C 5,7 C 6,4 km/h (2 Bft) 100,00 %
17.02.2016 15:10 5,7 C 87 % 1013,9 hPa 0,0 l/m 5,6 km/h (1 Bft) NO 52 0 min 0,000 mm 0,0 UV-I 147 W/m 3,7 C 5,7 C 6,4 km/h (2 Bft) 96,30 %
17.02.2016 15:11 5,7 C 86 % 1013,8 hPa 0,0 l/m 4,7 km/h (1 Bft) NO 51 0 min 0,000 mm 0,0 UV-I 146 W/m 3,5 C 5,7 C 6,4 km/h (2 Bft) 96,15 %
17.02.2016 15:12 5,7 C 86 % 1013,8 hPa 0,0 l/m 3,0 km/h (1 Bft) N-NO 16 0 min 0,000 mm 0,0 UV-I 144 W/m 3,5 C 5,7 C 4,8 km/h (1 Bft) 95,83 %
17.02.2016 15:13 5,7 C 86 % 1013,8 hPa 0,0 l/m 4,3 km/h (1 Bft) NO 41 0 min 0,000 mm 0,0 UV-I 142 W/m 3,5 C 5,7 C 6,4 km/h (2 Bft) 95,65 %
17.02.2016 15:14 5,7 C 86 % 1013,8 hPa 0,0 l/m 5,6 km/h (1 Bft) O-NO 59 0 min 0,000 mm 0,0 UV-I 140 W/m 3,5 C 5,7 C 9,7 km/h (2 Bft) 95,83 %
17.02.2016 15:15 5,7 C 86 % 1013,8 hPa 0,0 l/m 8,0 km/h (2 Bft) O-NO 59 0 min 0,000 mm 0,0 UV-I 136 W/m 3,5 C 4,3 C 9,7 km/h (2 Bft) 95,65 %
17.02.2016 15:16 5,7 C 86 % 1013,8 hPa 0,0 l/m 6,6 km/h (2 Bft) O-NO 60 0 min 0,000 mm 0,0 UV-I 134 W/m 3,5 C 5,6 C 9,7 km/h (2 Bft) 96,30 %
17.02.2016 15:17 5,7 C 85 % 1013,8 hPa 0,0 l/m 8,5 km/h (2 Bft) O-NO 59 0 min 0,000 mm 0,0 UV-I 131 W/m 3,4 C 3,9 C 11,3 km/h (2 Bft) 100,00 %
17.02.2016 15:18 5,7 C 85 % 1013,8 hPa 0,0 l/m 8,8 km/h (2 Bft) NO 52 0 min 0,000 mm 0,0 UV-I 128 W/m 3,4 C 3,7 C 12,9 km/h (3 Bft) 96,30 %
17.02.2016 15:19 5,7 C 85 % 1013,8 hPa 0,0 l/m 7,4 km/h (2 Bft) O-NO 58 0 min 0,000 mm 0,0 UV-I 127 W/m 3,4 C 4,8 C 8,0 km/h (2 Bft) 100,00 %
17.02.2016 15:20 5,6 C 85 % 1013,8 hPa 0,0 l/m 4,3 km/h (1 Bft) O-NO 58 0 min 0,000 mm 0,0 UV-I 124 W/m 3,3 C 5,6 C 6,4 km/h (2 Bft) 96,30 %
17.02.2016 15:21 5,6 C 85 % 1013,7 hPa 0,0 l/m 3,5 km/h (1 Bft) NO 51 0 min 0,000 mm 0,0 UV-I 120 W/m 3,3 C 5,6 C 4,8 km/h (1 Bft) 100,00 %
17.02.2016 15:22 5,6 C 85 % 1013,7 hPa 0,0 l/m 4,6 km/h (1 Bft) N-NO 30 0 min 0,000 mm 0,0 UV-I 114 W/m 3,3 C 5,6 C 6,4 km/h (2 Bft) 96,88 %
17.02.2016 15:23 5,6 C 86 % 1013,8 hPa 0,0 l/m 2,0 km/h (1 Bft) N-NO 22 0 min 0,000 mm 0,0 UV-I 108 W/m 3,4 C 5,6 C 3,2 km/h (1 Bft) 100,00 %
17.02.2016 15:24 5,6 C 86 % 1013,7 hPa 0,0 l/m 8,4 km/h (2 Bft) NO 45 0 min 0,000 mm 0,0 UV-I 106 W/m 3,4 C 3,9 C 12,9 km/h (3 Bft) 91,67 %
17.02.2016 15:25 5,6 C 86 % 1013,8 hPa 0,0 l/m 7,8 km/h (2 Bft) O-NO 63 0 min 0,000 mm 0,0 UV-I 102 W/m 3,4 C 4,4 C 11,3 km/h (2 Bft) 100,00 %
17.02.2016 15:26 5,6 C 85 % 1013,9 hPa 0,0 l/m 8,1 km/h (2 Bft) O-NO 70 0 min 0,000 mm 0,0 UV-I 100 W/m 3,3 C 4,2 C 11,3 km/h (2 Bft) 96,55 %
17.02.2016 15:27 5,6 C 85 % 1013,9 hPa 0,0 l/m 8,3 km/h (2 Bft) NO 47 0 min 0,000 mm 0,0 UV-I 98 W/m 3,3 C 4,0 C 9,7 km/h (2 Bft) 93,33 %
17.02.2016 15:28 5,5 C 85 % 1013,9 hPa 0,0 l/m 6,8 km/h (2 Bft) O-NO 58 0 min 0,000 mm 0,0 UV-I 99 W/m 3,2 C 5,2 C 8,0 km/h (2 Bft) 100,00 %
17.02.2016 15:29 5,5 C 85 % 1013,9 hPa 0,0 l/m 7,2 km/h (2 Bft) O-NO 67 0 min 0,000 mm 0,0 UV-I 100 W/m 3,2 C 4,8 C 9,7 km/h (2 Bft) 95,83 %
17.02.2016 15:30 5,4 C 85 % 1013,9 hPa 0,0 l/m 7,0 km/h (2 Bft) O-NO 78 0 min 0,000 mm 0,0 UV-I 98 W/m 3,1 C 4,9 C 9,7 km/h (2 Bft) 100,00 %
17.02.2016 15:31 5,4 C 85 % 1013,9 hPa 0,0 l/m 8,1 km/h (2 Bft) NO 41 0 min 0,000 mm 0,0 UV-I 98 W/m 3,1 C 3,9 C 9,7 km/h (2 Bft) 92,59 %
17.02.2016 15:32 5,4 C 85 % 1013,9 hPa 0,0 l/m 8,3 km/h (2 Bft) NO 45 0 min 0,000 mm 0,0 UV-I 97 W/m 3,1 C 3,8 C 12,9 km/h (3 Bft) 94,44 %
17.02.2016 15:33 5,4 C 85 % 1013,9 hPa 0,0 l/m 7,2 km/h (2 Bft) O-NO 57 0 min 0,000 mm 0,0 UV-I 98 W/m 3,1 C 4,7 C 9,7 km/h (2 Bft) 100,00 %
17.02.2016 15:34 5,4 C 86 % 1013,9 hPa 0,0 l/m 7,0 km/h (2 Bft) NO 55 0 min 0,000 mm 0,0 UV-I 98 W/m 3,3 C 4,9 C 9,7 km/h (2 Bft) 100,00 %
17.02.2016 15:35 5,4 C 85 % 1013,9 hPa 0,0 l/m 7,4 km/h (2 Bft) O-NO 68 0 min 0,000 mm 0,0 UV-I 96 W/m 3,1 C 4,5 C 9,7 km/h (2 Bft) 100,00 %
17.02.2016 15:36 5,3 C 86 % 1013,9 hPa 0,0 l/m 5,6 km/h (1 Bft) NO 53 0 min 0,000 mm 0,0 UV-I 92 W/m 3,2 C 5,3 C 6,4 km/h (2 Bft) 100,00 %
17.02.2016 15:37 5,3 C 86 % 1013,9 hPa 0,0 l/m 6,6 km/h (2 Bft) NO 51 0 min 0,000 mm 0,0 UV-I 81 W/m 3,2 C 5,1 C 9,7 km/h (2 Bft) 100,00 %
17.02.2016 15:38 5,4 C 86 % 1013,9 hPa 0,0 l/m 8,1 km/h (2 Bft) NO 47 0 min 0,000 mm 0,0 UV-I 72 W/m 3,3 C 3,9 C 11,3 km/h (2 Bft) 96,15 %
17.02.2016 15:39 5,3 C 86 % 1013,9 hPa 0,0 l/m 8,9 km/h (2 Bft) O-NO 66 0 min 0,000 mm 0,0 UV-I 68 W/m 3,2 C 3,2 C 12,9 km/h (3 Bft) 100,00 %
17.02.2016 15:40 5,3 C 85 % 1013,9 hPa 0,0 l/m 7,9 km/h (2 Bft) O-NO 65 0 min 0,000 mm 0,0 UV-I 68 W/m 3,0 C 4,0 C 11,3 km/h (2 Bft) 100,00 %
17.02.2016 15:41 5,3 C 85 % 1013,9 hPa 0,0 l/m 6,6 km/h (2 Bft) O-NO 66 0 min 0,000 mm 0,0 UV-I 70 W/m 3,0 C 5,1 C 9,7 km/h (2 Bft) 100,00 %
17.02.2016 15:42 5,3 C 85 % 1013,9 hPa 0,0 l/m 6,8 km/h (2 Bft) O-NO 66 0 min 0,000 mm 0,0 UV-I 72 W/m 3,0 C 5,0 C 8,0 km/h (2 Bft) 100,00 %
17.02.2016 15:43 5,3 C 85 % 1013,9 hPa 0,0 l/m 7,5 km/h (2 Bft) NO 53 0 min 0,000 mm 0,0 UV-I 72 W/m 3,0 C 4,3 C 11,3 km/h (2 Bft) 100,00 %
17.02.2016 15:44 5,3 C 85 % 1013,9 hPa 0,0 l/m 4,7 km/h (1 Bft) O-NO 66 0 min 0,000 mm 0,0 UV-I 72 W/m 3,0 C 5,3 C 8,0 km/h (2 Bft) 100,00 %
17.02.2016 15:45 5,3 C 85 % 1013,9 hPa 0,0 l/m 6,1 km/h (2 Bft) O-NO 65 0 min 0,000 mm 0,0 UV-I 71 W/m 3,0 C 5,3 C 8,0 km/h (2 Bft) 100,00 %
17.02.2016 15:46 5,3 C 86 % 1013,9 hPa 0,0 l/m 6,4 km/h (2 Bft) NO 53 0 min 0,000 mm 0,0 UV-I 69 W/m 3,2 C 5,3 C 8,0 km/h (2 Bft) 100,00 %
17.02.2016 15:47 5,2 C 86 % 1013,9 hPa 0,0 l/m 4,9 km/h (1 Bft) NO 44 0 min 0,000 mm 0,0 UV-I 65 W/m 3,1 C 5,2 C 6,4 km/h (2 Bft) 100,00 %
17.02.2016 15:48 5,2 C 86 % 1013,9 hPa 0,0 l/m 5,5 km/h (1 Bft) O-NO 57 0 min 0,000 mm 0,0 UV-I 60 W/m 3,1 C 5,2 C 8,0 km/h (2 Bft) 100,00 %
17.02.2016 15:49 5,2 C 86 % 1013,9 hPa 0,0 l/m 7,9 km/h (2 Bft) O-NO 74 0 min 0,000 mm 0,0 UV-I 54 W/m 3,1 C 3,9 C 12,9 km/h (3 Bft) 100,00 %
17.02.2016 15:50 5,2 C 86 % 1013,9 hPa 0,0 l/m 7,8 km/h (2 Bft) NO 56 0 min 0,000 mm 0,0 UV-I 53 W/m 3,1 C 4,0 C 9,7 km/h (2 Bft) 100,00 %
17.02.2016 15:51 5,2 C 86 % 1013,9 hPa 0,0 l/m 8,5 km/h (2 Bft) NO 39 0 min 0,000 mm 0,0 UV-I 53 W/m 3,1 C 3,4 C 9,7 km/h (2 Bft) 92,86 %
17.02.2016 15:52 5,2 C 86 % 1013,9 hPa 0,0 l/m 5,5 km/h (1 Bft) O-NO 58 0 min 0,000 mm 0,0 UV-I 55 W/m 3,1 C 5,2 C 8,0 km/h (2 Bft) 100,00 %
17.02.2016 15:53 5,2 C 87 % 1013,9 hPa 0,0 l/m 3,8 km/h (1 Bft) NO 52 0 min 0,000 mm 0,0 UV-I 58 W/m 3,2 C 5,2 C 4,8 km/h (1 Bft) 100,00 %
17.02.2016 15:54 5,2 C 87 % 1013,9 hPa 0,0 l/m 5,0 km/h (1 Bft) NO 48 0 min 0,000 mm 0,0 UV-I 56 W/m 3,2 C 5,2 C 6,4 km/h (2 Bft) 100,00 %
17.02.2016 15:55 5,2 C 87 % 1013,9 hPa 0,0 l/m 2,5 km/h (1 Bft) NO 48 0 min 0,000 mm 0,0 UV-I 58 W/m 3,2 C 5,2 C 3,2 km/h (1 Bft) 100,00 %
17.02.2016 15:56 5,2 C 87 % 1013,9 hPa 0,0 l/m 3,6 km/h (1 Bft) NO 38 0 min 0,000 mm 0,0 UV-I 58 W/m 3,2 C 5,2 C 4,8 km/h (1 Bft) 96,30 %
17.02.2016 15:57 5,2 C 87 % 1013,9 hPa 0,0 l/m 2,3 km/h (1 Bft) NO 38 0 min 0,000 mm 0,0 UV-I 56 W/m 3,2 C 5,2 C 4,8 km/h (1 Bft) 95,65 %
17.02.2016 15:58 5,2 C 87 % 1013,8 hPa 0,0 l/m 3,0 km/h (1 Bft) O-NO 76 0 min 0,000 mm 0,0 UV-I 52 W/m 3,2 C 5,2 C 3,2 km/h (1 Bft) 100,00 %
17.02.2016 15:59 5,2 C 87 % 1013,9 hPa 0,0 l/m 4,3 km/h (1 Bft) O-NO 58 0 min 0,000 mm 0,0 UV-I 47 W/m 3,2 C 5,2 C 4,8 km/h (1 Bft) 100,00 %
17.02.2016 16:00 5,2 C 87 % 1013,9 hPa 0,0 l/m 4,5 km/h (1 Bft) O-NO 70 0 min 0,000 mm 0,0 UV-I 46 W/m 3,2 C 5,2 C 8,0 km/h (2 Bft) 100,00 %
17.02.2016 16:01 5,2 C 87 % 1013,9 hPa 0,0 l/m 7,4 km/h (2 Bft) O-NO 65 0 min 0,051 mm 0,0 UV-I 47 W/m 3,2 C 4,3 C 9,7 km/h (2 Bft) 95,65 %
17.02.2016 16:02 5,2 C 86 % 1013,9 hPa 0,0 l/m 4,6 km/h (1 Bft) O-NO 63 0 min 0,000 mm 0,0 UV-I 50 W/m 3,1 C 5,2 C 6,4 km/h (2 Bft) 95,83 %
17.02.2016 16:03 5,2 C 86 % 1013,9 hPa 0,0 l/m 5,1 km/h (1 Bft) O-NO 59 0 min 0,000 mm 0,0 UV-I 54 W/m 3,1 C 5,2 C 6,4 km/h (2 Bft) 100,00 %
17.02.2016 16:04 5,2 C 86 % 1013,9 hPa 0,0 l/m 5,1 km/h (1 Bft) NO 53 0 min 0,000 mm 0,0 UV-I 57 W/m 3,1 C 5,2 C 6,4 km/h (2 Bft) 100,00 %
17.02.2016 16:05 5,2 C 87 % 1013,9 hPa 0,0 l/m 3,8 km/h (1 Bft) O-NO 61 0 min 0,000 mm 0,0 UV-I 56 W/m 3,2 C 5,2 C 6,4 km/h (2 Bft) 100,00 %
17.02.2016 16:06 5,2 C 87 % 1013,9 hPa 0,0 l/m 5,0 km/h (1 Bft) NO 50 0 min 0,000 mm 0,0 UV-I 58 W/m 3,2 C 5,2 C 6,4 km/h (2 Bft) 100,00 %
17.02.2016 16:07 5,2 C 87 % 1013,9 hPa 0,0 l/m 3,6 km/h (1 Bft) O-NO 63 0 min 0,000 mm 0,0 UV-I 58 W/m 3,2 C 5,2 C 6,4 km/h (2 Bft) 95,83 %
17.02.2016 16:08 5,1 C 86 % 1013,9 hPa 0,0 l/m 4,1 km/h (1 Bft) O-NO 63 0 min 0,000 mm 0,0 UV-I 55 W/m 3,0 C 5,1 C 4,8 km/h (1 Bft) 100,00 %
17.02.2016 16:09 5,1 C 86 % 1013,9 hPa 0,0 l/m 4,1 km/h (1 Bft) O-NO 63 0 min 0,000 mm 0,0 UV-I 53 W/m 3,0 C 5,1 C 4,8 km/h (1 Bft) 100,00 %
17.02.2016 16:10 5,1 C 86 % 1013,9 hPa 0,0 l/m 3,5 km/h (1 Bft) O-NO 63 0 min 0,000 mm 0,0 UV-I 50 W/m 3,0 C 5,1 C 4,8 km/h (1 Bft) 100,00 %
17.02.2016 16:11 5,1 C 86 % 1013,9 hPa 0,0 l/m 3,5 km/h (1 Bft) O-NO 63 0 min 0,000 mm 0,0 UV-I 47 W/m 3,0 C 5,1 C 4,8 km/h (1 Bft) 100,00 %
17.02.2016 16:12 5,1 C 86 % 1014,0 hPa 0,0 l/m 3,5 km/h (1 Bft) O-NO 59 0 min 0,000 mm 0,0 UV-I 47 W/m 3,0 C 5,1 C 4,8 km/h (1 Bft) 100,00 %
17.02.2016 16:13 5,1 C 87 % 1014,0 hPa 0,0 l/m 3,2 km/h (1 Bft) O-NO 59 0 min 0,000 mm 0,0 UV-I 46 W/m 3,1 C 5,1 C 4,8 km/h (1 Bft) 100,00 %
17.02.2016 16:14 5,2 C 87 % 1013,9 hPa 0,0 l/m 2,4 km/h (1 Bft) O-NO 59 0 min 0,000 mm 0,0 UV-I 45 W/m 3,2 C 5,2 C 3,2 km/h (1 Bft) 100,00 %
17.02.2016 16:15 5,2 C 88 % 1013,9 hPa 0,0 l/m 2,5 km/h (1 Bft) O-NO 59 0 min 0,000 mm 0,0 UV-I 42 W/m 3,4 C 5,2 C 3,2 km/h (1 Bft) 100,00 %
17.02.2016 16:16 5,2 C 88 % 1013,9 hPa 0,0 l/m 1,4 km/h (1 Bft) O-NO 59 0 min 0,000 mm 0,0 UV-I 38 W/m 3,4 C 5,2 C 3,2 km/h (1 Bft) 100,00 %
17.02.2016 16:17 5,2 C 88 % 1013,9 hPa 0,0 l/m 0,1 km/h (0 Bft) O-NO 59 0 min 0,000 mm 0,0 UV-I 34 W/m 3,4 C 5,2 C 1,6 km/h (1 Bft) 100,00 %
17.02.2016 16:18 5,2 C 88 % 1014,0 hPa 0,0 l/m 0,4 km/h (0 Bft) O-NO 59 0 min 0,000 mm 0,0 UV-I 31 W/m 3,4 C 5,2 C 1,6 km/h (1 Bft) 100,00 %
17.02.2016 16:19 5,2 C 88 % 1014,0 hPa 0,0 l/m 1,9 km/h (1 Bft) O-NO 59 0 min 0,000 mm 0,0 UV-I 27 W/m 3,4 C 5,2 C 3,2 km/h (1 Bft) 100,00 %
17.02.2016 16:20 5,2 C 88 % 1014,0 hPa 0,0 l/m 1,5 km/h (1 Bft) O-NO 59 0 min 0,000 mm 0,0 UV-I 24 W/m 3,4 C 5,2 C 3,2 km/h (1 Bft) 100,00 %
17.02.2016 16:21 5,2 C 87 % 1014,0 hPa 0,0 l/m 1,3 km/h (1 Bft) O-NO 59 0 min 0,000 mm 0,0 UV-I 22 W/m 3,2 C 5,2 C 1,6 km/h (1 Bft) 100,00 %
17.02.2016 16:22 5,2 C 87 % 1014,0 hPa 0,0 l/m 0,6 km/h (0 Bft) O-NO 59 0 min 0,000 mm 0,0 UV-I 21 W/m 3,2 C 5,2 C 1,6 km/h (1 Bft) 95,65 %
17.02.2016 16:23 5,2 C 87 % 1014,0 hPa 0,0 l/m 0,0 km/h (0 Bft) O-NO 59 0 min 0,000 mm 0,0 UV-I 19 W/m 3,2 C 5,2 C 0,0 km/h (0 Bft) 100,00 %
17.02.2016 16:24 5,2 C 87 % 1014,0 hPa 0,0 l/m 0,0 km/h (0 Bft) O-NO 59 0 min 0,000 mm 0,0 UV-I 18 W/m 3,2 C 5,2 C 0,0 km/h (0 Bft) 100,00 %
17.02.2016 16:25 5,2 C 88 % 1014,0 hPa 0,0 l/m 0,3 km/h (0 Bft) O-NO 59 0 min 0,000 mm 0,0 UV-I 17 W/m 3,4 C 5,2 C 1,6 km/h (1 Bft) 96,55 %
17.02.2016 16:26 5,2 C 88 % 1014,0 hPa 0,0 l/m 0,0 km/h (0 Bft) O-NO 59 0 min 0,000 mm 0,0 UV-I 16 W/m 3,4 C 5,2 C 0,0 km/h (0 Bft) 100,00 %
17.02.2016 16:27 5,1 C 88 % 1014,0 hPa 0,0 l/m 1,0 km/h (0 Bft) O-NO 59 0 min 0,000 mm 0,0 UV-I 16 W/m 3,3 C 5,1 C 1,6 km/h (1 Bft) 96,15 %
17.02.2016 16:28 5,1 C 88 % 1014,0 hPa 0,0 l/m 0,1 km/h (0 Bft) O-NO 59 0 min 0,000 mm 0,0 UV-I 16 W/m 3,3 C 5,1 C 1,6 km/h (1 Bft) 100,00 %
17.02.2016 16:29 5,1 C 88 % 1014,0 hPa 0,0 l/m 0,0 km/h (0 Bft) O-NO 59 0 min 0,000 mm 0,0 UV-I 14 W/m 3,3 C 5,1 C 0,0 km/h (0 Bft) 100,00 %
17.02.2016 16:30 5,1 C 88 % 1014,1 hPa 0,0 l/m 0,0 km/h (0 Bft) O-NO 59 0 min 0,000 mm 0,0 UV-I 14 W/m 3,3 C 5,1 C 0,0 km/h (0 Bft) 100,00 %
17.02.2016 16:31 5,1 C 87 % 1014,0 hPa 0,0 l/m 0,0 km/h (0 Bft) O-NO 59 0 min 0,000 mm 0,0 UV-I 15 W/m 3,1 C 5,1 C 0,0 km/h (0 Bft) 100,00 %
17.02.2016 16:32 5,1 C 87 % 1014,0 hPa 0,0 l/m 0,0 km/h (0 Bft) O-NO 59 0 min 0,000 mm 0,0 UV-I 16 W/m 3,1 C 5,1 C 0,0 km/h (0 Bft) 95,83 %
17.02.2016 16:33 5,1 C 88 % 1014,0 hPa 0,0 l/m 0,0 km/h (0 Bft) O-NO 59 0 min 0,000 mm 0,0 UV-I 15 W/m 3,3 C 5,1 C 0,0 km/h (0 Bft) 100,00 %
17.02.2016 16:34 5,0 C 87 % 1013,9 hPa 0,0 l/m 0,0 km/h (0 Bft) O-NO 59 0 min 0,000 mm 0,0 UV-I 14 W/m 3,0 C 5,0 C 0,0 km/h (0 Bft) 100,00 %
17.02.2016 16:35 5,0 C 88 % 1013,9 hPa 0,0 l/m 0,1 km/h (0 Bft) O-NO 59 0 min 0,000 mm 0,0 UV-I 14 W/m 3,2 C 5,0 C 1,6 km/h (1 Bft) 100,00 %
17.02.2016 16:36 5,0 C 88 % 1014,0 hPa 0,0 l/m 1,2 km/h (1 Bft) O-NO 59 0 min 0,000 mm 0,0 UV-I 14 W/m 3,2 C 5,0 C 1,6 km/h (1 Bft) 100,00 %
17.02.2016 16:37 5,0 C 87 % 1014,0 hPa 0,0 l/m 0,6 km/h (0 Bft) O-NO 59 0 min 0,000 mm 0,0 UV-I 12 W/m 3,0 C 5,0 C 1,6 km/h (1 Bft) 95,65 %
17.02.2016 16:38 5,0 C 87 % 1014,0 hPa 0,0 l/m 0,4 km/h (0 Bft) O-NO 59 0 min 0,000 mm 0,0 UV-I 12 W/m 3,0 C 5,0 C 1,6 km/h (1 Bft) 100,00 %
17.02.2016 16:39 5,0 C 87 % 1014,1 hPa 0,0 l/m 0,0 km/h (0 Bft) O-NO 59 0 min 0,000 mm 0,0 UV-I 12 W/m 3,0 C 5,0 C 0,0 km/h (0 Bft) 100,00 %
17.02.2016 16:40 5,1 C 87 % 1014,1 hPa 0,0 l/m 1,9 km/h (1 Bft) O 96 0 min 0,000 mm 0,0 UV-I 12 W/m 3,1 C 5,1 C 3,2 km/h (1 Bft) 100,00 %
17.02.2016 16:41 5,1 C 88 % 1014,1 hPa 0,0 l/m 3,0 km/h (1 Bft) S 169 0 min 0,000 mm 0,0 UV-I 11 W/m 3,3 C 5,1 C 6,4 km/h (2 Bft) 100,00 %
17.02.2016 16:42 5,1 C 88 % 1014,1 hPa 0,0 l/m 5,3 km/h (1 Bft) S-SW 199 0 min 0,000 mm 0,0 UV-I 11 W/m 3,3 C 5,1 C 8,0 km/h (2 Bft) 100,00 %
17.02.2016 16:43 5,1 C 88 % 1014,1 hPa 0,0 l/m 3,7 km/h (1 Bft) S-SW 206 0 min 0,000 mm 0,0 UV-I 11 W/m 3,3 C 5,1 C 6,4 km/h (2 Bft) 100,00 %
17.02.2016 16:44 5,1 C 88 % 1014,1 hPa 0,0 l/m 9,7 km/h (2 Bft) W 265 0 min 0,000 mm 0,0 UV-I 11 W/m 3,3 C 2,4 C 14,5 km/h (3 Bft) 96,15 %
17.02.2016 16:45 5,1 C 88 % 1014,1 hPa 0,0 l/m 9,7 km/h (2 Bft) W-NW 292 0 min 0,000 mm 0,0 UV-I 11 W/m 3,3 C 2,4 C 14,5 km/h (3 Bft) 100,00 %
17.02.2016 16:46 5,1 C 87 % 1014,0 hPa 0,0 l/m 9,4 km/h (2 Bft) W 259 0 min 0,000 mm 0,0 UV-I 11 W/m 3,1 C 2,6 C 11,3 km/h (2 Bft) 100,00 %
17.02.2016 16:47 5,1 C 87 % 1014,0 hPa 0,0 l/m 10,0 km/h (2 Bft) W-SW 243 0 min 0,000 mm 0,0 UV-I 9 W/m 3,1 C 2,2 C 14,5 km/h (3 Bft) 100,00 %
17.02.2016 16:48 5,1 C 87 % 1014,0 hPa 0,0 l/m 10,9 km/h (2 Bft) W 278 0 min 0,000 mm 0,0 UV-I 9 W/m 3,1 C 1,6 C 12,9 km/h (3 Bft) 100,00 %
17.02.2016 16:49 5,1 C 87 % 1014,0 hPa 0,0 l/m 5,4 km/h (1 Bft) W 261 0 min 0,000 mm 0,0 UV-I 9 W/m 3,1 C 5,1 C 11,3 km/h (2 Bft) 100,00 %
17.02.2016 16:50 5,1 C 87 % 1014,0 hPa 0,0 l/m 3,1 km/h (1 Bft) W-SW 257 0 min 0,000 mm 0,0 UV-I 9 W/m 3,1 C 5,1 C 6,4 km/h (2 Bft) 100,00 %
17.02.2016 16:51 5,1 C 88 % 1014,1 hPa 0,0 l/m 4,5 km/h (1 Bft) W-SW 242 0 min 0,000 mm 0,0 UV-I 9 W/m 3,3 C 5,1 C 6,4 km/h (2 Bft) 100,00 %
17.02.2016 16:52 5,0 C 88 % 1014,1 hPa 0,0 l/m 5,3 km/h (1 Bft) SW 234 0 min 0,000 mm 0,0 UV-I 9 W/m 3,2 C 5,0 C 6,4 km/h (2 Bft) 100,00 %
17.02.2016 16:53 5,0 C 88 % 1014,1 hPa 0,0 l/m 8,0 km/h (2 Bft) W-SW 256 0 min 0,000 mm 0,0 UV-I 9 W/m 3,2 C 3,6 C 14,5 km/h (3 Bft) 100,00 %
17.02.2016 16:54 5,0 C 88 % 1014,2 hPa 0,0 l/m 8,7 km/h (2 Bft) W-SW 255 0 min 0,000 mm 0,0 UV-I 9 W/m 3,2 C 3,0 C 12,9 km/h (3 Bft) 100,00 %
17.02.2016 16:55 5,0 C 88 % 1014,2 hPa 0,0 l/m 8,6 km/h (2 Bft) W-SW 246 0 min 0,000 mm 0,0 UV-I 10 W/m 3,2 C 3,1 C 11,3 km/h (2 Bft) 100,00 %
17.02.2016 16:56 5,0 C 88 % 1014,2 hPa 0,0 l/m 13,2 km/h (3 Bft) W-SW 255 0 min 0,000 mm 0,0 UV-I 10 W/m 3,2 C 0,0 C 16,1 km/h (3 Bft) 100,00 %
17.02.2016 16:57 4,9 C 87 % 1014,2 hPa 0,0 l/m 12,3 km/h (3 Bft) SW 232 0 min 0,000 mm 0,0 UV-I 9 W/m 2,9 C 0,5 C 16,1 km/h (3 Bft) 100,00 %
17.02.2016 16:58 4,9 C 87 % 1014,2 hPa 0,0 l/m 8,0 km/h (2 Bft) W-SW 258 0 min 0,000 mm 0,0 UV-I 9 W/m 2,9 C 3,5 C 11,3 km/h (2 Bft) 95,65 %
17.02.2016 16:59 4,9 C 87 % 1014,2 hPa 0,0 l/m 8,0 km/h (2 Bft) W 277 0 min 0,000 mm 0,0 UV-I 9 W/m 2,9 C 3,5 C 14,5 km/h (3 Bft) 100,00 %
17.02.2016 17:00 4,8 C 87 % 1014,2 hPa 0,0 l/m 11,3 km/h (2 Bft) S-SW 211 0 min 0,026 mm 0,0 UV-I 9 W/m 2,8 C 1,0 C 16,1 km/h (3 Bft) 100,00 %
17.02.2016 17:01 4,8 C 88 % 1014,2 hPa 0,0 l/m 11,3 km/h (2 Bft) W 265 0 min 0,000 mm 0,0 UV-I 9 W/m 3,0 C 1,0 C 14,5 km/h (3 Bft) 100,00 %
17.02.2016 17:02 4,8 C 88 % 1014,3 hPa 0,0 l/m 13,4 km/h (3 Bft) W 259 0 min 0,000 mm 0,0 UV-I 8 W/m 3,0 C -0,3 C 20,9 km/h (4 Bft) 93,10 %
17.02.2016 17:03 4,8 C 88 % 1014,3 hPa 0,0 l/m 14,1 km/h (3 Bft) W-NW 294 0 min 0,000 mm 0,0 UV-I 7 W/m 3,0 C -0,7 C 17,7 km/h (3 Bft) 100,00 %
17.02.2016 17:04 4,8 C 88 % 1014,3 hPa 0,0 l/m 9,4 km/h (2 Bft) W 259 0 min 0,000 mm 0,0 UV-I 7 W/m 3,0 C 2,3 C 12,9 km/h (3 Bft) 96,67 %
17.02.2016 17:05 4,8 C 88 % 1014,3 hPa 0,0 l/m 11,0 km/h (2 Bft) W-SW 250 0 min 0,000 mm 0,0 UV-I 7 W/m 3,0 C 1,2 C 16,1 km/h (3 Bft) 100,00 %
17.02.2016 17:06 4,8 C 88 % 1014,4 hPa 0,0 l/m 11,3 km/h (2 Bft) W 262 0 min 0,000 mm 0,0 UV-I 6 W/m 3,0 C 1,0 C 14,5 km/h (3 Bft) 98,74 %
17.02.2016 17:07 4,8 C 88 % 1014,3 hPa 0,0 l/m 13,0 km/h (3 Bft) SW 229 0 min 0,000 mm 0,0 UV-I 5 W/m 3,0 C -0,1 C 17,7 km/h (3 Bft) 97,56 %
17.02.2016 17:08 4,8 C 88 % 1014,4 hPa 0,0 l/m 10,3 km/h (2 Bft) W 263 0 min 0,000 mm 0,0 UV-I 5 W/m 3,0 C 1,6 C 14,5 km/h (3 Bft) 96,30 %
17.02.2016 17:09 4,8 C 88 % 1014,4 hPa 0,0 l/m 9,0 km/h (2 Bft) W-SW 256 0 min 0,000 mm 0,0 UV-I 5 W/m 3,0 C 2,6 C 14,5 km/h (3 Bft) 100,00 %
17.02.2016 17:10 4,7 C 88 % 1014,4 hPa 0,0 l/m 14,0 km/h (3 Bft) W-SW 255 0 min 0,000 mm 0,0 UV-I 5 W/m 2,9 C -0,8 C 17,7 km/h (3 Bft) 95,83 %
17.02.2016 17:11 4,7 C 88 % 1014,4 hPa 0,0 l/m 10,9 km/h (2 Bft) SW 224 0 min 0,000 mm 0,0 UV-I 5 W/m 2,9 C 1,1 C 16,1 km/h (3 Bft) 96,15 %
17.02.2016 17:12 4,7 C 88 % 1014,5 hPa 0,0 l/m 10,2 km/h (2 Bft) W-SW 248 0 min 0,000 mm 0,0 UV-I 5 W/m 2,9 C 1,6 C 14,5 km/h (3 Bft) 100,00 %
17.02.2016 17:13 4,7 C 88 % 1014,4 hPa 0,0 l/m 7,3 km/h (2 Bft) W-SW 258 0 min 0,000 mm 0,0 UV-I 5 W/m 2,9 C 3,9 C 11,3 km/h (2 Bft) 92,86 %
17.02.2016 17:14 4,7 C 88 % 1014,5 hPa 0,0 l/m 8,0 km/h (2 Bft) W 261 0 min 0,000 mm 0,0 UV-I 2 W/m 2,9 C 3,3 C 12,9 km/h (3 Bft) 100,00 %
17.02.2016 17:15 4,7 C 88 % 1014,4 hPa 0,0 l/m 6,0 km/h (2 Bft) W-SW 257 0 min 0,000 mm 0,0 UV-I 0 W/m 2,9 C 4,7 C 11,3 km/h (2 Bft) 91,30 %
17.02.2016 17:16 4,7 C 89 % 1014,4 hPa 0,0 l/m 8,2 km/h (2 Bft) W-SW 240 0 min 0,000 mm 0,0 UV-I 0 W/m 3,0 C 3,1 C 14,5 km/h (3 Bft) 93,33 %
17.02.2016 17:17 4,7 C 89 % 1014,4 hPa 0,0 l/m 9,7 km/h (2 Bft) W 259 0 min 0,000 mm 0,0 UV-I 0 W/m 3,0 C 2,0 C 12,9 km/h (3 Bft) 100,00 %
17.02.2016 17:18 4,7 C 88 % 1014,4 hPa 0,0 l/m 6,2 km/h (2 Bft) W 279 0 min 0,000 mm 0,0 UV-I 0 W/m 2,9 C 4,7 C 11,3 km/h (2 Bft) 100,00 %
17.02.2016 17:19 4,7 C 88 % 1014,4 hPa 0,0 l/m 7,7 km/h (2 Bft) W 260 0 min 0,000 mm 0,0 UV-I 0 W/m 2,9 C 3,5 C 11,3 km/h (2 Bft) 96,15 %
17.02.2016 17:20 4,7 C 88 % 1014,4 hPa 0,0 l/m 5,0 km/h (1 Bft) W-SW 257 0 min 0,000 mm 0,0 UV-I 0 W/m 2,9 C 4,7 C 6,4 km/h (2 Bft) 96,30 %
17.02.2016 17:21 4,7 C 89 % 1014,5 hPa 0,0 l/m 5,2 km/h (1 Bft) W-SW 245 0 min 0,000 mm 0,0 UV-I 0 W/m 3,0 C 4,7 C 6,4 km/h (2 Bft) 95,65 %
17.02.2016 17:22 4,7 C 89 % 1014,5 hPa 0,0 l/m 5,8 km/h (2 Bft) W-NW 287 0 min 0,000 mm 0,0 UV-I 0 W/m 3,0 C 4,7 C 9,7 km/h (2 Bft) 96,30 %
17.02.2016 17:23 4,7 C 89 % 1014,5 hPa 0,0 l/m 6,4 km/h (2 Bft) W 259 0 min 0,000 mm 0,0 UV-I 0 W/m 3,0 C 4,7 C 9,7 km/h (2 Bft) 100,00 %
17.02.2016 17:24 4,7 C 89 % 1014,6 hPa 0,0 l/m 5,6 km/h (1 Bft) W-SW 253 0 min 0,000 mm 0,0 UV-I 0 W/m 3,0 C 4,7 C 6,4 km/h (2 Bft) 96,15 %
17.02.2016 17:25 4,7 C 89 % 1014,5 hPa 0,0 l/m 6,0 km/h (2 Bft) W 267 0 min 0,000 mm 0,0 UV-I 0 W/m 3,0 C 4,7 C 9,7 km/h (2 Bft) 100,00 %
17.02.2016 17:26 4,7 C 89 % 1014,6 hPa 0,0 l/m 6,4 km/h (2 Bft) W-SW 250 0 min 0,000 mm 0,0 UV-I 0 W/m 3,0 C 4,7 C 11,3 km/h (2 Bft) 95,65 %
17.02.2016 17:27 4,7 C 88 % 1014,6 hPa 0,0 l/m 7,6 km/h (2 Bft) W 264 0 min 0,000 mm 0,0 UV-I 0 W/m 2,9 C 3,6 C 12,9 km/h (3 Bft) 95,83 %
17.02.2016 17:28 4,7 C 89 % 1014,6 hPa 0,0 l/m 8,5 km/h (2 Bft) W 265 0 min 0,000 mm 0,0 UV-I 0 W/m 3,0 C 2,9 C 11,3 km/h (2 Bft) 100,00 %
17.02.2016 17:29 4,7 C 89 % 1014,6 hPa 0,0 l/m 6,1 km/h (2 Bft) W-SW 251 0 min 0,000 mm 0,0 UV-I 0 W/m 3,0 C 4,7 C 6,4 km/h (2 Bft) 95,83 %
17.02.2016 17:30 4,7 C 89 % 1014,6 hPa 0,0 l/m 4,7 km/h (1 Bft) W 259 0 min 0,000 mm 0,0 UV-I 0 W/m 3,0 C 4,7 C 6,4 km/h (2 Bft) 100,00 %
17.02.2016 17:31 4,7 C 89 % 1014,6 hPa 0,0 l/m 4,9 km/h (1 Bft) W 261 0 min 0,000 mm 0,0 UV-I 0 W/m 3,0 C 4,7 C 6,4 km/h (2 Bft) 96,67 %
17.02.2016 17:32 4,7 C 89 % 1014,6 hPa 0,0 l/m 9,5 km/h (2 Bft) W 280 0 min 0,000 mm 0,0 UV-I 0 W/m 3,0 C 2,1 C 12,9 km/h (3 Bft) 100,00 %
17.02.2016 17:33 4,7 C 89 % 1014,6 hPa 0,0 l/m 6,3 km/h (2 Bft) W-SW 254 0 min 0,000 mm 0,0 UV-I 0 W/m 3,0 C 4,7 C 9,7 km/h (2 Bft) 91,67 %
17.02.2016 17:34 4,7 C 89 % 1014,6 hPa 0,0 l/m 5,4 km/h (1 Bft) W-SW 257 0 min 0,000 mm 0,0 UV-I 0 W/m 3,0 C 4,7 C 8,0 km/h (2 Bft) 100,00 %
17.02.2016 17:35 4,6 C 89 % 1014,6 hPa 0,0 l/m 7,6 km/h (2 Bft) W-SW 251 0 min 0,000 mm 0,0 UV-I 0 W/m 2,9 C 3,5 C 11,3 km/h (2 Bft) 96,30 %
17.02.2016 17:36 4,6 C 89 % 1014,6 hPa 0,0 l/m 7,5 km/h (2 Bft) W 260 0 min 0,000 mm 0,0 UV-I 0 W/m 2,9 C 3,6 C 11,3 km/h (2 Bft) 100,00 %
17.02.2016 17:37 4,6 C 89 % 1014,7 hPa 0,0 l/m 7,4 km/h (2 Bft) W 265 0 min 0,000 mm 0,0 UV-I 0 W/m 2,9 C 3,7 C 11,3 km/h (2 Bft) 100,00 %
17.02.2016 17:38 4,7 C 89 % 1014,7 hPa 0,0 l/m 6,3 km/h (2 Bft) W-SW 252 0 min 0,000 mm 0,0 UV-I 0 W/m 3,0 C 4,7 C 9,7 km/h (2 Bft) 100,00 %
17.02.2016 17:39 4,6 C 89 % 1014,7 hPa 0,0 l/m 6,8 km/h (2 Bft) W-SW 248 0 min 0,000 mm 0,0 UV-I 0 W/m 2,9 C 4,3 C 9,7 km/h (2 Bft) 100,00 %
17.02.2016 17:40 4,6 C 89 % 1014,7 hPa 0,0 l/m 5,6 km/h (1 Bft) SW 232 0 min 0,000 mm 0,0 UV-I 0 W/m 2,9 C 4,6 C 8,0 km/h (2 Bft) 100,00 %
17.02.2016 17:41 4,6 C 89 % 1014,7 hPa 0,0 l/m 8,8 km/h (2 Bft) W 263 0 min 0,000 mm 0,0 UV-I 0 W/m 2,9 C 2,5 C 11,3 km/h (2 Bft) 100,00 %
17.02.2016 17:42 4,6 C 89 % 1014,7 hPa 0,0 l/m 6,5 km/h (2 Bft) W-SW 257 0 min 0,000 mm 0,0 UV-I 0 W/m 2,9 C 4,5 C 9,7 km/h (2 Bft) 96,30 %
17.02.2016 17:43 4,6 C 89 % 1014,8 hPa 0,0 l/m 8,0 km/h (2 Bft) SW 228 0 min 0,000 mm 0,0 UV-I 0 W/m 2,9 C 3,2 C 12,9 km/h (3 Bft) 100,00 %
17.02.2016 17:44 4,6 C 89 % 1014,8 hPa 0,0 l/m 13,7 km/h (3 Bft) W-SW 250 0 min 0,000 mm 0,0 UV-I 0 W/m 2,9 C -0,7 C 17,7 km/h (3 Bft) 98,69 %
17.02.2016 17:45 4,6 C 88 % 1014,8 hPa 0,0 l/m 10,0 km/h (2 Bft) SW 228 0 min 0,000 mm 0,0 UV-I 0 W/m 2,8 C 1,6 C 12,9 km/h (3 Bft) 98,31 %
17.02.2016 17:46 4,6 C 87 % 1014,9 hPa 0,0 l/m 10,8 km/h (2 Bft) SW 234 0 min 0,000 mm 0,0 UV-I 0 W/m 2,6 C 1,1 C 16,1 km/h (3 Bft) 100,00 %
17.02.2016 17:47 4,6 C 87 % 1014,9 hPa 0,0 l/m 13,1 km/h (3 Bft) W-SW 255 0 min 0,000 mm 0,0 UV-I 0 W/m 2,6 C -0,4 C 19,3 km/h (3 Bft) 100,00 %
17.02.2016 17:48 4,5 C 87 % 1014,9 hPa 0,0 l/m 11,0 km/h (2 Bft) SW 229 0 min 0,000 mm 0,0 UV-I 0 W/m 2,5 C 0,8 C 19,3 km/h (3 Bft) 100,00 %
17.02.2016 17:49 4,5 C 87 % 1015,0 hPa 0,0 l/m 9,9 km/h (2 Bft) W-SW 242 0 min 0,000 mm 0,0 UV-I 0 W/m 2,5 C 1,6 C 14,5 km/h (3 Bft) 95,65 %
17.02.2016 17:50 4,5 C 87 % 1015,0 hPa 0,0 l/m 11,7 km/h (2 Bft) W-SW 256 0 min 0,000 mm 0,0 UV-I 0 W/m 2,5 C 0,4 C 16,1 km/h (3 Bft) 100,00 %
17.02.2016 17:51 4,4 C 87 % 1015,0 hPa 0,0 l/m 8,4 km/h (2 Bft) W-SW 255 0 min 0,000 mm 0,0 UV-I 0 W/m 2,4 C 2,6 C 11,3 km/h (2 Bft) 100,00 %
17.02.2016 17:52 4,4 C 87 % 1015,1 hPa 0,0 l/m 7,9 km/h (2 Bft) W 260 0 min 0,000 mm 0,0 UV-I 0 W/m 2,4 C 3,1 C 12,9 km/h (3 Bft) 96,30 %
17.02.2016 17:53 4,4 C 87 % 1015,1 hPa 0,0 l/m 7,3 km/h (2 Bft) SW 226 0 min 0,000 mm 0,0 UV-I 0 W/m 2,4 C 3,6 C 11,3 km/h (2 Bft) 100,00 %
17.02.2016 17:54 4,4 C 87 % 1015,1 hPa 0,0 l/m 10,0 km/h (2 Bft) W-SW 254 0 min 0,000 mm 0,0 UV-I 0 W/m 2,4 C 1,4 C 16,1 km/h (3 Bft) 96,55 %
17.02.2016 17:55 4,4 C 87 % 1015,1 hPa 0,0 l/m 8,9 km/h (2 Bft) W 275 0 min 0,000 mm 0,0 UV-I 0 W/m 2,4 C 2,2 C 16,1 km/h (3 Bft) 93,33 %
17.02.2016 17:56 4,4 C 87 % 1015,0 hPa 0,0 l/m 8,4 km/h (2 Bft) SW 236 0 min 0,000 mm 0,0 UV-I 0 W/m 2,4 C 2,6 C 11,3 km/h (2 Bft) 100,00 %
17.02.2016 17:57 4,3 C 87 % 1015,1 hPa 0,0 l/m 11,8 km/h (2 Bft) SW 228 0 min 0,000 mm 0,0 UV-I 0 W/m 2,3 C 0,1 C 14,5 km/h (3 Bft) 100,00 %
17.02.2016 17:58 4,3 C 87 % 1015,1 hPa 0,0 l/m 9,1 km/h (2 Bft) W-SW 256 0 min 0,000 mm 0,0 UV-I 0 W/m 2,3 C 2,0 C 14,5 km/h (3 Bft) 100,00 %
17.02.2016 17:59 4,3 C 87 % 1015,1 hPa 0,0 l/m 13,0 km/h (3 Bft) SW 234 0 min 0,000 mm 0,0 UV-I 0 W/m 2,3 C -0,7 C 20,9 km/h (4 Bft) 95,83 %
17.02.2016 18:00 4,3 C 86 % 1015,2 hPa 0,0 l/m 14,6 km/h (3 Bft) W-SW 241 0 min 0,000 mm 0,0 UV-I 0 W/m 2,2 C -1,6 C 19,3 km/h (3 Bft) 95,65 %
17.02.2016 18:01 4,3 C 86 % 1015,1 hPa 0,0 l/m 9,4 km/h (2 Bft) W 263 0 min 0,000 mm 0,0 UV-I 0 W/m 2,2 C 1,7 C 16,1 km/h (3 Bft) 100,00 %
17.02.2016 18:02 4,2 C 86 % 1015,2 hPa 0,0 l/m 9,0 km/h (2 Bft) W-SW 251 0 min 0,000 mm 0,0 UV-I 0 W/m 2,1 C 1,9 C 16,1 km/h (3 Bft) 100,00 %
17.02.2016 18:03 4,2 C 86 % 1015,2 hPa 0,0 l/m 11,7 km/h (2 Bft) W-SW 238 0 min 0,000 mm 0,0 UV-I 0 W/m 2,1 C 0,0 C 14,5 km/h (3 Bft) 100,00 %
17.02.2016 18:04 4,2 C 86 % 1015,2 hPa 0,0 l/m 10,9 km/h (2 Bft) W-SW 238 0 min 0,000 mm 0,0 UV-I 0 W/m 2,1 C 0,6 C 14,5 km/h (3 Bft) 100,00 %
17.02.2016 18:05 4,2 C 86 % 1015,2 hPa 0,0 l/m 9,9 km/h (2 Bft) W-SW 251 0 min 0,000 mm 0,0 UV-I 0 W/m 2,1 C 1,3 C 14,5 km/h (3 Bft) 100,00 %
17.02.2016 18:06 4,2 C 86 % 1015,3 hPa 0,0 l/m 9,6 km/h (2 Bft) W-SW 250 0 min 0,000 mm 0,0 UV-I 0 W/m 2,1 C 1,5 C 14,5 km/h (3 Bft) 96,15 %
17.02.2016 18:07 4,1 C 86 % 1015,3 hPa 0,0 l/m 8,3 km/h (2 Bft) W-SW 242 0 min 0,000 mm 0,0 UV-I 0 W/m 2,0 C 2,4 C 11,3 km/h (2 Bft) 94,44 %
17.02.2016 18:08 4,1 C 86 % 1015,3 hPa 0,0 l/m 10,4 km/h (2 Bft) W-SW 246 0 min 0,000 mm 0,0 UV-I 0 W/m 2,0 C 0,8 C 17,7 km/h (3 Bft) 100,00 %
17.02.2016 18:09 4,1 C 86 % 1015,3 hPa 0,0 l/m 12,5 km/h (3 Bft) SW 231 0 min 0,000 mm 0,0 UV-I 0 W/m 2,0 C -0,6 C 17,7 km/h (3 Bft) 100,00 %
17.02.2016 18:10 4,1 C 86 % 1015,3 hPa 0,0 l/m 12,4 km/h (3 Bft) W-SW 246 0 min 0,000 mm 0,0 UV-I 0 W/m 2,0 C -0,5 C 17,7 km/h (3 Bft) 100,00 %
17.02.2016 18:11 4,1 C 86 % 1015,3 hPa 0,0 l/m 7,7 km/h (2 Bft) W-SW 244 0 min 0,000 mm 0,0 UV-I 0 W/m 2,0 C 2,9 C 11,3 km/h (2 Bft) 100,00 %
17.02.2016 18:12 4,0 C 87 % 1015,4 hPa 0,0 l/m 16,4 km/h (3 Bft) SW 227 0 min 0,000 mm 0,0 UV-I 0 W/m 2,0 C -2,8 C 24,1 km/h (4 Bft) 100,00 %
17.02.2016 18:13 4,0 C 86 % 1015,3 hPa 0,0 l/m 15,8 km/h (3 Bft) W-SW 255 0 min 0,000 mm 0,0 UV-I 0 W/m 1,9 C -2,5 C 19,3 km/h (3 Bft) 100,00 %
17.02.2016 18:14 3,9 C 86 % 1015,3 hPa 0,0 l/m 13,4 km/h (3 Bft) SW 217 0 min 0,000 mm 0,0 UV-I 0 W/m 1,8 C -1,4 C 17,7 km/h (3 Bft) 100,00 %
17.02.2016 18:15 3,9 C 86 % 1015,3 hPa 0,0 l/m 11,2 km/h (2 Bft) W-SW 238 0 min 0,000 mm 0,0 UV-I 0 W/m 1,8 C 0,0 C 16,1 km/h (3 Bft) 100,00 %
17.02.2016 18:16 3,9 C 86 % 1015,3 hPa 0,0 l/m 11,6 km/h (2 Bft) SW 231 0 min 0,000 mm 0,0 UV-I 0 W/m 1,8 C -0,3 C 14,5 km/h (3 Bft) 100,00 %
17.02.2016 18:17 3,8 C 86 % 1015,3 hPa 0,0 l/m 12,5 km/h (3 Bft) S-SW 211 0 min 0,000 mm 0,0 UV-I 0 W/m 1,7 C -0,9 C 20,9 km/h (4 Bft) 96,30 %
17.02.2016 18:18 3,8 C 86 % 1015,4 hPa 0,0 l/m 16,2 km/h (3 Bft) SW 232 0 min 0,000 mm 0,0 UV-I 0 W/m 1,7 C -3,0 C 24,1 km/h (4 Bft) 100,00 %
17.02.2016 18:19 3,8 C 86 % 1015,4 hPa 0,0 l/m 16,4 km/h (3 Bft) S-SW 213 0 min 0,000 mm 0,0 UV-I 0 W/m 1,7 C -3,1 C 20,9 km/h (4 Bft) 100,00 %
17.02.2016 18:20 3,8 C 86 % 1015,3 hPa 0,0 l/m 9,8 km/h (2 Bft) SW 221 0 min 0,000 mm 0,0 UV-I 0 W/m 1,7 C 0,9 C 14,5 km/h (3 Bft) 100,00 %
17.02.2016 18:21 3,7 C 86 % 1015,3 hPa 0,0 l/m 11,6 km/h (2 Bft) SW 235 0 min 0,000 mm 0,0 UV-I 0 W/m 1,6 C -0,5 C 16,1 km/h (3 Bft) 96,55 %
17.02.2016 18:22 3,7 C 86 % 1015,4 hPa 0,0 l/m 14,7 km/h (3 Bft) W-SW 244 0 min 0,000 mm 0,0 UV-I 0 W/m 1,6 C -2,3 C 17,7 km/h (3 Bft) 100,00 %
17.02.2016 18:23 3,7 C 86 % 1015,4 hPa 0,0 l/m 12,3 km/h (3 Bft) SW 221 0 min 0,000 mm 0,0 UV-I 0 W/m 1,6 C -0,9 C 17,7 km/h (3 Bft) 100,00 %
17.02.2016 18:24 3,7 C 86 % 1015,4 hPa 0,0 l/m 13,8 km/h (3 Bft) SW 232 0 min 0,000 mm 0,0 UV-I 0 W/m 1,6 C -1,8 C 17,7 km/h (3 Bft) 100,00 %
17.02.2016 18:25 3,7 C 86 % 1015,5 hPa 0,0 l/m 11,9 km/h (2 Bft) W-SW 254 0 min 0,000 mm 0,0 UV-I 0 W/m 1,6 C -0,7 C 17,7 km/h (3 Bft) 96,88 %
17.02.2016 18:26 3,7 C 86 % 1015,5 hPa 0,0 l/m 8,7 km/h (2 Bft) SW 218 0 min 0,000 mm 0,0 UV-I 0 W/m 1,6 C 1,6 C 11,3 km/h (2 Bft) 100,00 %
17.02.2016 18:27 3,6 C 86 % 1015,6 hPa 0,0 l/m 9,0 km/h (2 Bft) W-SW 241 0 min 0,000 mm 0,0 UV-I 0 W/m 1,5 C 1,3 C 12,9 km/h (3 Bft) 96,15 %
17.02.2016 18:28 3,6 C 86 % 1015,6 hPa 0,0 l/m 8,5 km/h (2 Bft) W-SW 246 0 min 0,000 mm 0,0 UV-I 0 W/m 1,5 C 1,7 C 11,3 km/h (2 Bft) 100,00 %
17.02.2016 18:29 3,6 C 87 % 1015,7 hPa 0,0 l/m 10,1 km/h (2 Bft) SW 225 0 min 0,000 mm 0,0 UV-I 0 W/m 1,6 C 0,5 C 12,9 km/h (3 Bft) 100,00 %
17.02.2016 18:30 3,6 C 87 % 1015,7 hPa 0,0 l/m 7,1 km/h (2 Bft) S-SW 207 0 min 0,000 mm 0,0 UV-I 0 W/m 1,6 C 3,0 C 11,3 km/h (2 Bft) 95,83 %
17.02.2016 18:31 3,6 C 86 % 1015,7 hPa 0,0 l/m 12,6 km/h (3 Bft) W-SW 242 0 min 0,000 mm 0,0 UV-I 0 W/m 1,5 C -1,2 C 17,7 km/h (3 Bft) 100,00 %
17.02.2016 18:32 3,6 C 87 % 1015,8 hPa 0,0 l/m 11,8 km/h (2 Bft) SW 222 0 min 0,000 mm 0,0 UV-I 0 W/m 1,6 C -0,7 C 17,7 km/h (3 Bft) 100,00 %
17.02.2016 18:33 3,6 C 87 % 1015,8 hPa 0,0 l/m 10,1 km/h (2 Bft) SW 223 0 min 0,000 mm 0,0 UV-I 0 W/m 1,6 C 0,5 C 16,1 km/h (3 Bft) 100,00 %
17.02.2016 18:34 3,6 C 87 % 1015,8 hPa 0,0 l/m 10,5 km/h (2 Bft) SW 234 0 min 0,000 mm 0,0 UV-I 0 W/m 1,6 C 0,2 C 16,1 km/h (3 Bft) 100,00 %
17.02.2016 18:35 3,6 C 87 % 1015,8 hPa 0,0 l/m 9,9 km/h (2 Bft) SW 229 0 min 0,000 mm 0,0 UV-I 0 W/m 1,6 C 0,6 C 12,9 km/h (3 Bft) 95,65 %
17.02.2016 18:36 3,6 C 87 % 1015,7 hPa 0,0 l/m 9,4 km/h (2 Bft) W-SW 250 0 min 0,000 mm 0,0 UV-I 0 W/m 1,6 C 1,0 C 11,3 km/h (2 Bft) 91,67 %
17.02.2016 18:37 3,6 C 87 % 1015,8 hPa 0,0 l/m 12,1 km/h (2 Bft) W-SW 242 0 min 0,000 mm 0,0 UV-I 0 W/m 1,6 C -0,9 C 17,7 km/h (3 Bft) 100,00 %
17.02.2016 18:38 3,5 C 87 % 1015,8 hPa 0,0 l/m 13,1 km/h (3 Bft) SW 227 0 min 0,000 mm 0,0 UV-I 0 W/m 1,5 C -1,7 C 16,1 km/h (3 Bft) 100,00 %
17.02.2016 18:39 3,6 C 87 % 1015,8 hPa 0,0 l/m 11,9 km/h (2 Bft) SW 220 0 min 0,000 mm 0,0 UV-I 0 W/m 1,6 C -0,8 C 16,1 km/h (3 Bft) 100,00 %
17.02.2016 18:40 3,5 C 87 % 1015,9 hPa 0,0 l/m 11,9 km/h (2 Bft) W-SW 248 0 min 0,000 mm 0,0 UV-I 0 W/m 1,5 C -0,9 C 16,1 km/h (3 Bft) 100,00 %
17.02.2016 18:41 3,6 C 87 % 1015,9 hPa 0,0 l/m 10,1 km/h (2 Bft) SW 233 0 min 0,000 mm 0,0 UV-I 0 W/m 1,6 C 0,5 C 16,1 km/h (3 Bft) 95,65 %
17.02.2016 18:42 3,5 C 87 % 1015,9 hPa 0,0 l/m 7,8 km/h (2 Bft) W-SW 239 0 min 0,000 mm 0,0 UV-I 0 W/m 1,5 C 2,2 C 9,7 km/h (2 Bft) 100,00 %
17.02.2016 18:43 3,5 C 87 % 1015,9 hPa 0,0 l/m 9,1 km/h (2 Bft) W 263 0 min 0,000 mm 0,0 UV-I 0 W/m 1,5 C 1,1 C 11,3 km/h (2 Bft) 100,00 %
17.02.2016 18:44 3,5 C 87 % 1015,9 hPa 0,0 l/m 7,8 km/h (2 Bft) W-SW 241 0 min 0,000 mm 0,0 UV-I 0 W/m 1,5 C 2,2 C 12,9 km/h (3 Bft) 100,00 %
17.02.2016 18:45 3,5 C 87 % 1015,9 hPa 0,0 l/m 8,2 km/h (2 Bft) W-SW 252 0 min 0,000 mm 0,0 UV-I 0 W/m 1,5 C 1,9 C 12,9 km/h (3 Bft) 100,00 %
17.02.2016 18:46 3,5 C 87 % 1015,9 hPa 0,0 l/m 9,3 km/h (2 Bft) S-SW 202 0 min 0,000 mm 0,0 UV-I 0 W/m 1,5 C 1,0 C 14,5 km/h (3 Bft) 100,00 %
17.02.2016 18:47 3,5 C 87 % 1016,0 hPa 0,0 l/m 8,7 km/h (2 Bft) SW 223 0 min 0,000 mm 0,0 UV-I 0 W/m 1,5 C 1,4 C 12,9 km/h (3 Bft) 100,00 %
17.02.2016 18:48 3,5 C 87 % 1016,0 hPa 0,0 l/m 9,2 km/h (2 Bft) SW 221 0 min 0,000 mm 0,0 UV-I 0 W/m 1,5 C 1,0 C 14,5 km/h (3 Bft) 100,00 %
17.02.2016 18:49 3,4 C 87 % 1016,1 hPa 0,0 l/m 8,6 km/h (2 Bft) SW 219 0 min 0,000 mm 0,0 UV-I 0 W/m 1,4 C 1,4 C 12,9 km/h (3 Bft) 100,00 %
17.02.2016 18:50 3,5 C 87 % 1016,0 hPa 0,0 l/m 7,1 km/h (2 Bft) W-SW 245 0 min 0,000 mm 0,0 UV-I 0 W/m 1,5 C 2,8 C 9,7 km/h (2 Bft) 100,00 %
17.02.2016 18:51 3,4 C 87 % 1016,1 hPa 0,0 l/m 9,4 km/h (2 Bft) S-SW 203 0 min 0,000 mm 0,0 UV-I 0 W/m 1,4 C 0,8 C 14,5 km/h (3 Bft) 96,67 %
17.02.2016 18:52 3,5 C 87 % 1016,0 hPa 0,0 l/m 9,7 km/h (2 Bft) SW 229 0 min 0,000 mm 0,0 UV-I 0 W/m 1,5 C 0,6 C 14,5 km/h (3 Bft) 92,86 %
17.02.2016 18:53 3,4 C 87 % 1016,1 hPa 0,0 l/m 8,9 km/h (2 Bft) W-SW 241 0 min 0,000 mm 0,0 UV-I 0 W/m 1,4 C 1,2 C 12,9 km/h (3 Bft) 96,30 %
17.02.2016 18:54 3,4 C 87 % 1016,1 hPa 0,0 l/m 11,0 km/h (2 Bft) SW 233 0 min 0,000 mm 0,0 UV-I 0 W/m 1,4 C -0,4 C 16,1 km/h (3 Bft) 100,00 %
17.02.2016 18:55 3,4 C 87 % 1015,9 hPa 0,0 l/m 10,1 km/h (2 Bft) W 266 0 min 0,000 mm 0,0 UV-I 0 W/m 1,4 C 0,2 C 14,5 km/h (3 Bft) 100,00 %
17.02.2016 18:56 3,4 C 87 % 1015,9 hPa 0,0 l/m 9,7 km/h (2 Bft) SW 234 0 min 0,000 mm 0,0 UV-I 0 W/m 1,4 C 0,5 C 12,9 km/h (3 Bft) 100,00 %
17.02.2016 18:57 3,4 C 87 % 1015,9 hPa 0,0 l/m 10,0 km/h (2 Bft) SW 235 0 min 0,000 mm 0,0 UV-I 0 W/m 1,4 C 0,3 C 12,9 km/h (3 Bft) 96,15 %
17.02.2016 18:58 3,4 C 87 % 1016,0 hPa 0,0 l/m 13,2 km/h (3 Bft) SW 231 0 min 0,000 mm 0,0 UV-I 0 W/m 1,4 C -1,8 C 19,3 km/h (3 Bft) 100,00 %
17.02.2016 18:59 3,4 C 87 % 1016,1 hPa 0,0 l/m 11,6 km/h (2 Bft) W-SW 238 0 min 0,000 mm 0,0 UV-I 0 W/m 1,4 C -0,8 C 16,1 km/h (3 Bft) 100,00 %
17.02.2016 19:00 3,4 C 87 % 1016,1 hPa 0,0 l/m 9,6 km/h (2 Bft) W-SW 237 0 min 0,000 mm 0,0 UV-I 0 W/m 1,4 C 0,6 C 12,9 km/h (3 Bft) 96,30 %
17.02.2016 19:01 3,4 C 87 % 1016,1 hPa 0,0 l/m 8,0 km/h (2 Bft) SW 217 0 min 0,025 mm 0,0 UV-I 0 W/m 1,4 C 1,9 C 14,5 km/h (3 Bft) 100,00 %
17.02.2016 19:02 3,4 C 87 % 1016,1 hPa 0,0 l/m 13,0 km/h (3 Bft) W-SW 252 0 min 0,000 mm 0,0 UV-I 0 W/m 1,4 C -1,7 C 17,7 km/h (3 Bft) 100,00 %
17.02.2016 19:03 3,4 C 87 % 1016,0 hPa 0,0 l/m 12,1 km/h (2 Bft) W-SW 254 0 min 0,000 mm 0,0 UV-I 0 W/m 1,4 C -1,2 C 16,1 km/h (3 Bft) 100,00 %
17.02.2016 19:04 3,4 C 87 % 1016,0 hPa 0,0 l/m 11,7 km/h (2 Bft) SW 234 0 min 0,000 mm 0,0 UV-I 0 W/m 1,4 C -0,9 C 16,1 km/h (3 Bft) 96,30 %
17.02.2016 19:05 3,4 C 87 % 1016,0 hPa 0,0 l/m 12,5 km/h (3 Bft) W-SW 238 0 min 0,000 mm 0,0 UV-I 0 W/m 1,4 C -1,4 C 19,3 km/h (3 Bft) 96,15 %
17.02.2016 19:06 3,4 C 87 % 1016,1 hPa 0,0 l/m 11,8 km/h (2 Bft) SW 216 0 min 0,000 mm 0,0 UV-I 0 W/m 1,4 C -1,0 C 16,1 km/h (3 Bft) 91,67 %
17.02.2016 19:07 3,4 C 87 % 1016,1 hPa 0,0 l/m 10,1 km/h (2 Bft) SW 234 0 min 0,000 mm 0,0 UV-I 0 W/m 1,4 C 0,2 C 14,5 km/h (3 Bft) 100,00 %
17.02.2016 19:08 3,4 C 87 % 1016,1 hPa 0,0 l/m 9,8 km/h (2 Bft) W 265 0 min 0,000 mm 0,0 UV-I 0 W/m 1,4 C 0,5 C 12,9 km/h (3 Bft) 97,44 %
17.02.2016 19:09 3,4 C 87 % 1016,1 hPa 0,0 l/m 6,9 km/h (2 Bft) W 273 0 min 0,000 mm 0,0 UV-I 0 W/m 1,4 C 2,9 C 11,3 km/h (2 Bft) 100,00 %
17.02.2016 19:10 3,4 C 87 % 1016,1 hPa 0,0 l/m 9,0 km/h (2 Bft) W-SW 246 0 min 0,000 mm 0,0 UV-I 0 W/m 1,4 C 1,1 C 14,5 km/h (3 Bft) 95,83 %
17.02.2016 19:11 3,4 C 87 % 1016,2 hPa 0,0 l/m 5,7 km/h (1 Bft) SW 232 0 min 0,000 mm 0,0 UV-I 0 W/m 1,4 C 3,4 C 9,7 km/h (2 Bft) 100,00 %
17.02.2016 19:12 3,4 C 87 % 1016,1 hPa 0,0 l/m 8,5 km/h (2 Bft) W-SW 246 0 min 0,000 mm 0,0 UV-I 0 W/m 1,4 C 1,5 C 11,3 km/h (2 Bft) 96,30 %
17.02.2016 19:13 3,4 C 87 % 1016,2 hPa 0,0 l/m 13,2 km/h (3 Bft) S-SW 201 0 min 0,000 mm 0,0 UV-I 0 W/m 1,4 C -1,8 C 19,3 km/h (3 Bft) 91,30 %
17.02.2016 19:14 3,4 C 86 % 1016,2 hPa 0,0 l/m 10,8 km/h (2 Bft) W-SW 252 0 min 0,000 mm 0,0 UV-I 0 W/m 1,3 C -0,3 C 14,5 km/h (3 Bft) 100,00 %
17.02.2016 19:15 3,4 C 86 % 1016,2 hPa 0,0 l/m 10,7 km/h (2 Bft) W-SW 244 0 min 0,000 mm 0,0 UV-I 0 W/m 1,3 C -0,2 C 17,7 km/h (3 Bft) 96,15 %
17.02.2016 19:16 3,4 C 87 % 1016,2 hPa 0,0 l/m 11,3 km/h (2 Bft) SW 221 0 min 0,000 mm 0,0 UV-I 0 W/m 1,4 C -0,6 C 14,5 km/h (3 Bft) 100,00 %
17.02.2016 19:17 3,4 C 86 % 1016,2 hPa 0,0 l/m 9,4 km/h (2 Bft) SW 224 0 min 0,000 mm 0,0 UV-I 0 W/m 1,3 C 0,8 C 14,5 km/h (3 Bft) 94,12 %
17.02.2016 19:18 3,4 C 87 % 1016,2 hPa 0,0 l/m 8,5 km/h (2 Bft) W-SW 258 0 min 0,000 mm 0,0 UV-I 0 W/m 1,4 C 1,5 C 12,9 km/h (3 Bft) 96,30 %
17.02.2016 19:19 3,4 C 86 % 1016,2 hPa 0,0 l/m 9,8 km/h (2 Bft) SW 236 0 min 0,000 mm 0,0 UV-I 0 W/m 1,3 C 0,5 C 12,9 km/h (3 Bft) 100,00 %
17.02.2016 19:20 3,4 C 86 % 1016,2 hPa 0,0 l/m 10,9 km/h (2 Bft) W-SW 238 0 min 0,000 mm 0,0 UV-I 0 W/m 1,3 C -0,3 C 14,5 km/h (3 Bft) 96,15 %
17.02.2016 19:21 3,4 C 86 % 1016,2 hPa 0,0 l/m 9,7 km/h (2 Bft) W-SW 257 0 min 0,000 mm 0,0 UV-I 0 W/m 1,3 C 0,5 C 12,9 km/h (3 Bft) 100,00 %
17.02.2016 19:22 3,4 C 86 % 1016,2 hPa 0,0 l/m 10,8 km/h (2 Bft) W-SW 257 0 min 0,000 mm 0,0 UV-I 0 W/m 1,3 C -0,3 C 14,5 km/h (3 Bft) 92,59 %
17.02.2016 19:23 3,4 C 86 % 1016,3 hPa 0,0 l/m 8,6 km/h (2 Bft) SW 229 0 min 0,000 mm 0,0 UV-I 0 W/m 1,3 C 1,4 C 12,9 km/h (3 Bft) 100,00 %
17.02.2016 19:24 3,3 C 86 % 1016,2 hPa 0,0 l/m 7,2 km/h (2 Bft) W-SW 250 0 min 0,000 mm 0,0 UV-I 0 W/m 1,2 C 2,5 C 12,9 km/h (3 Bft) 92,31 %
17.02.2016 19:25 3,4 C 86 % 1016,3 hPa 0,0 l/m 8,6 km/h (2 Bft) SW 227 0 min 0,000 mm 0,0 UV-I 0 W/m 1,3 C 1,4 C 14,5 km/h (3 Bft) 100,00 %
17.02.2016 19:26 3,4 C 86 % 1016,3 hPa 0,0 l/m 8,0 km/h (2 Bft) SW 226 0 min 0,000 mm 0,0 UV-I 0 W/m 1,3 C 1,9 C 11,3 km/h (2 Bft) 95,65 %
17.02.2016 19:27 3,4 C 86 % 1016,4 hPa 0,0 l/m 5,4 km/h (1 Bft) W-SW 238 0 min 0,000 mm 0,0 UV-I 0 W/m 1,3 C 3,4 C 9,7 km/h (2 Bft) 100,00 %
17.02.2016 19:28 3,4 C 86 % 1016,3 hPa 0,0 l/m 10,2 km/h (2 Bft) SW 234 0 min 0,000 mm 0,0 UV-I 0 W/m 1,3 C 0,2 C 14,5 km/h (3 Bft) 96,15 %
17.02.2016 19:29 3,4 C 87 % 1016,4 hPa 0,0 l/m 8,0 km/h (2 Bft) W 261 0 min 0,000 mm 0,0 UV-I 0 W/m 1,4 C 1,9 C 11,3 km/h (2 Bft) 96,30 %
17.02.2016 19:30 3,3 C 87 % 1016,4 hPa 0,0 l/m 9,7 km/h (2 Bft) W-SW 238 0 min 0,000 mm 0,0 UV-I 0 W/m 1,3 C 0,4 C 12,9 km/h (3 Bft) 100,00 %
17.02.2016 19:31 3,3 C 86 % 1016,4 hPa 0,0 l/m 8,7 km/h (2 Bft) W-SW 258 0 min 0,000 mm 0,0 UV-I 0 W/m 1,2 C 1,2 C 12,9 km/h (3 Bft) 96,30 %
17.02.2016 19:32 3,3 C 86 % 1016,5 hPa 0,0 l/m 8,2 km/h (2 Bft) W-SW 241 0 min 0,000 mm 0,0 UV-I 0 W/m 1,2 C 1,6 C 12,9 km/h (3 Bft) 100,00 %
17.02.2016 19:33 3,3 C 86 % 1016,5 hPa 0,0 l/m 7,7 km/h (2 Bft) SW 227 0 min 0,000 mm 0,0 UV-I 0 W/m 1,2 C 2,1 C 12,9 km/h (3 Bft) 91,67 %
17.02.2016 19:34 3,3 C 86 % 1016,5 hPa 0,0 l/m 4,7 km/h (1 Bft) W 265 0 min 0,000 mm 0,0 UV-I 0 W/m 1,2 C 3,3 C 6,4 km/h (2 Bft) 100,00 %
17.02.2016 19:35 3,4 C 86 % 1016,4 hPa 0,0 l/m 6,7 km/h (2 Bft) W-SW 246 0 min 0,000 mm 0,0 UV-I 0 W/m 1,3 C 3,1 C 11,3 km/h (2 Bft) 96,67 %
17.02.2016 19:36 3,3 C 86 % 1016,5 hPa 0,0 l/m 5,1 km/h (1 Bft) W-SW 242 0 min 0,000 mm 0,0 UV-I 0 W/m 1,2 C 3,3 C 9,7 km/h (2 Bft) 96,15 %
17.02.2016 19:37 3,4 C 86 % 1016,4 hPa 0,0 l/m 9,7 km/h (2 Bft) W 264 0 min 0,000 mm 0,0 UV-I 0 W/m 1,3 C 0,5 C 12,9 km/h (3 Bft) 100,00 %
17.02.2016 19:38 3,3 C 86 % 1016,4 hPa 0,0 l/m 7,0 km/h (2 Bft) SW 234 0 min 0,000 mm 0,0 UV-I 0 W/m 1,2 C 2,7 C 12,9 km/h (3 Bft) 96,30 %
17.02.2016 19:39 3,3 C 86 % 1016,4 hPa 0,0 l/m 6,2 km/h (2 Bft) W-SW 257 0 min 0,000 mm 0,0 UV-I 0 W/m 1,2 C 3,3 C 11,3 km/h (2 Bft) 100,00 %
17.02.2016 19:40 3,3 C 86 % 1016,4 hPa 0,0 l/m 8,5 km/h (2 Bft) W 261 0 min 0,000 mm 0,0 UV-I 0 W/m 1,2 C 1,4 C 11,3 km/h (2 Bft) 95,83 %
17.02.2016 19:41 3,3 C 86 % 1016,5 hPa 0,0 l/m 5,8 km/h (2 Bft) W-SW 240 0 min 0,000 mm 0,0 UV-I 0 W/m 1,2 C 3,3 C 8,0 km/h (2 Bft) 100,00 %
17.02.2016 19:42 3,3 C 86 % 1016,5 hPa 0,0 l/m 4,4 km/h (1 Bft) W-SW 240 0 min 0,000 mm 0,0 UV-I 0 W/m 1,2 C 3,3 C 6,4 km/h (2 Bft) 100,00 %
17.02.2016 19:43 3,3 C 86 % 1016,5 hPa 0,0 l/m 7,1 km/h (2 Bft) W-SW 253 0 min 0,000 mm 0,0 UV-I 0 W/m 1,2 C 2,6 C 9,7 km/h (2 Bft) 96,15 %
17.02.2016 19:44 3,3 C 86 % 1016,5 hPa 0,0 l/m 5,7 km/h (1 Bft) W-SW 238 0 min 0,000 mm 0,0 UV-I 0 W/m 1,2 C 3,3 C 6,4 km/h (2 Bft) 100,00 %
17.02.2016 19:45 3,3 C 86 % 1016,5 hPa 0,0 l/m 5,1 km/h (1 Bft) SW 236 0 min 0,000 mm 0,0 UV-I 0 W/m 1,2 C 3,3 C 8,0 km/h (2 Bft) 100,00 %
17.02.2016 19:46 3,3 C 86 % 1016,5 hPa 0,0 l/m 6,8 km/h (2 Bft) SW 224 0 min 0,000 mm 0,0 UV-I 0 W/m 1,2 C 2,9 C 9,7 km/h (2 Bft) 100,00 %
17.02.2016 19:47 3,3 C 86 % 1016,6 hPa 0,0 l/m 4,9 km/h (1 Bft) W-SW 244 0 min 0,000 mm 0,0 UV-I 0 W/m 1,2 C 3,3 C 6,4 km/h (2 Bft) 100,00 %
17.02.2016 19:48 3,3 C 86 % 1016,5 hPa 0,0 l/m 7,5 km/h (2 Bft) W-SW 253 0 min 0,000 mm 0,0 UV-I 0 W/m 1,2 C 2,3 C 11,3 km/h (2 Bft) 100,00 %
17.02.2016 19:49 3,3 C 86 % 1016,6 hPa 0,0 l/m 5,4 km/h (1 Bft) W 265 0 min 0,000 mm 0,0 UV-I 0 W/m 1,2 C 3,3 C 8,0 km/h (2 Bft) 96,15 %
17.02.2016 19:50 3,3 C 86 % 1016,6 hPa 0,0 l/m 4,3 km/h (1 Bft) SW 227 0 min 0,000 mm 0,0 UV-I 0 W/m 1,2 C 3,3 C 6,4 km/h (2 Bft) 100,00 %
17.02.2016 19:51 3,3 C 86 % 1016,6 hPa 0,0 l/m 3,6 km/h (1 Bft) W-SW 245 0 min 0,000 mm 0,0 UV-I 0 W/m 1,2 C 3,3 C 4,8 km/h (1 Bft) 100,00 %
17.02.2016 19:52 3,3 C 86 % 1016,6 hPa 0,0 l/m 5,3 km/h (1 Bft) W 259 0 min 0,000 mm 0,0 UV-I 0 W/m 1,2 C 3,3 C 6,4 km/h (2 Bft) 100,00 %
17.02.2016 19:53 3,3 C 86 % 1016,6 hPa 0,0 l/m 4,6 km/h (1 Bft) W 267 0 min 0,000 mm 0,0 UV-I 0 W/m 1,2 C 3,3 C 6,4 km/h (2 Bft) 95,65 %
17.02.2016 19:54 3,3 C 86 % 1016,6 hPa 0,0 l/m 3,2 km/h (1 Bft) W 269 0 min 0,000 mm 0,0 UV-I 0 W/m 1,2 C 3,3 C 6,4 km/h (2 Bft) 95,83 %
17.02.2016 19:55 3,3 C 86 % 1016,5 hPa 0,0 l/m 8,4 km/h (2 Bft) W-SW 248 0 min 0,000 mm 0,0 UV-I 0 W/m 1,2 C 1,5 C 11,3 km/h (2 Bft) 100,00 %
17.02.2016 19:56 3,3 C 86 % 1016,5 hPa 0,0 l/m 5,6 km/h (1 Bft) W-SW 254 0 min 0,000 mm 0,0 UV-I 0 W/m 1,2 C 3,3 C 9,7 km/h (2 Bft) 100,00 %
17.02.2016 19:57 3,3 C 87 % 1016,6 hPa 0,0 l/m 4,7 km/h (1 Bft) SW 232 0 min 0,000 mm 0,0 UV-I 0 W/m 1,3 C 3,3 C 8,0 km/h (2 Bft) 100,00 %
17.02.2016 19:58 3,3 C 87 % 1016,6 hPa 0,0 l/m 4,1 km/h (1 Bft) W-SW 238 0 min 0,000 mm 0,0 UV-I 0 W/m 1,3 C 3,3 C 4,8 km/h (1 Bft) 100,00 %
17.02.2016 19:59 3,3 C 86 % 1016,6 hPa 0,0 l/m 8,1 km/h (2 Bft) W-SW 240 0 min 0,000 mm 0,0 UV-I 0 W/m 1,2 C 1,7 C 11,3 km/h (2 Bft) 100,00 %
17.02.2016 20:00 3,3 C 86 % 1016,5 hPa 0,0 l/m 4,1 km/h (1 Bft) W-SW 242 0 min 0,000 mm 0,0 UV-I 0 W/m 1,2 C 3,3 C 4,8 km/h (1 Bft) 100,00 %
17.02.2016 20:01 3,3 C 86 % 1016,5 hPa 0,0 l/m 2,7 km/h (1 Bft) W-SW 244 0 min 0,000 mm 0,0 UV-I 0 W/m 1,2 C 3,3 C 3,2 km/h (1 Bft) 100,00 %
17.02.2016 20:02 3,3 C 86 % 1016,6 hPa 0,0 l/m 6,9 km/h (2 Bft) W 260 0 min 0,000 mm 0,0 UV-I 0 W/m 1,2 C 2,8 C 11,3 km/h (2 Bft) 100,00 %
17.02.2016 20:03 3,3 C 86 % 1016,6 hPa 0,0 l/m 5,2 km/h (1 Bft) W-SW 248 0 min 0,000 mm 0,0 UV-I 0 W/m 1,2 C 3,3 C 6,4 km/h (2 Bft) 100,00 %
17.02.2016 20:04 3,3 C 86 % 1016,6 hPa 0,0 l/m 3,8 km/h (1 Bft) W 273 0 min 0,000 mm 0,0 UV-I 0 W/m 1,2 C 3,3 C 4,8 km/h (1 Bft) 100,00 %
17.02.2016 20:05 3,3 C 86 % 1016,5 hPa 0,0 l/m 4,0 km/h (1 Bft) W-NW 289 0 min 0,000 mm 0,0 UV-I 0 W/m 1,2 C 3,3 C 6,4 km/h (2 Bft) 100,00 %
17.02.2016 20:06 3,3 C 86 % 1016,5 hPa 0,0 l/m 5,0 km/h (1 Bft) W 267 0 min 0,000 mm 0,0 UV-I 0 W/m 1,2 C 3,3 C 9,7 km/h (2 Bft) 100,00 %
17.02.2016 20:07 3,3 C 87 % 1016,5 hPa 0,0 l/m 5,2 km/h (1 Bft) W 267 0 min 0,000 mm 0,0 UV-I 0 W/m 1,3 C 3,3 C 9,7 km/h (2 Bft) 100,00 %
17.02.2016 20:08 3,3 C 86 % 1016,5 hPa 0,0 l/m 4,3 km/h (1 Bft) W 276 0 min 0,000 mm 0,0 UV-I 0 W/m 1,2 C 3,3 C 9,7 km/h (2 Bft) 95,65 %
17.02.2016 20:09 3,3 C 86 % 1016,5 hPa 0,0 l/m 4,5 km/h (1 Bft) W 275 0 min 0,000 mm 0,0 UV-I 0 W/m 1,2 C 3,3 C 6,4 km/h (2 Bft) 100,00 %
17.02.2016 20:10 3,3 C 86 % 1016,5 hPa 0,0 l/m 3,5 km/h (1 Bft) W 267 0 min 0,000 mm 0,0 UV-I 0 W/m 1,2 C 3,3 C 4,8 km/h (1 Bft) 100,00 %
17.02.2016 20:11 3,3 C 86 % 1016,5 hPa 0,0 l/m 2,7 km/h (1 Bft) W 267 0 min 0,000 mm 0,0 UV-I 0 W/m 1,2 C 3,3 C 4,8 km/h (1 Bft) 100,00 %
17.02.2016 20:12 3,3 C 86 % 1016,5 hPa 0,0 l/m 3,9 km/h (1 Bft) W 267 0 min 0,000 mm 0,0 UV-I 0 W/m 1,2 C 3,3 C 4,8 km/h (1 Bft) 100,00 %
17.02.2016 20:13 3,3 C 86 % 1016,5 hPa 0,0 l/m 4,6 km/h (1 Bft) W-SW 250 0 min 0,000 mm 0,0 UV-I 0 W/m 1,2 C 3,3 C 6,4 km/h (2 Bft) 100,00 %
17.02.2016 20:14 3,3 C 86 % 1016,5 hPa 0,0 l/m 4,4 km/h (1 Bft) W 279 0 min 0,000 mm 0,0 UV-I 0 W/m 1,2 C 3,3 C 6,4 km/h (2 Bft) 100,00 %
17.02.2016 20:15 3,3 C 86 % 1016,5 hPa 0,0 l/m 3,3 km/h (1 Bft) W-SW 240 0 min 0,000 mm 0,0 UV-I 0 W/m 1,2 C 3,3 C 4,8 km/h (1 Bft) 100,00 %
17.02.2016 20:16 3,2 C 86 % 1016,5 hPa 0,0 l/m 3,6 km/h (1 Bft) W-SW 242 0 min 0,000 mm 0,0 UV-I 0 W/m 1,1 C 3,2 C 4,8 km/h (1 Bft) 100,00 %
17.02.2016 20:17 3,3 C 86 % 1016,6 hPa 0,0 l/m 2,6 km/h (1 Bft) W-SW 242 0 min 0,000 mm 0,0 UV-I 0 W/m 1,2 C 3,3 C 3,2 km/h (1 Bft) 100,00 %
17.02.2016 20:18 3,2 C 86 % 1016,6 hPa 0,0 l/m 2,2 km/h (1 Bft) W-SW 242 0 min 0,000 mm 0,0 UV-I 0 W/m 1,1 C 3,2 C 3,2 km/h (1 Bft) 95,65 %
17.02.2016 20:19 3,2 C 86 % 1016,6 hPa 0,0 l/m 2,3 km/h (1 Bft) W-SW 250 0 min 0,000 mm 0,0 UV-I 0 W/m 1,1 C 3,2 C 3,2 km/h (1 Bft) 100,00 %
17.02.2016 20:20 3,2 C 86 % 1016,6 hPa 0,0 l/m 2,9 km/h (1 Bft) W-SW 254 0 min 0,000 mm 0,0 UV-I 0 W/m 1,1 C 3,2 C 4,8 km/h (1 Bft) 100,00 %
17.02.2016 20:21 3,2 C 86 % 1016,5 hPa 0,0 l/m 2,8 km/h (1 Bft) W-SW 256 0 min 0,000 mm 0,0 UV-I 0 W/m 1,1 C 3,2 C 4,8 km/h (1 Bft) 100,00 %
17.02.2016 20:22 3,2 C 86 % 1016,6 hPa 0,0 l/m 5,4 km/h (1 Bft) W-SW 254 0 min 0,000 mm 0,0 UV-I 0 W/m 1,1 C 3,2 C 9,7 km/h (2 Bft) 100,00 %
17.02.2016 20:23 3,2 C 86 % 1016,6 hPa 0,0 l/m 4,5 km/h (1 Bft) W 259 0 min 0,000 mm 0,0 UV-I 0 W/m 1,1 C 3,2 C 6,4 km/h (2 Bft) 100,00 %
17.02.2016 20:24 3,2 C 87 % 1016,6 hPa 0,0 l/m 4,1 km/h (1 Bft) W 261 0 min 0,000 mm 0,0 UV-I 0 W/m 1,2 C 3,2 C 6,4 km/h (2 Bft) 100,00 %
17.02.2016 20:25 3,2 C 86 % 1016,6 hPa 0,0 l/m 3,5 km/h (1 Bft) W 262 0 min 0,000 mm 0,0 UV-I 0 W/m 1,1 C 3,2 C 4,8 km/h (1 Bft) 100,00 %
17.02.2016 20:26 3,2 C 86 % 1016,6 hPa 0,0 l/m 3,4 km/h (1 Bft) W-NW 285 0 min 0,000 mm 0,0 UV-I 0 W/m 1,1 C 3,2 C 4,8 km/h (1 Bft) 91,67 %
17.02.2016 20:27 3,2 C 87 % 1016,5 hPa 0,0 l/m 4,1 km/h (1 Bft) W 269 0 min 0,000 mm 0,0 UV-I 0 W/m 1,2 C 3,2 C 4,8 km/h (1 Bft) 100,00 %
17.02.2016 20:28 3,1 C 87 % 1016,5 hPa 0,0 l/m 4,5 km/h (1 Bft) W 273 0 min 0,000 mm 0,0 UV-I 0 W/m 1,2 C 3,1 C 6,4 km/h (2 Bft) 100,00 %
17.02.2016 20:29 3,1 C 87 % 1016,6 hPa 0,0 l/m 4,5 km/h (1 Bft) W-NW 282 0 min 0,000 mm 0,0 UV-I 0 W/m 1,2 C 3,1 C 6,4 km/h (2 Bft) 100,00 %
17.02.2016 20:30 3,1 C 87 % 1016,6 hPa 0,0 l/m 4,5 km/h (1 Bft) W-SW 251 0 min 0,000 mm 0,0 UV-I 0 W/m 1,2 C 3,1 C 6,4 km/h (2 Bft) 100,00 %
17.02.2016 20:31 3,0 C 87 % 1016,6 hPa 0,0 l/m 3,6 km/h (1 Bft) W-SW 250 0 min 0,000 mm 0,0 UV-I 0 W/m 1,1 C 3,0 C 4,8 km/h (1 Bft) 100,00 %
17.02.2016 20:32 2,9 C 87 % 1016,7 hPa 0,0 l/m 3,0 km/h (1 Bft) W-SW 250 0 min 0,000 mm 0,0 UV-I 0 W/m 1,0 C 2,9 C 4,8 km/h (1 Bft) 100,00 %
17.02.2016 20:33 2,9 C 87 % 1016,7 hPa 0,0 l/m 2,4 km/h (1 Bft) W-SW 250 0 min 0,000 mm 0,0 UV-I 0 W/m 1,0 C 2,9 C 4,8 km/h (1 Bft) 95,65 %
17.02.2016 20:34 2,9 C 87 % 1016,7 hPa 0,0 l/m 2,0 km/h (1 Bft) W-SW 250 0 min 0,000 mm 0,0 UV-I 0 W/m 1,0 C 2,9 C 3,2 km/h (1 Bft) 100,00 %
17.02.2016 20:35 2,8 C 87 % 1016,7 hPa 0,0 l/m 1,4 km/h (1 Bft) W-SW 250 0 min 0,000 mm 0,0 UV-I 0 W/m 0,9 C 2,8 C 1,6 km/h (1 Bft) 96,15 %
17.02.2016 20:36 2,8 C 87 % 1016,7 hPa 0,0 l/m 1,1 km/h (1 Bft) W-SW 250 0 min 0,000 mm 0,0 UV-I 0 W/m 0,9 C 2,8 C 1,6 km/h (1 Bft) 100,00 %
17.02.2016 20:37 2,8 C 87 % 1016,8 hPa 0,0 l/m 2,2 km/h (1 Bft) W-SW 250 0 min 0,000 mm 0,0 UV-I 0 W/m 0,9 C 2,8 C 3,2 km/h (1 Bft) 100,00 %
17.02.2016 20:38 2,7 C 87 % 1016,8 hPa 0,0 l/m 2,7 km/h (1 Bft) SW 232 0 min 0,000 mm 0,0 UV-I 0 W/m 0,8 C 2,7 C 4,8 km/h (1 Bft) 100,00 %
17.02.2016 20:39 2,7 C 88 % 1016,9 hPa 0,0 l/m 3,2 km/h (1 Bft) SW 229 0 min 0,000 mm 0,0 UV-I 0 W/m 0,9 C 2,7 C 4,8 km/h (1 Bft) 95,65 %
17.02.2016 20:40 2,7 C 88 % 1016,8 hPa 0,0 l/m 3,1 km/h (1 Bft) SW 229 0 min 0,000 mm 0,0 UV-I 0 W/m 0,9 C 2,7 C 4,8 km/h (1 Bft) 100,00 %
17.02.2016 20:41 2,7 C 88 % 1016,8 hPa 0,0 l/m 3,0 km/h (1 Bft) SW 229 0 min 0,000 mm 0,0 UV-I 0 W/m 0,9 C 2,7 C 3,2 km/h (1 Bft) 100,00 %
17.02.2016 20:42 2,7 C 87 % 1016,8 hPa 0,0 l/m 3,3 km/h (1 Bft) SW 229 0 min 0,000 mm 0,0 UV-I 0 W/m 0,8 C 2,7 C 4,8 km/h (1 Bft) 100,00 %
17.02.2016 20:43 2,7 C 87 % 1016,7 hPa 0,0 l/m 2,5 km/h (1 Bft) SW 229 0 min 0,000 mm 0,0 UV-I 0 W/m 0,8 C 2,7 C 4,8 km/h (1 Bft) 100,00 %
17.02.2016 20:44 2,6 C 88 % 1016,7 hPa 0,0 l/m 3,6 km/h (1 Bft) SW 229 0 min 0,000 mm 0,0 UV-I 0 W/m 0,8 C 2,6 C 4,8 km/h (1 Bft) 100,00 %
17.02.2016 20:45 2,6 C 88 % 1016,7 hPa 0,0 l/m 3,1 km/h (1 Bft) SW 229 0 min 0,000 mm 0,0 UV-I 0 W/m 0,8 C 2,6 C 3,2 km/h (1 Bft) 100,00 %
17.02.2016 20:46 2,6 C 88 % 1016,8 hPa 0,0 l/m 2,4 km/h (1 Bft) SW 229 0 min 0,000 mm 0,0 UV-I 0 W/m 0,8 C 2,6 C 3,2 km/h (1 Bft) 100,00 %
17.02.2016 20:47 2,6 C 88 % 1016,8 hPa 0,0 l/m 2,4 km/h (1 Bft) SW 229 0 min 0,000 mm 0,0 UV-I 0 W/m 0,8 C 2,6 C 3,2 km/h (1 Bft) 100,00 %
17.02.2016 20:48 2,5 C 88 % 1016,8 hPa 0,0 l/m 2,7 km/h (1 Bft) SW 229 0 min 0,000 mm 0,0 UV-I 0 W/m 0,7 C 2,5 C 3,2 km/h (1 Bft) 91,30 %
17.02.2016 20:49 2,4 C 88 % 1016,7 hPa 0,0 l/m 2,8 km/h (1 Bft) SW 229 0 min 0,000 mm 0,0 UV-I 0 W/m 0,6 C 2,4 C 3,2 km/h (1 Bft) 95,83 %
17.02.2016 20:50 2,4 C 88 % 1016,8 hPa 0,0 l/m 2,7 km/h (1 Bft) SW 229 0 min 0,000 mm 0,0 UV-I 0 W/m 0,6 C 2,4 C 3,2 km/h (1 Bft) 100,00 %
17.02.2016 20:51 2,4 C 88 % 1016,8 hPa 0,0 l/m 2,7 km/h (1 Bft) SW 229 0 min 0,000 mm 0,0 UV-I 0 W/m 0,6 C 2,4 C 3,2 km/h (1 Bft) 100,00 %
17.02.2016 20:52 2,3 C 88 % 1016,8 hPa 0,0 l/m 2,5 km/h (1 Bft) SW 229 0 min 0,000 mm 0,0 UV-I 0 W/m 0,5 C 2,3 C 3,2 km/h (1 Bft) 100,00 %
17.02.2016 20:53 2,3 C 88 % 1016,9 hPa 0,0 l/m 2,0 km/h (1 Bft) SW 229 0 min 0,000 mm 0,0 UV-I 0 W/m 0,5 C 2,3 C 3,2 km/h (1 Bft) 100,00 %
17.02.2016 20:54 2,3 C 88 % 1016,9 hPa 0,0 l/m 2,2 km/h (1 Bft) SW 229 0 min 0,000 mm 0,0 UV-I 0 W/m 0,5 C 2,3 C 3,2 km/h (1 Bft) 95,65 %
17.02.2016 20:55 2,2 C 88 % 1016,9 hPa 0,0 l/m 2,6 km/h (1 Bft) SW 229 0 min 0,000 mm 0,0 UV-I 0 W/m 0,4 C 2,2 C 3,2 km/h (1 Bft) 100,00 %
17.02.2016 20:56 2,1 C 88 % 1016,9 hPa 0,0 l/m 3,4 km/h (1 Bft) SW 229 0 min 0,000 mm 0,0 UV-I 0 W/m 0,3 C 2,1 C 4,8 km/h (1 Bft) 98,68 %
17.02.2016 20:57 2,1 C 89 % 1016,9 hPa 0,0 l/m 3,7 km/h (1 Bft) SW 229 0 min 0,000 mm 0,0 UV-I 0 W/m 0,5 C 2,1 C 4,8 km/h (1 Bft) 100,00 %
17.02.2016 20:58 2,0 C 89 % 1016,9 hPa 0,0 l/m 3,4 km/h (1 Bft) SW 229 0 min 0,000 mm 0,0 UV-I 0 W/m 0,4 C 2,0 C 4,8 km/h (1 Bft) 100,00 %
17.02.2016 20:59 2,0 C 89 % 1016,9 hPa 0,0 l/m 2,6 km/h (1 Bft) SW 229 0 min 0,000 mm 0,0 UV-I 0 W/m 0,4 C 2,0 C 3,2 km/h (1 Bft) 100,00 %
17.02.2016 21:00 1,9 C 89 % 1017,0 hPa 0,0 l/m 2,9 km/h (1 Bft) SW 229 0 min 0,000 mm 0,0 UV-I 0 W/m 0,3 C 1,9 C 3,2 km/h (1 Bft) 91,67 %
17.02.2016 21:01 1,9 C 89 % 1017,0 hPa 0,0 l/m 3,0 km/h (1 Bft) SW 229 0 min 0,000 mm 0,0 UV-I 0 W/m 0,3 C 1,9 C 3,2 km/h (1 Bft) 100,00 %
17.02.2016 21:02 1,9 C 89 % 1017,0 hPa 0,0 l/m 3,5 km/h (1 Bft) SW 222 0 min 0,000 mm 0,0 UV-I 0 W/m 0,3 C 1,9 C 4,8 km/h (1 Bft) 100,00 %
17.02.2016 21:03 1,9 C 89 % 1017,0 hPa 0,0 l/m 2,9 km/h (1 Bft) SW 221 0 min 0,000 mm 0,0 UV-I 0 W/m 0,3 C 1,9 C 4,8 km/h (1 Bft) 100,00 %
17.02.2016 21:04 1,9 C 89 % 1017,1 hPa 0,0 l/m 0,6 km/h (0 Bft) SW 221 0 min 0,000 mm 0,0 UV-I 0 W/m 0,3 C 1,9 C 1,6 km/h (1 Bft) 100,00 %
17.02.2016 21:05 1,8 C 89 % 1017,1 hPa 0,0 l/m 0,5 km/h (0 Bft) SW 221 0 min 0,000 mm 0,0 UV-I 0 W/m 0,2 C 1,8 C 1,6 km/h (1 Bft) 100,00 %
17.02.2016 21:06 1,7 C 89 % 1017,0 hPa 0,0 l/m 1,2 km/h (1 Bft) SW 221 0 min 0,000 mm 0,0 UV-I 0 W/m 0,1 C 1,7 C 3,2 km/h (1 Bft) 100,00 %
17.02.2016 21:07 1,7 C 90 % 1017,0 hPa 0,0 l/m 2,0 km/h (1 Bft) SW 221 0 min 0,000 mm 0,0 UV-I 0 W/m 0,2 C 1,7 C 3,2 km/h (1 Bft) 100,00 %
17.02.2016 21:08 1,6 C 90 % 1017,0 hPa 0,0 l/m 2,8 km/h (1 Bft) SW 221 0 min 0,000 mm 0,0 UV-I 0 W/m 0,1 C 1,6 C 4,8 km/h (1 Bft) 100,00 %
17.02.2016 21:09 1,6 C 90 % 1017,0 hPa 0,0 l/m 3,0 km/h (1 Bft) SW 219 0 min 0,000 mm 0,0 UV-I 0 W/m 0,1 C 1,6 C 4,8 km/h (1 Bft) 95,65 %
17.02.2016 21:10 1,5 C 90 % 1017,1 hPa 0,0 l/m 2,5 km/h (1 Bft) SW 219 0 min 0,000 mm 0,0 UV-I 0 W/m 0,0 C 1,5 C 3,2 km/h (1 Bft) 95,83 %
17.02.2016 21:11 1,5 C 91 % 1017,0 hPa 0,0 l/m 1,2 km/h (1 Bft) SW 219 0 min 0,000 mm 0,0 UV-I 0 W/m 0,2 C 1,5 C 1,6 km/h (1 Bft) 96,15 %
17.02.2016 21:12 1,5 C 90 % 1017,1 hPa 0,0 l/m 0,9 km/h (0 Bft) SW 219 0 min 0,000 mm 0,0 UV-I 0 W/m 0,0 C 1,5 C 1,6 km/h (1 Bft) 100,00 %
17.02.2016 21:13 1,4 C 90 % 1017,2 hPa 0,0 l/m 3,0 km/h (1 Bft) SW 219 0 min 0,000 mm 0,0 UV-I 0 W/m -0,1 C 1,4 C 4,8 km/h (1 Bft) 95,65 %
17.02.2016 21:14 1,4 C 90 % 1017,1 hPa 0,0 l/m 2,9 km/h (1 Bft) SW 219 0 min 0,000 mm 0,0 UV-I 0 W/m -0,1 C 1,4 C 3,2 km/h (1 Bft) 100,00 %
17.02.2016 21:15 1,4 C 90 % 1017,1 hPa 0,0 l/m 3,4 km/h (1 Bft) SW 219 0 min 0,000 mm 0,0 UV-I 0 W/m -0,1 C 1,4 C 4,8 km/h (1 Bft) 96,55 %
17.02.2016 21:16 1,4 C 91 % 1017,1 hPa 0,0 l/m 3,3 km/h (1 Bft) SW 219 0 min 0,000 mm 0,0 UV-I 0 W/m 0,1 C 1,4 C 4,8 km/h (1 Bft) 100,00 %
17.02.2016 21:17 1,3 C 91 % 1017,0 hPa 0,0 l/m 3,0 km/h (1 Bft) SW 219 0 min 0,000 mm 0,0 UV-I 0 W/m -0,0 C 1,3 C 3,2 km/h (1 Bft) 96,15 %
17.02.2016 21:18 1,3 C 91 % 1017,0 hPa 0,0 l/m 3,1 km/h (1 Bft) SW 219 0 min 0,000 mm 0,0 UV-I 0 W/m -0,0 C 1,3 C 4,8 km/h (1 Bft) 100,00 %
17.02.2016 21:19 1,2 C 91 % 1017,0 hPa 0,0 l/m 3,4 km/h (1 Bft) SW 219 0 min 0,000 mm 0,0 UV-I 0 W/m -0,1 C 1,2 C 4,8 km/h (1 Bft) 95,65 %
17.02.2016 21:20 1,2 C 91 % 1017,0 hPa 0,0 l/m 2,6 km/h (1 Bft) SW 219 0 min 0,000 mm 0,0 UV-I 0 W/m -0,1 C 1,2 C 3,2 km/h (1 Bft) 100,00 %
17.02.2016 21:21 1,2 C 91 % 1016,9 hPa 0,0 l/m 0,1 km/h (0 Bft) SW 219 0 min 0,000 mm 0,0 UV-I 0 W/m -0,1 C 1,2 C 1,6 km/h (1 Bft) 88,89 %
17.02.2016 21:22 1,2 C 91 % 1016,9 hPa 0,0 l/m 0,4 km/h (0 Bft) SW 219 0 min 0,000 mm 0,0 UV-I 0 W/m -0,1 C 1,2 C 1,6 km/h (1 Bft) 95,65 %
17.02.2016 21:23 1,2 C 91 % 1016,9 hPa 0,0 l/m 0,2 km/h (0 Bft) SW 219 0 min 0,000 mm 0,0 UV-I 0 W/m -0,1 C 1,2 C 1,6 km/h (1 Bft) 100,00 %
17.02.2016 21:24 1,1 C 91 % 1017,0 hPa 0,0 l/m 0,6 km/h (0 Bft) SW 219 0 min 0,000 mm 0,0 UV-I 0 W/m -0,2 C 1,1 C 1,6 km/h (1 Bft) 96,15 %
17.02.2016 21:25 1,1 C 91 % 1017,0 hPa 0,0 l/m 0,5 km/h (0 Bft) SW 219 0 min 0,000 mm 0,0 UV-I 0 W/m -0,2 C 1,1 C 1,6 km/h (1 Bft) 100,00 %
17.02.2016 21:26 0,9 C 91 % 1017,0 hPa 0,0 l/m 0,1 km/h (0 Bft) SW 219 0 min 0,000 mm 0,0 UV-I 0 W/m -0,4 C 0,9 C 1,6 km/h (1 Bft) 95,65 %
17.02.2016 21:27 0,9 C 92 % 1017,0 hPa 0,0 l/m 0,1 km/h (0 Bft) SW 219 0 min 0,000 mm 0,0 UV-I 0 W/m -0,2 C 0,9 C 1,6 km/h (1 Bft) 100,00 %
17.02.2016 21:28 0,9 C 92 % 1017,0 hPa 0,0 l/m 0,3 km/h (0 Bft) SW 219 0 min 0,000 mm 0,0 UV-I 0 W/m -0,2 C 0,9 C 1,6 km/h (1 Bft) 95,65 %
17.02.2016 21:29 1,0 C 92 % 1017,0 hPa 0,0 l/m 0,1 km/h (0 Bft) SW 219 0 min 0,000 mm 0,0 UV-I 0 W/m -0,2 C 1,0 C 1,6 km/h (1 Bft) 95,83 %
17.02.2016 21:30 1,0 C 92 % 1017,0 hPa 0,0 l/m 0,3 km/h (0 Bft) SW 219 0 min 0,000 mm 0,0 UV-I 0 W/m -0,2 C 1,0 C 1,6 km/h (1 Bft) 100,00 %
17.02.2016 21:31 1,1 C 93 % 1016,9 hPa 0,0 l/m 0,1 km/h (0 Bft) SW 219 0 min 0,000 mm 0,0 UV-I 0 W/m 0,1 C 1,1 C 1,6 km/h (1 Bft) 96,30 %
17.02.2016 21:32 1,1 C 92 % 1017,0 hPa 0,0 l/m 0,1 km/h (0 Bft) SW 219 0 min 0,000 mm 0,0 UV-I 0 W/m -0,1 C 1,1 C 1,6 km/h (1 Bft) 100,00 %
17.02.2016 21:33 1,1 C 92 % 1016,9 hPa 0,0 l/m 0,1 km/h (0 Bft) SW 219 0 min 0,000 mm 0,0 UV-I 0 W/m -0,1 C 1,1 C 1,6 km/h (1 Bft) 95,83 %
17.02.2016 21:34 1,2 C 92 % 1017,0 hPa 0,0 l/m 0,5 km/h (0 Bft) SW 219 0 min 0,000 mm 0,0 UV-I 0 W/m 0,0 C 1,2 C 1,6 km/h (1 Bft) 100,00 %
17.02.2016 21:35 1,2 C 92 % 1017,0 hPa 0,0 l/m 0,9 km/h (0 Bft) SW 218 0 min 0,000 mm 0,0 UV-I 0 W/m 0,0 C 1,2 C 1,6 km/h (1 Bft) 96,55 %
17.02.2016 21:36 1,2 C 92 % 1017,0 hPa 0,0 l/m 0,8 km/h (0 Bft) S-SW 196 0 min 0,000 mm 0,0 UV-I 0 W/m 0,0 C 1,2 C 1,6 km/h (1 Bft) 100,00 %
17.02.2016 21:37 1,1 C 92 % 1017,0 hPa 0,0 l/m 1,3 km/h (1 Bft) S 179 0 min 0,000 mm 0,0 UV-I 0 W/m -0,1 C 1,1 C 3,2 km/h (1 Bft) 96,15 %
17.02.2016 21:38 1,1 C 92 % 1017,0 hPa 0,0 l/m 2,2 km/h (1 Bft) S 178 0 min 0,000 mm 0,0 UV-I 0 W/m -0,1 C 1,1 C 3,2 km/h (1 Bft) 100,00 %
17.02.2016 21:39 1,1 C 92 % 1017,0 hPa 0,0 l/m 1,5 km/h (1 Bft) S 178 0 min 0,000 mm 0,0 UV-I 0 W/m -0,1 C 1,1 C 3,2 km/h (1 Bft) 95,65 %
17.02.2016 21:40 1,0 C 92 % 1017,1 hPa 0,0 l/m 1,5 km/h (1 Bft) S 178 0 min 0,000 mm 0,0 UV-I 0 W/m -0,2 C 1,0 C 3,2 km/h (1 Bft) 95,83 %
17.02.2016 21:41 0,9 C 92 % 1017,1 hPa 0,0 l/m 3,4 km/h (1 Bft) S 178 0 min 0,000 mm 0,0 UV-I 0 W/m -0,2 C 0,9 C 4,8 km/h (1 Bft) 100,00 %
17.02.2016 21:42 0,9 C 92 % 1017,0 hPa 0,0 l/m 3,4 km/h (1 Bft) S 173 0 min 0,000 mm 0,0 UV-I 0 W/m -0,2 C 0,9 C 4,8 km/h (1 Bft) 95,83 %
17.02.2016 21:43 0,8 C 92 % 1017,0 hPa 0,0 l/m 4,0 km/h (1 Bft) S 172 0 min 0,000 mm 0,0 UV-I 0 W/m -0,3 C 0,8 C 4,8 km/h (1 Bft) 96,15 %
17.02.2016 21:44 0,8 C 92 % 1017,1 hPa 0,0 l/m 3,1 km/h (1 Bft) S 172 0 min 0,000 mm 0,0 UV-I 0 W/m -0,3 C 0,8 C 4,8 km/h (1 Bft) 96,30 %
17.02.2016 21:45 0,7 C 92 % 1017,0 hPa 0,0 l/m 2,1 km/h (1 Bft) S 172 0 min 0,000 mm 0,0 UV-I 0 W/m -0,4 C 0,7 C 3,2 km/h (1 Bft) 100,00 %
17.02.2016 21:46 0,7 C 92 % 1017,0 hPa 0,0 l/m 0,6 km/h (0 Bft) S 172 0 min 0,000 mm 0,0 UV-I 0 W/m -0,4 C 0,7 C 1,6 km/h (1 Bft) 94,44 %
17.02.2016 21:47 0,6 C 93 % 1017,0 hPa 0,0 l/m 0,1 km/h (0 Bft) S 172 0 min 0,000 mm 0,0 UV-I 0 W/m -0,4 C 0,6 C 1,6 km/h (1 Bft) 100,00 %
17.02.2016 21:48 0,6 C 93 % 1017,0 hPa 0,0 l/m 0,0 km/h (0 Bft) S 172 0 min 0,000 mm 0,0 UV-I 0 W/m -0,4 C 0,6 C 0,0 km/h (0 Bft) 100,00 %
17.02.2016 21:49 0,6 C 93 % 1017,1 hPa 0,0 l/m 0,1 km/h (0 Bft) S 172 0 min 0,000 mm 0,0 UV-I 0 W/m -0,4 C 0,6 C 1,6 km/h (1 Bft) 100,00 %
17.02.2016 21:50 0,6 C 93 % 1017,1 hPa 0,0 l/m 0,2 km/h (0 Bft) S 172 0 min 0,000 mm 0,0 UV-I 0 W/m -0,4 C 0,6 C 1,6 km/h (1 Bft) 100,00 %
17.02.2016 21:51 0,6 C 93 % 1017,0 hPa 0,0 l/m 0,9 km/h (0 Bft) S 172 0 min 0,000 mm 0,0 UV-I 0 W/m -0,4 C 0,6 C 1,6 km/h (1 Bft) 100,00 %
17.02.2016 21:52 0,5 C 93 % 1017,0 hPa 0,0 l/m 1,0 km/h (0 Bft) S 172 0 min 0,000 mm 0,0 UV-I 0 W/m -0,5 C 0,5 C 1,6 km/h (1 Bft) 100,00 %
17.02.2016 21:53 0,5 C 93 % 1016,9 hPa 0,0 l/m 0,5 km/h (0 Bft) S 172 0 min 0,000 mm 0,0 UV-I 0 W/m -0,5 C 0,5 C 1,6 km/h (1 Bft) 100,00 %
17.02.2016 21:54 0,5 C 93 % 1017,0 hPa 0,0 l/m 0,0 km/h (0 Bft) S 172 0 min 0,000 mm 0,0 UV-I 0 W/m -0,5 C 0,5 C 0,0 km/h (0 Bft) 100,00 %
17.02.2016 21:55 0,5 C 93 % 1016,9 hPa 0,0 l/m 0,6 km/h (0 Bft) S 172 0 min 0,000 mm 0,0 UV-I 0 W/m -0,5 C 0,5 C 1,6 km/h (1 Bft) 95,65 %
17.02.2016 21:56 0,5 C 93 % 1016,9 hPa 0,0 l/m 1,5 km/h (1 Bft) S 172 0 min 0,000 mm 0,0 UV-I 0 W/m -0,5 C 0,5 C 1,6 km/h (1 Bft) 100,00 %
17.02.2016 21:57 0,5 C 94 % 1016,9 hPa 0,0 l/m 1,5 km/h (1 Bft) S 172 0 min 0,000 mm 0,0 UV-I 0 W/m -0,4 C 0,5 C 3,2 km/h (1 Bft) 100,00 %
17.02.2016 21:58 0,6 C 94 % 1016,9 hPa 0,0 l/m 1,3 km/h (1 Bft) S 172 0 min 0,000 mm 0,0 UV-I 0 W/m -0,3 C 0,6 C 1,6 km/h (1 Bft) 100,00 %
17.02.2016 21:59 0,6 C 94 % 1016,9 hPa 0,0 l/m 1,8 km/h (1 Bft) S 172 0 min 0,000 mm 0,0 UV-I 0 W/m -0,3 C 0,6 C 3,2 km/h (1 Bft) 100,00 %
17.02.2016 22:00 0,6 C 93 % 1016,9 hPa 0,0 l/m 1,3 km/h (1 Bft) S 172 0 min 0,000 mm 0,0 UV-I 0 W/m -0,4 C 0,6 C 3,2 km/h (1 Bft) 100,00 %
17.02.2016 22:01 0,6 C 93 % 1016,9 hPa 0,0 l/m 1,1 km/h (1 Bft) S 172 0 min 0,000 mm 0,0 UV-I 0 W/m -0,4 C 0,6 C 1,6 km/h (1 Bft) 100,00 %
17.02.2016 22:02 0,5 C 93 % 1016,9 hPa 0,0 l/m 0,7 km/h (0 Bft) S 172 0 min 0,000 mm 0,0 UV-I 0 W/m -0,5 C 0,5 C 1,6 km/h (1 Bft) 100,00 %
17.02.2016 22:03 0,5 C 93 % 1016,9 hPa 0,0 l/m 0,3 km/h (0 Bft) S 172 0 min 0,000 mm 0,0 UV-I 0 W/m -0,5 C 0,5 C 1,6 km/h (1 Bft) 100,00 %
17.02.2016 22:04 0,5 C 93 % 1016,9 hPa 0,0 l/m 0,1 km/h (0 Bft) S 172 0 min 0,000 mm 0,0 UV-I 0 W/m -0,5 C 0,5 C 1,6 km/h (1 Bft) 100,00 %
17.02.2016 22:05 0,4 C 93 % 1016,9 hPa 0,0 l/m 0,3 km/h (0 Bft) S 172 0 min 0,000 mm 0,0 UV-I 0 W/m -0,6 C 0,4 C 1,6 km/h (1 Bft) 100,00 %
17.02.2016 22:06 0,4 C 93 % 1016,9 hPa 0,0 l/m 0,5 km/h (0 Bft) S 172 0 min 0,000 mm 0,0 UV-I 0 W/m -0,6 C 0,4 C 1,6 km/h (1 Bft) 100,00 %
17.02.2016 22:07 0,4 C 93 % 1016,9 hPa 0,0 l/m 1,2 km/h (1 Bft) S 172 0 min 0,000 mm 0,0 UV-I 0 W/m -0,6 C 0,4 C 1,6 km/h (1 Bft) 100,00 %
17.02.2016 22:08 0,4 C 93 % 1016,9 hPa 0,0 l/m 1,4 km/h (1 Bft) S 172 0 min 0,000 mm 0,0 UV-I 0 W/m -0,6 C 0,4 C 3,2 km/h (1 Bft) 100,00 %
17.02.2016 22:09 0,4 C 93 % 1016,9 hPa 0,0 l/m 0,3 km/h (0 Bft) S 172 0 min 0,000 mm 0,0 UV-I 0 W/m -0,6 C 0,4 C 1,6 km/h (1 Bft) 100,00 %
17.02.2016 22:10 0,4 C 93 % 1016,9 hPa 0,0 l/m 0,2 km/h (0 Bft) S 172 0 min 0,000 mm 0,0 UV-I 0 W/m -0,6 C 0,4 C 1,6 km/h (1 Bft) 100,00 %
17.02.2016 22:11 0,4 C 93 % 1017,0 hPa 0,0 l/m 0,3 km/h (0 Bft) S 172 0 min 0,000 mm 0,0 UV-I 0 W/m -0,6 C 0,4 C 1,6 km/h (1 Bft) 100,00 %
17.02.2016 22:12 0,4 C 94 % 1017,0 hPa 0,0 l/m 0,1 km/h (0 Bft) S 172 0 min 0,000 mm 0,0 UV-I 0 W/m -0,5 C 0,4 C 1,6 km/h (1 Bft) 100,00 %
17.02.2016 22:13 0,5 C 94 % 1017,1 hPa 0,0 l/m 0,3 km/h (0 Bft) S 172 0 min 0,000 mm 0,0 UV-I 0 W/m -0,4 C 0,5 C 1,6 km/h (1 Bft) 100,00 %
17.02.2016 22:14 0,5 C 94 % 1017,1 hPa 0,0 l/m 1,0 km/h (0 Bft) S 172 0 min 0,000 mm 0,0 UV-I 0 W/m -0,4 C 0,5 C 1,6 km/h (1 Bft) 100,00 %
17.02.2016 22:15 0,4 C 93 % 1017,1 hPa 0,0 l/m 2,3 km/h (1 Bft) S 172 0 min 0,000 mm 0,0 UV-I 0 W/m -0,6 C 0,4 C 3,2 km/h (1 Bft) 100,00 %
17.02.2016 22:16 0,4 C 93 % 1017,1 hPa 0,0 l/m 1,9 km/h (1 Bft) S 172 0 min 0,000 mm 0,0 UV-I 0 W/m -0,6 C 0,4 C 3,2 km/h (1 Bft) 100,00 %
17.02.2016 22:17 0,4 C 93 % 1017,1 hPa 0,0 l/m 0,8 km/h (0 Bft) S 172 0 min 0,000 mm 0,0 UV-I 0 W/m -0,6 C 0,4 C 1,6 km/h (1 Bft) 100,00 %
17.02.2016 22:18 0,4 C 93 % 1017,0 hPa 0,0 l/m 2,4 km/h (1 Bft) S 172 0 min 0,000 mm 0,0 UV-I 0 W/m -0,6 C 0,4 C 3,2 km/h (1 Bft) 100,00 %
17.02.2016 22:19 0,4 C 93 % 1017,0 hPa 0,0 l/m 2,6 km/h (1 Bft) S 172 0 min 0,000 mm 0,0 UV-I 0 W/m -0,6 C 0,4 C 3,2 km/h (1 Bft) 91,30 %
17.02.2016 22:20 0,4 C 93 % 1017,0 hPa 0,0 l/m 2,4 km/h (1 Bft) S 172 0 min 0,000 mm 0,0 UV-I 0 W/m -0,6 C 0,4 C 3,2 km/h (1 Bft) 100,00 %
17.02.2016 22:21 0,3 C 93 % 1017,0 hPa 0,0 l/m 2,3 km/h (1 Bft) S 172 0 min 0,000 mm 0,0 UV-I 0 W/m -0,7 C 0,3 C 3,2 km/h (1 Bft) 100,00 %
17.02.2016 22:22 0,3 C 93 % 1016,9 hPa 0,0 l/m 2,1 km/h (1 Bft) S 172 0 min 0,000 mm 0,0 UV-I 0 W/m -0,7 C 0,3 C 3,2 km/h (1 Bft) 100,00 %
17.02.2016 22:23 0,3 C 93 % 1016,9 hPa 0,0 l/m 1,5 km/h (1 Bft) S 172 0 min 0,000 mm 0,0 UV-I 0 W/m -0,7 C 0,3 C 3,2 km/h (1 Bft) 100,00 %
17.02.2016 22:24 0,3 C 93 % 1016,9 hPa 0,0 l/m 1,7 km/h (1 Bft) S 172 0 min 0,000 mm 0,0 UV-I 0 W/m -0,7 C 0,3 C 3,2 km/h (1 Bft) 100,00 %
17.02.2016 22:25 0,3 C 93 % 1016,9 hPa 0,0 l/m 0,8 km/h (0 Bft) S 172 0 min 0,000 mm 0,0 UV-I 0 W/m -0,7 C 0,3 C 1,6 km/h (1 Bft) 100,00 %
17.02.2016 22:26 0,3 C 94 % 1016,9 hPa 0,0 l/m 0,1 km/h (0 Bft) S 172 0 min 0,000 mm 0,0 UV-I 0 W/m -0,5 C 0,3 C 1,6 km/h (1 Bft) 100,00 %
17.02.2016 22:27 0,2 C 94 % 1016,9 hPa 0,0 l/m 0,3 km/h (0 Bft) S 172 0 min 0,000 mm 0,0 UV-I 0 W/m -0,6 C 0,2 C 1,6 km/h (1 Bft) 91,30 %
17.02.2016 22:28 0,2 C 93 % 1017,0 hPa 0,0 l/m 1,6 km/h (1 Bft) S 172 0 min 0,000 mm 0,0 UV-I 0 W/m -0,8 C 0,2 C 3,2 km/h (1 Bft) 100,00 %
17.02.2016 22:29 0,2 C 94 % 1016,9 hPa 0,0 l/m 1,8 km/h (1 Bft) S 172 0 min 0,000 mm 0,0 UV-I 0 W/m -0,6 C 0,2 C 3,2 km/h (1 Bft) 100,00 %
17.02.2016 22:30 0,2 C 94 % 1017,0 hPa 0,0 l/m 2,7 km/h (1 Bft) S 172 0 min 0,000 mm 0,0 UV-I 0 W/m -0,6 C 0,2 C 3,2 km/h (1 Bft) 100,00 %
17.02.2016 22:31 0,1 C 93 % 1017,0 hPa 0,0 l/m 2,9 km/h (1 Bft) S 172 0 min 0,000 mm 0,0 UV-I 0 W/m -0,9 C 0,1 C 4,8 km/h (1 Bft) 100,00 %
17.02.2016 22:32 0,1 C 94 % 1017,0 hPa 0,0 l/m 2,5 km/h (1 Bft) S 172 0 min 0,000 mm 0,0 UV-I 0 W/m -0,7 C 0,1 C 3,2 km/h (1 Bft) 100,00 %
17.02.2016 22:33 0,1 C 94 % 1016,9 hPa 0,0 l/m 3,0 km/h (1 Bft) S 172 0 min 0,000 mm 0,0 UV-I 0 W/m -0,7 C 0,1 C 3,2 km/h (1 Bft) 100,00 %
17.02.2016 22:34 0,1 C 94 % 1017,0 hPa 0,0 l/m 2,6 km/h (1 Bft) S 172 0 min 0,000 mm 0,0 UV-I 0 W/m -0,7 C 0,1 C 3,2 km/h (1 Bft) 100,00 %
17.02.2016 22:35 0,1 C 94 % 1016,9 hPa 0,0 l/m 3,1 km/h (1 Bft) S 172 0 min 0,000 mm 0,0 UV-I 0 W/m -0,7 C 0,1 C 3,2 km/h (1 Bft) 100,00 %
17.02.2016 22:36 0,1 C 94 % 1016,9 hPa 0,0 l/m 3,1 km/h (1 Bft) S 172 0 min 0,000 mm 0,0 UV-I 0 W/m -0,7 C 0,1 C 3,2 km/h (1 Bft) 100,00 %
17.02.2016 22:37 0,2 C 94 % 1017,0 hPa 0,0 l/m 3,3 km/h (1 Bft) S 172 0 min 0,000 mm 0,0 UV-I 0 W/m -0,6 C 0,2 C 4,8 km/h (1 Bft) 100,00 %
17.02.2016 22:38 0,2 C 94 % 1017,0 hPa 0,0 l/m 3,3 km/h (1 Bft) S 172 0 min 0,000 mm 0,0 UV-I 0 W/m -0,6 C 0,2 C 4,8 km/h (1 Bft) 100,00 %
17.02.2016 22:39 0,2 C 94 % 1017,0 hPa 0,0 l/m 3,3 km/h (1 Bft) S 172 0 min 0,000 mm 0,0 UV-I 0 W/m -0,6 C 0,2 C 4,8 km/h (1 Bft) 100,00 %
17.02.2016 22:40 0,2 C 94 % 1017,0 hPa 0,0 l/m 3,8 km/h (1 Bft) S 172 0 min 0,000 mm 0,0 UV-I 0 W/m -0,6 C 0,2 C 4,8 km/h (1 Bft) 100,00 %
17.02.2016 22:41 0,2 C 94 % 1017,0 hPa 0,0 l/m 3,2 km/h (1 Bft) S 172 0 min 0,000 mm 0,0 UV-I 0 W/m -0,6 C 0,2 C 3,2 km/h (1 Bft) 100,00 %
17.02.2016 22:42 0,2 C 94 % 1017,0 hPa 0,0 l/m 2,3 km/h (1 Bft) S 172 0 min 0,000 mm 0,0 UV-I 0 W/m -0,6 C 0,2 C 3,2 km/h (1 Bft) 100,00 %
17.02.2016 22:43 0,2 C 94 % 1016,9 hPa 0,0 l/m 2,7 km/h (1 Bft) S 172 0 min 0,000 mm 0,0 UV-I 0 W/m -0,6 C 0,2 C 3,2 km/h (1 Bft) 100,00 %
17.02.2016 22:44 0,2 C 94 % 1016,9 hPa 0,0 l/m 2,4 km/h (1 Bft) S 172 0 min 0,000 mm 0,0 UV-I 0 W/m -0,6 C 0,2 C 3,2 km/h (1 Bft) 100,00 %
17.02.2016 22:45 0,2 C 94 % 1016,9 hPa 0,0 l/m 1,9 km/h (1 Bft) S 172 0 min 0,000 mm 0,0 UV-I 0 W/m -0,6 C 0,2 C 3,2 km/h (1 Bft) 100,00 %
17.02.2016 22:46 0,2 C 94 % 1016,8 hPa 0,0 l/m 1,0 km/h (0 Bft) S 172 0 min 0,000 mm 0,0 UV-I 0 W/m -0,6 C 0,2 C 1,6 km/h (1 Bft) 96,15 %
17.02.2016 22:47 0,1 C 94 % 1016,9 hPa 0,0 l/m 0,1 km/h (0 Bft) S 172 0 min 0,000 mm 0,0 UV-I 0 W/m -0,7 C 0,1 C 1,6 km/h (1 Bft) 96,30 %
17.02.2016 22:48 0,1 C 94 % 1016,9 hPa 0,0 l/m 0,2 km/h (0 Bft) S 172 0 min 0,000 mm 0,0 UV-I 0 W/m -0,7 C 0,1 C 1,6 km/h (1 Bft) 100,00 %
17.02.2016 22:49 0,1 C 94 % 1016,9 hPa 0,0 l/m 0,2 km/h (0 Bft) S 172 0 min 0,000 mm 0,0 UV-I 0 W/m -0,7 C 0,1 C 1,6 km/h (1 Bft) 100,00 %
17.02.2016 22:50 0,1 C 94 % 1016,9 hPa 0,0 l/m 0,1 km/h (0 Bft) S 172 0 min 0,000 mm 0,0 UV-I 0 W/m -0,7 C 0,1 C 1,6 km/h (1 Bft) 100,00 %
17.02.2016 22:51 0,1 C 94 % 1017,0 hPa 0,0 l/m 0,8 km/h (0 Bft) S 172 0 min 0,000 mm 0,0 UV-I 0 W/m -0,7 C 0,1 C 1,6 km/h (1 Bft) 100,00 %
17.02.2016 22:52 0,2 C 94 % 1017,0 hPa 0,0 l/m 1,0 km/h (0 Bft) S 172 0 min 0,000 mm 0,0 UV-I 0 W/m -0,6 C 0,2 C 1,6 km/h (1 Bft) 100,00 %
17.02.2016 22:53 0,2 C 94 % 1017,1 hPa 0,0 l/m 0,7 km/h (0 Bft) S 172 0 min 0,000 mm 0,0 UV-I 0 W/m -0,6 C 0,2 C 1,6 km/h (1 Bft) 100,00 %
17.02.2016 22:54 0,2 C 95 % 1017,0 hPa 0,0 l/m 2,8 km/h (1 Bft) S 172 0 min 0,000 mm 0,0 UV-I 0 W/m -0,5 C 0,2 C 3,2 km/h (1 Bft) 100,00 %
17.02.2016 22:55 0,2 C 94 % 1017,0 hPa 0,0 l/m 2,2 km/h (1 Bft) S 172 0 min 0,000 mm 0,0 UV-I 0 W/m -0,6 C 0,2 C 3,2 km/h (1 Bft) 100,00 %
17.02.2016 22:56 0,3 C 94 % 1017,0 hPa 0,0 l/m 0,8 km/h (0 Bft) S 172 0 min 0,000 mm 0,0 UV-I 0 W/m -0,5 C 0,3 C 1,6 km/h (1 Bft) 96,55 %
17.02.2016 22:57 0,3 C 95 % 1017,0 hPa 0,0 l/m 1,0 km/h (0 Bft) S 172 0 min 0,000 mm 0,0 UV-I 0 W/m -0,4 C 0,3 C 1,6 km/h (1 Bft) 100,00 %
17.02.2016 22:58 0,3 C 95 % 1017,0 hPa 0,0 l/m 1,3 km/h (1 Bft) S 172 0 min 0,000 mm 0,0 UV-I 0 W/m -0,4 C 0,3 C 3,2 km/h (1 Bft) 100,00 %
17.02.2016 22:59 0,2 C 94 % 1017,0 hPa 0,0 l/m 2,0 km/h (1 Bft) S 172 0 min 0,000 mm 0,0 UV-I 0 W/m -0,6 C 0,2 C 3,2 km/h (1 Bft) 100,00 %
17.02.2016 23:00 0,2 C 94 % 1017,0 hPa 0,0 l/m 1,9 km/h (1 Bft) S 172 0 min 0,000 mm 0,0 UV-I 0 W/m -0,6 C 0,2 C 3,2 km/h (1 Bft) 100,00 %
17.02.2016 23:01 0,2 C 94 % 1017,1 hPa 0,0 l/m 1,7 km/h (1 Bft) S 172 0 min 0,000 mm 0,0 UV-I 0 W/m -0,6 C 0,2 C 3,2 km/h (1 Bft) 96,15 %
17.02.2016 23:02 0,1 C 94 % 1017,1 hPa 0,0 l/m 1,4 km/h (1 Bft) S 172 0 min 0,000 mm 0,0 UV-I 0 W/m -0,7 C 0,1 C 3,2 km/h (1 Bft) 100,00 %
17.02.2016 23:03 0,1 C 94 % 1017,1 hPa 0,0 l/m 2,2 km/h (1 Bft) S 172 0 min 0,000 mm 0,0 UV-I 0 W/m -0,7 C 0,1 C 3,2 km/h (1 Bft) 100,00 %
17.02.2016 23:04 0,1 C 94 % 1017,1 hPa 0,0 l/m 1,8 km/h (1 Bft) S 172 0 min 0,000 mm 0,0 UV-I 0 W/m -0,7 C 0,1 C 3,2 km/h (1 Bft) 100,00 %
17.02.2016 23:05 0,1 C 94 % 1017,1 hPa 0,0 l/m 0,8 km/h (0 Bft) S 172 0 min 0,000 mm 0,0 UV-I 0 W/m -0,7 C 0,1 C 1,6 km/h (1 Bft) 100,00 %
17.02.2016 23:06 0,1 C 94 % 1017,1 hPa 0,0 l/m 0,8 km/h (0 Bft) S 172 0 min 0,000 mm 0,0 UV-I 0 W/m -0,7 C 0,1 C 1,6 km/h (1 Bft) 100,00 %
17.02.2016 23:07 0,1 C 94 % 1017,1 hPa 0,0 l/m 0,6 km/h (0 Bft) S 172 0 min 0,000 mm 0,0 UV-I 0 W/m -0,7 C 0,1 C 1,6 km/h (1 Bft) 100,00 %
17.02.2016 23:08 0,1 C 94 % 1017,2 hPa 0,0 l/m 0,6 km/h (0 Bft) S 172 0 min 0,000 mm 0,0 UV-I 0 W/m -0,7 C 0,1 C 1,6 km/h (1 Bft) 100,00 %
17.02.2016 23:09 0,1 C 94 % 1017,2 hPa 0,0 l/m 0,7 km/h (0 Bft) S 172 0 min 0,000 mm 0,0 UV-I 0 W/m -0,7 C 0,1 C 1,6 km/h (1 Bft) 100,00 %
17.02.2016 23:10 0,1 C 94 % 1017,2 hPa 0,0 l/m 0,3 km/h (0 Bft) S 172 0 min 0,000 mm 0,0 UV-I 0 W/m -0,7 C 0,1 C 1,6 km/h (1 Bft) 100,00 %
17.02.2016 23:11 0,1 C 94 % 1017,1 hPa 0,0 l/m 0,6 km/h (0 Bft) S 172 0 min 0,000 mm 0,0 UV-I 0 W/m -0,7 C 0,1 C 1,6 km/h (1 Bft) 100,00 %
17.02.2016 23:12 0,1 C 94 % 1017,2 hPa 0,0 l/m 0,9 km/h (0 Bft) S 172 0 min 0,000 mm 0,0 UV-I 0 W/m -0,7 C 0,1 C 1,6 km/h (1 Bft) 96,30 %
17.02.2016 23:13 0,1 C 94 % 1017,2 hPa 0,0 l/m 0,9 km/h (0 Bft) S 172 0 min 0,000 mm 0,0 UV-I 0 W/m -0,7 C 0,1 C 1,6 km/h (1 Bft) 95,65 %
17.02.2016 23:14 0,1 C 94 % 1017,2 hPa 0,0 l/m 0,8 km/h (0 Bft) S 172 0 min 0,000 mm 0,0 UV-I 0 W/m -0,7 C 0,1 C 1,6 km/h (1 Bft) 91,67 %
17.02.2016 23:15 0,1 C 94 % 1017,2 hPa 0,0 l/m 0,4 km/h (0 Bft) S 172 0 min 0,000 mm 0,0 UV-I 0 W/m -0,7 C 0,1 C 1,6 km/h (1 Bft) 95,12 %
17.02.2016 23:16 0,0 C 94 % 1017,2 hPa 0,0 l/m 0,0 km/h (0 Bft) S 172 0 min 0,000 mm 0,0 UV-I 0 W/m -0,8 C 0,0 C 0,0 km/h (0 Bft) 96,30 %
17.02.2016 23:17 -0,1 C 94 % 1017,2 hPa 0,0 l/m 0,7 km/h (0 Bft) S 172 0 min 0,000 mm 0,0 UV-I 0 W/m -0,9 C -0,1 C 1,6 km/h (1 Bft) 98,69 %
17.02.2016 23:18 -0,1 C 94 % 1017,1 hPa 0,0 l/m 2,0 km/h (1 Bft) S 172 0 min 0,000 mm 0,0 UV-I 0 W/m -0,9 C -0,1 C 3,2 km/h (1 Bft) 97,56 %
17.02.2016 23:19 -0,1 C 94 % 1017,2 hPa 0,0 l/m 2,9 km/h (1 Bft) S 172 0 min 0,000 mm 0,0 UV-I 0 W/m -0,9 C -0,1 C 3,2 km/h (1 Bft) 95,83 %
17.02.2016 23:20 0,0 C 95 % 1017,1 hPa 0,0 l/m 2,4 km/h (1 Bft) S 172 0 min 0,000 mm 0,0 UV-I 0 W/m -0,7 C 0,0 C 3,2 km/h (1 Bft) 100,00 %
17.02.2016 23:21 0,0 C 95 % 1017,2 hPa 0,0 l/m 1,5 km/h (1 Bft) S 172 0 min 0,000 mm 0,0 UV-I 0 W/m -0,7 C 0,0 C 3,2 km/h (1 Bft) 95,83 %
17.02.2016 23:22 -0,1 C 94 % 1017,2 hPa 0,0 l/m 1,8 km/h (1 Bft) S 172 0 min 0,000 mm 0,0 UV-I 0 W/m -0,9 C -0,1 C 3,2 km/h (1 Bft) 96,15 %
17.02.2016 23:23 -0,1 C 94 % 1017,2 hPa 0,0 l/m 1,0 km/h (0 Bft) S 172 0 min 0,000 mm 0,0 UV-I 0 W/m -0,9 C -0,1 C 1,6 km/h (1 Bft) 100,00 %
17.02.2016 23:24 -0,1 C 94 % 1017,2 hPa 0,0 l/m 2,7 km/h (1 Bft) S 172 0 min 0,000 mm 0,0 UV-I 0 W/m -0,9 C -0,1 C 3,2 km/h (1 Bft) 94,12 %
17.02.2016 23:25 -0,1 C 95 % 1017,3 hPa 0,0 l/m 2,2 km/h (1 Bft) S 172 0 min 0,000 mm 0,0 UV-I 0 W/m -0,8 C -0,1 C 3,2 km/h (1 Bft) 100,00 %
17.02.2016 23:26 -0,1 C 95 % 1017,2 hPa 0,0 l/m 1,2 km/h (1 Bft) S 172 0 min 0,000 mm 0,0 UV-I 0 W/m -0,8 C -0,1 C 1,6 km/h (1 Bft) 96,55 %
17.02.2016 23:27 -0,1 C 94 % 1017,2 hPa 0,0 l/m 1,2 km/h (1 Bft) S 172 0 min 0,000 mm 0,0 UV-I 0 W/m -0,9 C -0,1 C 3,2 km/h (1 Bft) 100,00 %
17.02.2016 23:28 -0,2 C 94 % 1017,2 hPa 0,0 l/m 1,3 km/h (1 Bft) S 172 0 min 0,000 mm 0,0 UV-I 0 W/m -1,0 C -0,2 C 1,6 km/h (1 Bft) 95,65 %
17.02.2016 23:29 -0,2 C 94 % 1017,2 hPa 0,0 l/m 1,8 km/h (1 Bft) S 172 0 min 0,000 mm 0,0 UV-I 0 W/m -1,0 C -0,2 C 3,2 km/h (1 Bft) 100,00 %
17.02.2016 23:30 -0,3 C 94 % 1017,1 hPa 0,0 l/m 1,2 km/h (1 Bft) S 172 0 min 0,000 mm 0,0 UV-I 0 W/m -1,1 C -0,3 C 1,6 km/h (1 Bft) 96,55 %
17.02.2016 23:31 -0,3 C 94 % 1017,2 hPa 0,0 l/m 1,2 km/h (1 Bft) S 172 0 min 0,000 mm 0,0 UV-I 0 W/m -1,1 C -0,3 C 1,6 km/h (1 Bft) 96,30 %
17.02.2016 23:32 -0,3 C 94 % 1017,1 hPa 0,0 l/m 2,0 km/h (1 Bft) S 172 0 min 0,000 mm 0,0 UV-I 0 W/m -1,1 C -0,3 C 3,2 km/h (1 Bft) 95,65 %
17.02.2016 23:33 -0,3 C 94 % 1017,1 hPa 0,0 l/m 2,5 km/h (1 Bft) S 172 0 min 0,000 mm 0,0 UV-I 0 W/m -1,1 C -0,3 C 3,2 km/h (1 Bft) 91,67 %
17.02.2016 23:34 -0,3 C 94 % 1017,1 hPa 0,0 l/m 1,9 km/h (1 Bft) S 172 0 min 0,000 mm 0,0 UV-I 0 W/m -1,1 C -0,3 C 3,2 km/h (1 Bft) 100,00 %
17.02.2016 23:35 -0,4 C 94 % 1017,1 hPa 0,0 l/m 2,4 km/h (1 Bft) S 172 0 min 0,000 mm 0,0 UV-I 0 W/m -1,2 C -0,4 C 3,2 km/h (1 Bft) 95,83 %
17.02.2016 23:36 -0,4 C 94 % 1017,1 hPa 0,0 l/m 2,2 km/h (1 Bft) S 172 0 min 0,000 mm 0,0 UV-I 0 W/m -1,2 C -0,4 C 3,2 km/h (1 Bft) 100,00 %
17.02.2016 23:37 -0,4 C 95 % 1017,1 hPa 0,0 l/m 2,3 km/h (1 Bft) S 172 0 min 0,000 mm 0,0 UV-I 0 W/m -1,1 C -0,4 C 3,2 km/h (1 Bft) 95,83 %
17.02.2016 23:38 -0,5 C 94 % 1017,1 hPa 0,0 l/m 3,0 km/h (1 Bft) S 172 0 min 0,000 mm 0,0 UV-I 0 W/m -1,3 C -0,5 C 3,2 km/h (1 Bft) 95,65 %
17.02.2016 23:39 -0,5 C 94 % 1017,1 hPa 0,0 l/m 3,3 km/h (1 Bft) S 172 0 min 0,000 mm 0,0 UV-I 0 W/m -1,3 C -0,5 C 4,8 km/h (1 Bft) 100,00 %
17.02.2016 23:40 -0,5 C 95 % 1017,1 hPa 0,0 l/m 3,1 km/h (1 Bft) S 172 0 min 0,000 mm 0,0 UV-I 0 W/m -1,2 C -0,5 C 4,8 km/h (1 Bft) 95,83 %
17.02.2016 23:41 -0,5 C 95 % 1017,1 hPa 0,0 l/m 3,3 km/h (1 Bft) S 172 0 min 0,000 mm 0,0 UV-I 0 W/m -1,2 C -0,5 C 4,8 km/h (1 Bft) 100,00 %
17.02.2016 23:42 -0,5 C 95 % 1017,1 hPa 0,0 l/m 3,2 km/h (1 Bft) S 172 0 min 0,000 mm 0,0 UV-I 0 W/m -1,2 C -0,5 C 4,8 km/h (1 Bft) 94,87 %
17.02.2016 23:43 -0,4 C 95 % 1017,1 hPa 0,0 l/m 3,8 km/h (1 Bft) S 172 0 min 0,000 mm 0,0 UV-I 0 W/m -1,1 C -0,4 C 4,8 km/h (1 Bft) 92,31 %
17.02.2016 23:44 -0,4 C 95 % 1017,1 hPa 0,0 l/m 3,8 km/h (1 Bft) S 172 0 min 0,000 mm 0,0 UV-I 0 W/m -1,1 C -0,4 C 4,8 km/h (1 Bft) 91,67 %
17.02.2016 23:45 -0,4 C 95 % 1017,1 hPa 0,0 l/m 3,3 km/h (1 Bft) S 172 0 min 0,000 mm 0,0 UV-I 0 W/m -1,1 C -0,4 C 4,8 km/h (1 Bft) 96,15 %
17.02.2016 23:46 -0,4 C 95 % 1017,1 hPa 0,0 l/m 1,9 km/h (1 Bft) S 172 0 min 0,000 mm 0,0 UV-I 0 W/m -1,1 C -0,4 C 3,2 km/h (1 Bft) 96,30 %
17.02.2016 23:47 -0,4 C 95 % 1017,1 hPa 0,0 l/m 1,1 km/h (1 Bft) S 172 0 min 0,000 mm 0,0 UV-I 0 W/m -1,1 C -0,4 C 1,6 km/h (1 Bft) 100,00 %
17.02.2016 23:48 -0,3 C 95 % 1017,1 hPa 0,0 l/m 1,0 km/h (0 Bft) S 172 0 min 0,000 mm 0,0 UV-I 0 W/m -1,0 C -0,3 C 1,6 km/h (1 Bft) 92,59 %
17.02.2016 23:49 -0,3 C 95 % 1017,1 hPa 0,0 l/m 1,7 km/h (1 Bft) S 172 0 min 0,000 mm 0,0 UV-I 0 W/m -1,0 C -0,3 C 3,2 km/h (1 Bft) 100,00 %
17.02.2016 23:50 -0,3 C 95 % 1017,1 hPa 0,0 l/m 1,3 km/h (1 Bft) S 172 0 min 0,000 mm 0,0 UV-I 0 W/m -1,0 C -0,3 C 3,2 km/h (1 Bft) 100,00 %
17.02.2016 23:51 -0,3 C 95 % 1017,1 hPa 0,0 l/m 3,6 km/h (1 Bft) S 172 0 min 0,000 mm 0,0 UV-I 0 W/m -1,0 C -0,3 C 4,8 km/h (1 Bft) 95,65 %
17.02.2016 23:52 -0,3 C 95 % 1017,0 hPa 0,0 l/m 3,0 km/h (1 Bft) S 172 0 min 0,000 mm 0,0 UV-I 0 W/m -1,0 C -0,3 C 3,2 km/h (1 Bft) 100,00 %
17.02.2016 23:53 -0,3 C 95 % 1017,0 hPa 0,0 l/m 2,3 km/h (1 Bft) S 172 0 min 0,000 mm 0,0 UV-I 0 W/m -1,0 C -0,3 C 3,2 km/h (1 Bft) 100,00 %
17.02.2016 23:54 -0,3 C 95 % 1017,0 hPa 0,0 l/m 3,0 km/h (1 Bft) S 172 0 min 0,000 mm 0,0 UV-I 0 W/m -1,0 C -0,3 C 3,2 km/h (1 Bft) 100,00 %
17.02.2016 23:55 -0,3 C 95 % 1017,0 hPa 0,0 l/m 3,0 km/h (1 Bft) S 172 0 min 0,000 mm 0,0 UV-I 0 W/m -1,0 C -0,3 C 3,2 km/h (1 Bft) 100,00 %
17.02.2016 23:56 -0,3 C 95 % 1017,1 hPa 0,0 l/m 1,0 km/h (0 Bft) S 172 0 min 0,000 mm 0,0 UV-I 0 W/m -1,0 C -0,3 C 3,2 km/h (1 Bft) 100,00 %
17.02.2016 23:57 -0,3 C 95 % 1017,1 hPa 0,0 l/m 0,9 km/h (0 Bft) S 172 0 min 0,000 mm 0,0 UV-I 0 W/m -1,0 C -0,3 C 1,6 km/h (1 Bft) 100,00 %
17.02.2016 23:58 -0,2 C 95 % 1017,1 hPa 0,0 l/m 1,7 km/h (1 Bft) S 172 0 min 0,000 mm 0,0 UV-I 0 W/m -0,9 C -0,2 C 3,2 km/h (1 Bft) 100,00 %
17.02.2016 23:59 -0,2 C 95 % 1017,2 hPa 0,0 l/m 1,3 km/h (1 Bft) S 172 0 min 0,000 mm 0,0 UV-I 0 W/m -0,9 C -0,2 C 1,6 km/h (1 Bft) 100,00 %
_ Min-Zeit 23:38 12:58 14:01 - 16:23 - - - - - - 23:38 05:05 16:23 03:59
Minimum _ -0,5 C 82 % 1013,4 hPa - 0,0 km/h (0 Bft) - - - - - - -1,3 C -15,0 C 0,0 km/h (0 Bft) 85,71 %
_ Max-Zeit 12:54 22:54 00:02 03:56 11:12 - - 10:37 13:01 12:36 10:39 12:54 15:00 08:30 00:00
Maximum _ 6,4 C 95 % 1029,1 hPa 0,2 l/m 49,9 km/h
O-SO (6 Bft)
- - 1 min 0,204 mm 1,5 UV-I 646 W/m 3,9 C 5,7 C 66,0 km/h
O-NO (8 Bft)
100,00 %
Durchschnitt _ 2,7 C 89 % 1019,0 hPa #0,2 l/m 20,9 km/h (4 Bft) O-NO - #1:23 h #1,016 mm 0,9 UV-I 151 W/m 1,1 C -5,3 C 27,9 km/h (4 Bft) 98,64 %